[[{"header":{"parameterUnit":"m.s-1","parameterCategory":1,"la1":30.6,"la2":28.766,"lo1":-90.7593,"lo2":-88.6598,"dy":0.0162,"dx":0.0183,"nx":116,"ny":114,"refTime":"2023-06-18T18:00:00:Z","depth":0,"parameterNumber":2,"parameterNumberName":"U-component_of_WINDS"},"data":[0.0,0.0,0.0,0.0,0.0,0.0,0.0,0.0,0.0,0.0,0.0,0.0,0.0,0.0,0.0,0.0,0.0,0.0,0.0,0.0,0.0,0.0,0.0,0.0,0.0,0.0,0.0,0.0,0.0,0.0,0.0,0.0,0.0,0.0,0.0,0.0,0.0,0.0,0.0,0.0,0.0,0.0,0.0,0.0,0.0,0.0,0.0,0.0,0.0,0.0,0.0,0.0,0.0,0.0,0.0,0.0,0.0,0.0,0.0,0.0,0.0,0.0,0.0,0.0,0.0,0.0,0.0,0.0,0.0,0.0,0.0,0.0,0.0,0.0,0.0,0.0,0.0,0.0,0.0,0.0,0.0,0.0,0.0,0.0,0.0,0.0,0.0,0.0,0.0,0.0,0.0,0.0,0.0,0.0,0.0,0.0,0.0,0.0,0.0,0.0,0.0,0.0,0.0,0.0,0.0,0.0,0.0,0.0,0.0,0.0,0.0,0.0,0.0,0.0,0.0,0.0,0.0,0.0,0.0,0.0,0.0,0.0,0.0,0.0,0.0,0.0,0.0,0.0,0.0,0.0,0.0,0.0,0.0,0.0,0.0,0.0,0.0,0.0,0.0,0.0,0.0,0.0,0.0,0.0,0.0,0.0,0.0,0.0,0.0,0.0,0.0,0.0,0.0,0.0,0.0,0.0,0.0,0.0,0.0,0.0,0.0,0.0,0.0,0.0,0.0,0.0,0.0,0.0,0.0,0.0,0.0,0.0,0.0,0.0,0.0,0.0,0.0,0.0,0.0,0.0,0.0,0.0,0.0,0.0,0.0,0.0,0.0,0.0,0.0,0.0,0.0,0.0,0.0,0.0,0.0,0.0,0.0,0.0,0.0,0.0,0.0,0.0,0.0,0.0,0.0,0.0,0.0,0.0,0.0,0.0,0.0,0.0,0.0,0.0,0.0,0.0,0.0,0.0,0.0,0.0,0.0,0.0,0.0,0.0,0.0,0.0,0.0,0.0,0.0,0.0,0.0,0.0,0.0,0.0,0.0,0.0,0.0,0.0,0.0,0.0,0.0,0.0,0.0,0.0,0.0,0.0,0.0,0.0,0.0,0.0,0.0,0.0,0.0,0.0,0.0,0.0,0.0,0.0,0.0,0.0,0.0,0.0,0.0,0.0,0.0,0.0,0.0,0.0,0.0,0.0,0.0,0.0,0.0,0.0,0.0,0.0,0.0,0.0,0.0,0.0,0.0,0.0,0.0,0.0,0.0,0.0,0.0,0.0,0.0,0.0,0.0,0.0,0.0,0.0,0.0,0.0,0.0,0.0,0.0,0.0,0.0,0.0,0.0,0.0,0.0,0.0,0.0,0.0,0.0,0.0,0.0,0.0,0.0,0.0,0.0,0.0,0.0,0.0,0.0,0.0,0.0,0.0,0.0,0.0,0.0,0.0,0.0,0.0,0.0,0.0,0.0,0.0,0.0,0.0,0.0,0.0,0.0,0.0,0.0,0.0,0.0,0.0,0.0,0.0,0.0,0.0,0.0,0.0,0.0,0.0,0.0,0.0,0.0,0.0,0.0,0.0,0.0,0.0,0.0,0.0,0.0,0.0,0.0,0.0,0.0,0.0,0.0,0.0,0.0,0.0,0.0,0.0,0.0,0.0,0.0,0.0,0.0,0.0,0.0,0.0,0.0,0.0,0.0,0.0,0.0,0.0,0.0,0.0,0.0,0.0,0.0,0.0,0.0,0.0,0.0,0.0,0.0,0.0,0.0,0.0,0.0,0.0,0.0,0.0,0.0,0.0,0.0,0.0,0.0,0.0,0.0,0.0,0.0,0.0,0.0,0.0,0.0,0.0,0.0,0.0,0.0,0.0,0.0,0.0,0.0,0.0,0.0,0.0,0.0,0.0,0.0,0.0,0.0,0.0,0.0,0.0,0.0,0.0,0.0,0.0,0.0,0.0,0.0,0.0,0.0,0.0,0.0,0.0,0.0,0.0,0.0,0.0,0.0,0.0,0.0,0.0,0.0,0.0,0.0,0.0,0.0,0.0,0.0,0.0,0.0,0.0,0.0,0.0,0.0,0.0,0.0,0.0,0.0,0.0,0.0,0.0,0.0,0.0,0.0,0.0,0.0,0.0,0.0,0.0,0.0,0.0,0.0,0.0,0.0,0.0,0.0,0.0,0.0,0.0,0.0,0.0,0.0,0.0,0.0,0.0,0.0,0.0,0.0,0.0,0.0,0.0,0.0,0.0,0.0,0.0,0.0,0.0,0.0,0.0,0.0,0.0,0.0,0.0,0.0,0.0,0.0,0.0,0.0,0.0,0.0,0.0,0.0,0.0,0.0,0.0,0.0,0.0,0.0,0.0,0.0,0.0,0.0,0.0,0.0,0.0,0.0,0.0,0.0,0.0,0.0,0.0,0.0,0.0,0.0,0.0,0.0,0.0,0.0,0.0,0.0,0.0,0.0,0.0,0.0,0.0,0.0,0.0,0.0,0.0,0.0,0.0,0.0,0.0,0.0,0.0,0.0,0.0,0.0,0.0,0.0,0.0,0.0,0.0,0.0,0.0,0.0,0.0,0.0,0.0,0.0,0.0,0.0,0.0,0.0,0.0,0.0,0.0,0.0,0.0,0.0,0.0,0.0,0.0,0.0,0.0,0.0,0.0,0.0,0.0,0.0,0.0,0.0,0.0,0.0,0.0,0.0,0.0,0.0,0.0,0.0,0.0,0.0,0.0,0.0,0.0,0.0,0.0,0.0,0.0,0.0,0.0,0.0,0.0,0.0,0.0,0.0,0.0,0.0,0.0,0.0,0.0,0.0,0.0,0.0,0.0,0.0,0.0,0.0,0.0,0.0,0.0,0.0,0.0,0.0,0.0,0.0,0.0,0.0,0.0,0.0,0.0,0.0,0.0,0.0,0.0,0.0,0.0,0.0,0.0,0.0,0.0,0.0,0.0,0.0,0.0,0.0,0.0,0.0,0.0,0.0,0.0,0.0,0.0,0.0,0.0,0.0,0.0,0.0,0.0,0.0,0.0,0.0,0.0,0.0,0.0,0.0,0.0,0.0,0.0,0.0,0.0,0.0,0.0,0.0,0.0,0.0,0.0,0.0,0.0,0.0,0.0,0.0,0.0,0.0,0.0,0.0,0.0,0.0,0.0,0.0,0.0,0.0,0.0,0.0,0.0,0.0,0.0,0.0,0.0,0.0,0.0,0.0,0.0,0.0,0.0,0.0,0.0,0.0,0.0,0.0,0.0,0.0,0.0,0.0,0.0,0.0,0.0,0.0,0.0,0.0,0.0,0.0,0.0,0.0,0.0,0.0,0.0,0.0,0.0,0.0,0.0,0.0,0.0,0.0,0.0,0.0,0.0,0.0,0.0,0.0,0.0,0.0,0.0,0.0,0.0,0.0,0.0,0.0,0.0,0.0,0.0,0.0,0.0,0.0,0.0,0.0,0.0,0.0,0.0,0.0,0.0,0.0,0.0,0.0,0.0,0.0,0.0,0.0,0.0,0.0,0.0,0.0,0.0,0.0,0.0,0.0,0.0,0.0,0.0,0.0,0.0,0.0,0.0,0.0,0.0,0.0,0.0,0.0,0.0,0.0,0.0,0.0,0.0,0.0,0.0,0.0,0.0,0.0,0.0,0.0,0.0,0.0,0.0,0.0,0.0,0.0,0.0,0.0,0.0,0.0,0.0,0.0,0.0,0.0,0.0,0.0,0.0,0.0,0.0,0.0,0.0,0.0,0.0,0.0,0.0,0.0,0.0,0.0,0.0,0.0,0.0,0.0,0.0,0.0,0.0,0.0,0.0,0.0,0.0,0.0,0.0,0.0,0.0,0.0,0.0,0.0,0.0,0.0,0.0,0.0,0.0,0.0,0.0,0.0,0.0,0.0,0.0,0.0,0.0,0.0,0.0,0.0,0.0,0.0,0.0,0.0,0.0,0.0,0.0,0.0,0.0,0.0,0.0,0.0,0.0,0.0,0.0,0.0,0.0,0.0,0.0,0.0,0.0,0.0,0.0,0.0,0.0,0.0,0.0,0.0,0.0,0.0,0.0,0.0,0.0,0.0,0.0,0.0,0.0,0.0,0.0,0.0,0.0,0.0,0.0,0.0,0.0,0.0,0.0,0.0,0.0,0.0,0.0,0.0,0.0,0.0,0.0,0.0,0.0,0.0,0.0,0.0,0.0,0.0,0.0,0.0,0.0,0.0,0.0,0.0,0.0,0.0,0.0,0.0,0.0,0.0,0.0,0.0,0.0,0.0,0.0,0.0,0.0,0.0,0.0,0.0,0.0,0.0,0.0,0.0,0.0,0.0,0.0,0.0,0.0,0.0,0.0,0.0,0.0,0.0,0.0,0.0,0.0,0.0,0.0,0.0,0.0,0.0,0.0,0.0,0.0,0.0,0.0,0.0,0.0,0.0,0.0,0.0,0.0,0.0,0.0,0.0,0.0,0.0,0.0,0.0,0.0,0.0,0.0,0.0,0.0,0.0,0.0,0.0,0.0,0.0,0.0,0.0,0.0,0.0,0.0,0.0,0.0,0.0,0.0,0.0,0.0,0.0,0.0,0.0,0.0,0.0,0.0,0.0,0.0,0.0,0.0,0.0,0.0,0.0,0.0,0.0,0.0,0.0,0.0,0.0,0.0,0.0,0.0,0.0,0.0,0.0,0.0,0.0,0.0,0.0,0.0,0.0,0.0,0.0,0.0,0.0,0.0,0.0,0.0,0.0,0.0,0.0,0.0,0.0,0.0,0.0,0.0,0.0,0.0,0.0,0.0,0.0,0.0,0.0,0.0,0.0,0.0,0.0,0.0,0.0,0.0,0.0,0.0,0.0,0.0,0.0,0.0,0.0,0.0,0.0,0.0,0.0,0.0,0.0,0.0,0.0,0.0,0.0,0.0,0.0,0.0,0.0,0.0,0.0,0.0,0.0,0.0,0.0,0.0,0.0,0.0,0.0,0.0,0.0,0.0,0.0,0.0,0.0,0.0,0.0,0.0,0.0,0.0,0.0,0.0,0.0,0.0,0.0,0.0,0.0,0.0,0.0,0.0,0.0,0.0,0.0,0.0,0.0,0.0,0.0,0.0,0.0,0.0,0.0,0.0,0.0,0.0,0.0,0.0,0.0,0.0,0.0,0.0,0.0,0.0,0.0,0.0,0.0,0.0,0.0,0.0,0.0,0.0,0.0,0.0,0.0,0.0,0.0,0.0,0.0,0.0,0.0,0.0,0.0,0.0,0.0,0.0,0.0,0.0,0.0,0.0,0.0,0.0,0.0,0.0,0.0,0.0,0.0,0.0,0.0,0.0,0.0,0.0,0.0,0.0,0.0,0.0,0.0,0.0,0.0,0.0,0.0,0.0,0.0,0.0,0.0,0.0,0.0,0.0,0.0,0.0,0.0,0.0,0.0,0.0,0.0,0.0,0.0,0.0,0.0,0.0,0.0,0.0,0.0,0.0,0.0,0.0,0.0,0.0,0.0,0.0,0.0,0.0,0.0,0.0,0.0,0.0,0.0,0.0,0.0,0.0,0.0,0.0,0.0,0.0,0.0,0.0,0.0,0.0,0.0,0.0,0.0,0.0,0.0,0.0,0.0,0.0,0.0,0.0,0.0,0.0,0.0,0.0,0.0,0.0,0.0,0.0,0.0,0.0,0.0,0.0,0.0,0.0,0.0,0.0,0.0,0.0,0.0,0.0,0.0,0.0,0.0,0.0,0.0,0.0,0.0,0.0,0.0,0.0,0.0,0.0,0.0,0.0,0.0,0.0,0.0,0.0,0.0,0.0,0.0,0.0,0.0,0.0,0.0,0.0,0.0,0.0,0.0,0.0,0.0,0.0,0.0,0.0,0.0,0.0,0.0,0.0,0.0,0.0,0.0,0.0,0.0,0.0,0.0,0.0,0.0,0.0,0.0,0.0,0.0,0.0,0.0,0.0,0.0,0.0,0.0,0.0,0.0,0.0,0.0,0.0,0.0,0.0,0.0,0.0,0.0,0.0,0.0,0.0,0.0,0.0,0.0,0.0,0.0,0.0,0.0,0.0,0.0,0.0,0.0,0.0,0.0,0.0,0.0,0.0,0.0,0.0,0.0,0.0,-3.8364,0.0,0.0,0.0,0.0,0.0,0.0,0.0,0.0,0.0,0.0,0.0,0.0,0.0,0.0,0.0,0.0,0.0,0.0,0.0,0.0,0.0,0.0,0.0,0.0,0.0,0.0,0.0,0.0,0.0,0.0,0.0,0.0,0.0,0.0,0.0,0.0,0.0,0.0,0.0,0.0,0.0,0.0,0.0,0.0,0.0,0.0,0.0,0.0,0.0,0.0,0.0,0.0,0.0,0.0,0.0,0.0,0.0,0.0,0.0,0.0,0.0,0.0,0.0,0.0,0.0,0.0,0.0,0.0,0.0,0.0,0.0,0.0,0.0,0.0,0.0,0.0,0.0,0.0,0.0,0.0,0.0,0.0,0.0,0.0,0.0,0.0,0.0,0.0,0.0,0.0,0.0,0.0,0.0,0.0,0.0,0.0,0.0,0.0,0.0,0.0,0.0,0.0,0.0,0.0,0.0,0.0,0.0,0.0,0.0,0.0,0.0,0.0,0.0,0.0,0.0,0.0,-3.9847,0.0,0.0,0.0,0.0,0.0,0.0,0.0,0.0,0.0,0.0,0.0,0.0,0.0,0.0,0.0,0.0,0.0,0.0,0.0,0.0,0.0,0.0,0.0,0.0,0.0,0.0,0.0,0.0,0.0,0.0,0.0,0.0,0.0,0.0,0.0,0.0,0.0,0.0,0.0,0.0,0.0,0.0,0.0,0.0,0.0,0.0,0.0,0.0,0.0,0.0,0.0,0.0,0.0,0.0,0.0,0.0,0.0,0.0,0.0,0.0,0.0,0.0,0.0,0.0,0.0,0.0,0.0,0.0,0.0,0.0,0.0,0.0,0.0,0.0,0.0,0.0,0.0,0.0,0.0,0.0,0.0,0.0,0.0,0.0,0.0,0.0,0.0,0.0,0.0,0.0,0.0,0.0,0.0,0.0,0.0,0.0,0.0,0.0,0.0,0.0,0.0,0.0,0.0,0.0,0.0,0.0,0.0,0.0,-4.2783,-4.3193,-4.3804,-4.4431,-4.5011,-4.5523,-4.3668,-4.2697,-4.2365,-4.2034,0.0,0.0,0.0,0.0,0.0,0.0,0.0,0.0,0.0,0.0,0.0,0.0,0.0,0.0,0.0,0.0,0.0,0.0,0.0,0.0,0.0,0.0,0.0,0.0,0.0,0.0,0.0,0.0,0.0,0.0,0.0,0.0,0.0,0.0,0.0,0.0,0.0,0.0,-3.6304,-3.7503,-3.8342,-3.8792,-3.7839,0.0,0.0,0.0,0.0,0.0,0.0,0.0,0.0,0.0,0.0,0.0,0.0,0.0,0.0,0.0,0.0,0.0,0.0,0.0,0.0,0.0,0.0,0.0,0.0,0.0,0.0,0.0,0.0,0.0,0.0,0.0,0.0,0.0,0.0,0.0,0.0,0.0,0.0,0.0,0.0,0.0,0.0,0.0,-2.8839,-3.0226,0.0,0.0,0.0,0.0,0.0,0.0,0.0,0.0,0.0,0.0,0.0,0.0,0.0,-4.1512,-4.3456,-4.3027,-4.3395,-4.4681,-4.5235,-4.5722,-4.6158,-4.6781,-4.7285,-4.7728,-4.7638,0.0,-4.4957,-4.4323,0.0,0.0,0.0,0.0,0.0,0.0,0.0,0.0,0.0,0.0,0.0,0.0,0.0,0.0,0.0,0.0,0.0,0.0,0.0,0.0,0.0,0.0,0.0,0.0,0.0,0.0,0.0,0.0,0.0,0.0,0.0,0.0,0.0,0.0,0.0,0.0,-3.6195,-3.7533,-3.8153,-3.908,-3.9888,-4.0487,-4.0034,-3.9762,-3.9485,-3.8659,0.0,0.0,0.0,0.0,0.0,0.0,0.0,0.0,0.0,0.0,0.0,0.0,0.0,0.0,0.0,0.0,0.0,0.0,0.0,0.0,0.0,0.0,0.0,0.0,0.0,0.0,0.0,0.0,0.0,0.0,0.0,0.0,0.0,0.0,0.0,0.0,0.0,0.0,0.0,-2.9362,-3.1177,-3.193,-3.4012,-3.5373,0.0,0.0,0.0,0.0,0.0,0.0,0.0,0.0,0.0,-4.21,-4.2869,-4.3874,-4.5051,-4.5103,-4.5572,-4.648,-4.7299,-4.7793,-4.7976,-4.8596,-4.8995,-4.9145,-4.93,-4.8985,-4.837,-4.7137,-4.6495,-4.622,0.0,0.0,0.0,0.0,-4.5751,-4.5875,0.0,0.0,0.0,0.0,0.0,0.0,0.0,0.0,0.0,0.0,0.0,0.0,0.0,0.0,0.0,-2.6704,0.0,0.0,0.0,0.0,0.0,0.0,0.0,0.0,0.0,0.0,0.0,-3.6643,-3.8012,-3.908,-3.9948,-4.0756,-4.1414,-4.1893,-4.2222,-4.1858,-4.0835,-4.0127,-3.9786,0.0,0.0,0.0,0.0,0.0,0.0,0.0,0.0,0.0,0.0,0.0,0.0,0.0,0.0,0.0,0.0,0.0,0.0,0.0,0.0,0.0,0.0,0.0,0.0,0.0,0.0,0.0,0.0,0.0,0.0,0.0,0.0,0.0,0.0,0.0,0.0,0.0,0.0,-3.193,-3.3296,-3.3906,-3.6123,-3.7601,0.0,0.0,0.0,0.0,0.0,0.0,-4.2016,-4.3575,-4.4394,-4.4179,-4.5171,-4.6111,-4.688,-4.7121,-4.7539,-4.8239,-4.9108,-4.9595,-4.9764,-5.0382,-5.08,-5.0969,-5.0969,-5.1236,-5.1595,-4.9739,-4.8798,-4.8526,-4.8407,-4.8051,-4.7627,-4.803,-4.8341,-4.8517,0.0,0.0,0.0,0.0,0.0,0.0,0.0,0.0,0.0,0.0,0.0,0.0,0.0,0.0,-2.6904,-2.8767,-2.8841,-2.932,0.0,0.0,0.0,0.0,0.0,0.0,0.0,0.0,0.0,-3.923,-3.932,-4.0038,-4.1362,-4.2581,-4.317,-4.326,-4.4556,-4.3838,-4.1656,-4.1595,-4.1395,-4.1056,0.0,0.0,0.0,0.0,0.0,0.0,0.0,0.0,0.0,0.0,0.0,0.0,0.0,0.0,0.0,0.0,0.0,0.0,0.0,0.0,0.0,0.0,0.0,0.0,0.0,0.0,0.0,0.0,0.0,0.0,0.0,0.0,0.0,0.0,0.0,0.0,0.0,0.0,0.0,-3.6283,-3.8452,0.0,0.0,0.0,0.0,-4.2938,-4.3053,-4.3624,-4.4835,-4.552,-4.6195,-4.6776,-4.7218,-4.8056,-4.9223,-4.8995,-4.9202,-4.9872,-5.0519,-5.1084,-5.1674,-5.2293,-5.2911,-5.3473,-5.3473,-5.3809,-5.4111,-5.168,-5.0666,-5.056,-5.0778,-5.0612,-5.0342,-5.0532,-5.0785,-5.1066,0.0,0.0,0.0,0.0,0.0,0.0,0.0,0.0,0.0,0.0,0.0,0.0,0.0,-2.7285,-2.8427,-2.9051,-2.9808,-3.0761,-3.2013,0.0,0.0,0.0,0.0,0.0,0.0,0.0,-3.8801,-3.9373,-4.0696,-4.1773,-4.2641,-4.3539,-4.4116,-4.4411,-4.4888,-4.4631,-4.3787,-4.3196,-4.2839,-4.2629,-4.1267,-4.027,0.0,0.0,0.0,0.0,0.0,0.0,0.0,0.0,0.0,0.0,0.0,0.0,0.0,0.0,0.0,0.0,0.0,0.0,0.0,0.0,0.0,0.0,0.0,0.0,0.0,0.0,0.0,0.0,0.0,0.0,0.0,0.0,0.0,0.0,0.0,0.0,0.0,-3.8466,-4.0349,0.0,0.0,-4.3037,-4.4077,-4.4949,-4.5406,-4.5912,-4.6622,-4.7644,-4.8226,-4.8302,-4.8844,-4.9526,-5.0372,-5.066,-5.1112,-5.1731,-5.2377,-5.2798,-5.3023,-5.322,-5.3445,-5.3726,-5.3867,-5.4147,-5.448,-5.3812,-5.3333,-5.3094,-5.2946,-5.293,-5.2998,-5.3198,-5.3526,-5.3773,0.0,0.0,0.0,0.0,0.0,0.0,0.0,0.0,0.0,0.0,0.0,-2.5767,-2.6611,-2.8317,-2.9512,-2.9872,-3.1047,-3.2212,-3.3154,0.0,0.0,0.0,0.0,0.0,0.0,-3.9005,-4.007,-4.0397,-4.1953,-4.303,-4.3648,-4.4586,-4.512,-4.5327,-4.5535,-4.5582,-4.548,-4.4713,-4.4238,-4.3826,-4.2402,-4.1444,-4.0852,0.0,0.0,0.0,0.0,0.0,0.0,0.0,0.0,0.0,0.0,0.0,0.0,0.0,0.0,0.0,0.0,0.0,0.0,0.0,0.0,0.0,0.0,0.0,0.0,0.0,0.0,0.0,0.0,0.0,0.0,0.0,0.0,0.0,0.0,0.0,-3.9005,-4.0744,-4.2253,-4.3418,-4.4271,-4.5231,-4.612,-4.6943,-4.7445,-4.7858,-4.833,-4.9149,-4.9695,-4.996,-5.0354,-5.1026,-5.1869,-5.2208,-5.263,-5.3051,-5.3669,-5.3978,-5.3978,-5.4203,-5.4345,-5.4459,-5.4658,-5.4941,-5.5334,-5.553,-5.5548,-5.5358,-5.4677,-5.4615,-5.5034,-5.519,-5.55,-5.5837,0.0,0.0,0.0,0.0,0.0,0.0,0.0,0.0,0.0,0.0,-2.4796,-2.6141,-2.7355,-2.8746,-3.0073,-3.1292,-3.2596,-3.3571,-3.4097,-3.462,0.0,0.0,0.0,0.0,-3.9884,-3.9945,-4.0764,-4.244,-4.306,-4.3678,-4.4407,-4.5723,-4.6224,-4.607,-4.662,-4.68,-4.655,-4.6178,-4.5478,-4.4569,-4.3907,-4.2938,-4.1863,0.0,0.0,0.0,0.0,0.0,0.0,0.0,0.0,0.0,0.0,0.0,0.0,0.0,0.0,0.0,0.0,0.0,0.0,0.0,0.0,0.0,0.0,0.0,0.0,0.0,0.0,0.0,0.0,0.0,0.0,0.0,0.0,0.0,-3.8214,-3.9668,-4.1363,-4.3037,-4.4152,-4.5261,-4.6534,-4.7045,-4.7797,-4.8925,-4.9066,-4.9398,-5.0041,-5.0097,-5.066,-5.1815,-5.1843,-5.2433,-5.3754,-5.3697,-5.3726,-5.3726,-5.4344,-5.4625,-5.4625,-5.5243,-5.5699,-5.6076,-5.6076,-5.6422,-5.6937,-5.6994,-5.7164,-5.7245,-5.5968,-5.5854,-5.6338,-5.6421,-5.674,-5.7214,0.0,0.0,0.0,0.0,0.0,0.0,0.0,0.0,0.0,0.0,-2.5766,-2.732,-2.7472,-2.9679,-3.1246,-3.138,-3.3117,-3.4347,-3.4792,0.0,0.0,0.0,0.0,0.0,-3.9884,-4.0855,-4.1942,-4.3159,-4.3748,-4.4646,-4.5741,-4.6142,-4.6433,-4.662,-4.6697,-4.6624,-4.658,-4.627,-4.5843,-4.5243,-4.4415,-4.3737,-4.3059,0.0,0.0,0.0,0.0,0.0,0.0,0.0,0.0,0.0,0.0,0.0,0.0,0.0,0.0,0.0,0.0,0.0,0.0,0.0,0.0,0.0,0.0,0.0,0.0,0.0,0.0,0.0,0.0,0.0,0.0,0.0,0.0,-4.0282,-4.0213,-4.1532,-4.2952,-4.4152,-4.5618,-4.6827,-4.7644,-4.8635,-4.9394,-4.9679,-5.0522,-5.1112,-5.1281,-5.2207,-5.2854,-5.3135,-5.3164,-5.3529,-5.4316,-5.4344,-5.4569,-5.499,-5.5159,-5.5359,-5.5619,-5.6241,-5.67,-5.702,-5.7769,-5.8117,-5.832,-5.8523,-5.8697,-5.861,-5.7528,-5.7364,-5.7778,-5.85,-5.9249,-6.0027,0.0,0.0,0.0,0.0,0.0,0.0,0.0,0.0,0.0,0.0,-2.64,-2.7863,-2.768,-3.0167,-3.1782,-3.159,-3.3718,-3.5113,-3.5303,0.0,0.0,0.0,0.0,-4.0317,-4.0878,-4.1869,-4.2856,-4.3898,-4.4447,-4.5274,-4.6322,-4.6621,-4.6791,-4.6887,-4.68,-4.6624,-4.6447,-4.6403,-4.6197,-4.58,-4.5111,-4.4422,-4.3698,-4.3196,-4.2357,-4.1285,-4.0712,-3.9627,-3.8433,-3.7901,0.0,0.0,0.0,0.0,0.0,0.0,0.0,0.0,0.0,0.0,0.0,0.0,0.0,0.0,0.0,0.0,0.0,0.0,0.0,0.0,0.0,0.0,0.0,0.0,-4.1117,-4.2366,-4.2539,-4.3294,-4.439,-4.591,-4.6975,-4.8021,-4.9174,-5.0157,-5.0885,-5.1084,-5.2012,-5.2574,-5.2574,-5.3276,-5.3782,-5.4035,-5.4063,-5.4344,-5.4962,-5.4962,-5.5159,-5.5496,-5.5613,-5.5929,-5.6386,-5.6931,-5.745,-5.8029,-5.8549,-5.8898,-5.9015,-5.9219,-5.9306,0.0,0.0,0.0,0.0,0.0,-6.0607,-6.1104,0.0,0.0,0.0,0.0,0.0,0.0,0.0,0.0,0.0,0.0,0.0,-2.797,-2.7936,-3.0368,-3.1972,-3.1862,-3.4188,-3.5719,0.0,0.0,0.0,-3.8834,-4.007,-4.126,-4.2322,-4.2711,-4.3486,-4.4609,-4.5098,-4.5663,-4.6279,-4.701,-4.7149,-4.6931,-4.6931,-4.6668,-4.6314,-4.6491,-4.6447,-4.6166,-4.5873,-4.5086,-4.4091,-4.3768,-4.3205,-4.2447,-4.1112,-4.0558,-4.0232,-3.8807,0.0,0.0,0.0,0.0,0.0,0.0,0.0,0.0,0.0,0.0,0.0,0.0,0.0,0.0,0.0,0.0,0.0,0.0,0.0,0.0,0.0,0.0,0.0,0.0,-4.2941,-4.4442,-4.5052,-4.5119,-4.5797,-4.7853,-4.8302,-4.9117,-5.0803,-5.1534,-5.2152,-5.277,-5.3416,-5.3782,-5.3782,0.0,0.0,0.0,0.0,-5.4962,-5.5496,-5.5496,-5.5496,-5.5554,-5.593,-5.6416,-5.7014,-5.7478,-5.8115,-5.8926,-5.9071,-5.9246,-5.951,-5.951,-5.9568,-5.9626,-5.9712,-6.0028,-6.0459,-6.0999,-6.1283,-6.1369,0.0,0.0,0.0,0.0,0.0,0.0,0.0,0.0,0.0,-2.4808,-2.6813,-2.8122,-2.799,-3.0588,-3.2206,-3.1972,-3.3968,-3.5557,0.0,0.0,-3.9251,-3.9218,-4.0204,-4.133,-4.2437,-4.2438,-4.3153,-4.4609,-4.5232,-4.58,-4.6279,-4.701,-4.7266,-4.7222,-4.7019,-4.6844,-4.6756,-4.6624,-4.6447,-4.624,-4.652,-4.5908,-4.4733,-4.4132,-4.3389,-4.2491,-4.1738,-4.0958,-4.0143,-3.9496,-3.8922,-3.8339,-3.7338,0.0,0.0,0.0,0.0,0.0,0.0,0.0,0.0,0.0,0.0,0.0,0.0,0.0,0.0,0.0,0.0,0.0,0.0,0.0,0.0,-4.251,-4.3788,-4.5336,-4.744,-4.7603,-4.7622,-4.8078,-4.9426,-5.0663,-5.1534,-5.2152,-5.2798,-5.3445,-5.4063,-5.44,-5.44,-5.4878,-5.5215,-5.5327,-5.5327,-5.5383,-5.5496,-5.5496,-5.5613,-5.5932,0.0,0.0,-5.7685,-5.8778,-5.9562,-5.9973,-6.0524,-6.0756,-6.0816,-6.0816,-6.1114,-6.1469,-6.0468,-6.078,-6.1741,-6.1855,-6.2241,-6.2747,0.0,0.0,0.0,0.0,0.0,0.0,0.0,0.0,0.0,0.0,-2.7304,-2.8376,-2.8148,-3.0782,-3.2459,-3.2206,-3.4313,0.0,0.0,-3.8637,-3.9597,-3.9409,-4.0814,-4.1945,-4.2618,-4.2806,-4.3594,-4.4959,-4.5173,-4.5675,-4.6449,-4.6779,-4.7066,-4.7309,-4.7149,-4.7019,-4.6887,-4.68,-4.6624,-4.6373,-4.627,-4.5733,-4.4983,-4.4739,-4.3947,-4.2878,-4.2333,-4.1684,-4.0969,-4.048,-3.9896,-3.9203,-3.865,-3.8341,-3.809,0.0,0.0,0.0,0.0,0.0,0.0,0.0,0.0,0.0,0.0,0.0,0.0,0.0,0.0,-3.8081,0.0,0.0,-4.1867,-4.3657,-4.4836,-4.6192,-4.8032,-4.8872,-4.93,-4.9454,-5.0326,-5.1253,-5.2152,-5.2826,-5.3445,-5.4091,-5.4709,-5.5046,-5.5046,-5.5327,-5.5496,-5.5496,-5.5496,-5.5496,-5.5496,-5.5981,-5.6267,-5.6443,-5.742,-5.8171,-5.8809,-5.9621,-6.0262,-6.0729,-6.1048,-6.1193,-6.1193,-6.1344,-6.1702,-6.2057,-6.1583,-6.19,-6.26,-6.26,-6.2894,-6.3367,0.0,0.0,0.0,0.0,0.0,0.0,0.0,0.0,0.0,0.0,-2.7776,-2.8605,-2.8395,-3.0883,-3.2585,0.0,0.0,0.0,0.0,-3.8614,-3.9497,-3.9566,-4.114,-4.2254,-4.2683,-4.3148,-4.3881,-4.4955,-4.4996,-4.5496,-4.6309,-4.6429,-4.6635,-4.6963,-4.6963,-4.6804,-4.6588,-4.6588,-4.6458,-4.6254,-4.5723,-4.526,-4.4834,-4.5042,-4.4377,-4.324,-4.2587,-4.2183,-4.1802,-4.1193,-4.0528,-3.9908,-3.9787,-3.9453,-3.9118,-3.8994,-3.8621,0.0,0.0,0.0,0.0,0.0,0.0,0.0,0.0,0.0,-3.8164,-3.8379,-3.887,-3.9648,-4.0998,-4.178,-4.2766,-4.4517,-4.5616,-4.6813,-4.8325,-4.9601,-5.061,-5.1186,-5.1271,-5.1696,-5.2937,-5.3473,-5.4092,-5.4824,-5.5273,-5.5496,-5.5496,-5.5496,-5.5496,-5.5496,-5.5608,-5.5693,-5.581,-5.6665,-5.7125,-5.7272,-5.8401,-5.93,-5.9879,-6.0233,-6.07,-6.1193,-6.1193,-6.1253,-6.1284,-6.1554,-6.191,-6.2234,-6.2556,-6.2847,-6.3079,-6.3079,-6.3252,-6.3538,0.0,0.0,0.0,0.0,0.0,0.0,0.0,0.0,0.0,0.0,0.0,0.0,0.0,0.0,0.0,0.0,0.0,0.0,-3.6303,-3.7681,-3.8865,-3.9721,-4.0356,-4.1234,-4.2416,-4.2718,-4.3142,-4.3697,-4.4764,-4.5239,-4.5192,-4.5728,-4.5908,-4.5804,-4.5804,-4.568,-4.5472,-4.5472,-4.5347,-4.5208,-4.5287,-4.487,-4.4109,-4.4355,-4.3917,-4.314,-4.1961,-4.1678,-4.1704,-4.0527,-4.0292,-4.0324,-3.9708,-3.9627,-3.9575,-3.8986,0.0,-3.8838,-3.8515,-3.8025,-3.7681,-3.8102,-3.8383,-3.8546,0.0,0.0,-3.9513,-3.939,-4.0089,-4.0802,-4.1001,-4.2298,-4.3768,-4.5015,-4.583,-4.7193,-4.9789,-5.0294,-5.0938,-5.2316,-5.2512,-5.2944,-5.4198,-5.4119,-5.4545,-5.5734,-5.5643,-5.5496,-5.5496,-5.5496,-5.5496,-5.5496,-5.603,-5.6429,-5.6753,-5.7347,-5.8016,-5.8607,-5.9328,-5.9852,-6.0176,-6.0816,-6.1135,-6.1193,-6.1193,-6.1344,-6.1613,-6.191,-6.2234,-6.2556,-6.2905,-6.3079,-6.3079,-6.3079,-6.3252,-6.3538,0.0,0.0,0.0,0.0,0.0,0.0,0.0,0.0,0.0,0.0,0.0,0.0,0.0,0.0,0.0,0.0,0.0,0.0,-3.6612,-3.7676,-3.8685,-3.9537,-4.0385,-4.1181,-4.1929,-4.2419,-4.2899,-4.3262,-4.4068,-4.4519,-4.4694,-4.5318,-4.5637,-4.5798,-4.5798,-4.5716,-4.5634,-4.5634,-4.5593,-4.5481,-4.5212,-4.464,-4.3927,-4.3645,-4.3111,-4.2439,-4.2174,-4.1828,0.0,0.0,-4.0602,-4.0443,-4.0166,-4.0143,-4.0146,-3.9871,-3.9745,0.0,-3.9616,-3.9455,0.0,0.0,-3.9437,-3.947,-3.9369,-3.9676,-4.0044,-4.0332,-4.0887,-4.1577,-4.2338,-4.3009,-4.405,0.0,-4.6325,-4.7355,-4.9734,-5.0515,-5.1213,-5.2206,-5.2824,-5.3399,-5.3909,-5.4171,-5.4713,-5.5681,-5.5763,-5.5787,-5.5787,-5.5613,-5.5664,-5.603,-5.646,-5.6948,-5.7435,-5.8417,-5.909,-5.9416,-6.0229,-6.0667,-6.0787,-6.1077,-6.1193,-6.1193,-6.1193,-6.1344,-6.1613,-6.1969,-6.2292,-6.2615,-6.2963,-6.3079,-6.3079,-6.3079,-6.3424,-6.3823,0.0,0.0,0.0,0.0,0.0,0.0,0.0,0.0,0.0,0.0,0.0,0.0,0.0,0.0,0.0,0.0,0.0,0.0,0.0,-3.7412,-3.8321,-3.9174,-4.011,-4.0798,-4.1214,-4.2004,-4.2498,-4.2692,-4.3354,-4.382,-4.413,-4.451,-4.4772,-4.4987,-4.5169,-4.5059,-4.4828,-4.501,-4.498,-4.4768,-4.4322,-4.3836,-4.3281,-4.2864,-4.2257,-4.1778,-4.204,-4.1735,0.0,0.0,-4.0734,-4.0505,-4.0505,-4.0505,-4.0505,-4.047,-4.0419,-4.0411,-4.0424,0.0,0.0,-4.0392,-4.0289,-4.0118,-3.9955,-4.0107,-4.0421,-4.1042,-4.1533,-4.2205,-4.3392,-4.373,0.0,-4.6452,-4.6784,-4.7535,-4.9617,-5.0701,-5.1488,-5.2174,-5.2966,-5.3545,-5.3579,-5.4245,-5.4934,-5.5564,-5.5908,-5.6077,-5.6077,-5.5957,-5.615,-5.6632,-5.7177,-5.7693,-5.8326,-5.9494,-6.0079,-6.0199,-6.087,-6.1193,-6.1193,-6.1193,-6.1193,-6.1193,-6.1193,-6.1404,-6.1791,-6.1969,-6.2351,-6.2731,-6.3021,-6.3079,-6.3079,-6.3079,-6.3481,-6.3993,0.0,0.0,0.0,0.0,0.0,0.0,0.0,0.0,0.0,0.0,0.0,0.0,0.0,0.0,0.0,0.0,0.0,0.0,0.0,-3.6381,-3.7524,-3.8673,-3.9202,-3.9683,-4.0212,-4.1279,-4.1783,-4.1649,-4.2834,-4.3318,-4.3141,-4.3172,-4.2957,-4.2621,-4.3267,-4.3019,-4.2068,-4.2773,-4.2682,-4.2008,-4.2008,-4.1977,-4.1947,-4.1947,-4.1669,-4.1204,-4.1115,0.0,0.0,0.0,-4.0401,-4.0505,-4.0505,-4.0505,0.0,-4.0331,-4.0471,-4.0661,0.0,0.0,-4.0812,-4.1022,-4.0723,-4.0497,-4.0844,-4.0802,-4.0828,-4.1474,-4.2093,-4.2829,-4.3704,-4.4372,-4.5259,-4.6747,-4.6995,-4.7749,-4.9968,-5.0803,-5.1539,-5.2484,-5.3123,-5.353,0.0,-5.4421,-5.5267,-5.5845,-5.6222,-5.6394,-5.6394,-5.6703,-5.7014,-5.7394,-5.8295,-5.9041,-5.9731,-6.0336,-6.0863,-6.1164,-6.1193,-6.1193,-6.1193,-6.1193,-6.1193,-6.1193,-6.1193,-6.1552,-6.2116,-6.2116,-6.2468,-6.3079,-6.3079,-6.3079,-6.3079,-6.3079,-6.3481,-6.3993,0.0,0.0,0.0,0.0,0.0,0.0,0.0,0.0,0.0,0.0,0.0,0.0,0.0,0.0,0.0,0.0,0.0,0.0,0.0,-3.6138,-3.6837,-3.755,-3.8581,-3.9107,-3.9084,-4.0301,-4.0858,-4.067,-4.1817,-4.2282,-4.2145,-4.2918,-4.318,-4.29,-4.3149,-4.3046,-4.2721,-4.2968,-4.2937,-4.2721,-4.2721,-4.2443,-4.1979,-4.1511,-4.0959,-4.0347,0.0,0.0,0.0,0.0,0.0,0.0,-4.0505,0.0,-4.047,-4.0156,-4.0287,-4.0524,0.0,0.0,-4.1211,-4.1283,-4.1207,-4.1026,-4.0845,-4.0859,-4.1071,-4.1736,-4.2518,-4.3275,-4.3946,-4.4573,-4.5378,-4.6516,-4.7022,-4.7702,-4.9039,-5.0506,-5.1599,-5.1904,-5.2862,0.0,0.0,0.0,0.0,-5.5542,-5.6275,-5.6709,-5.6709,-5.7023,-5.7448,-5.7994,-5.8942,-5.9781,-6.0364,-6.0837,-6.1073,-6.1193,-6.1193,-6.1193,-6.1193,-6.1193,-6.1193,-6.1193,-6.1193,-6.1523,-6.2116,-6.2116,-6.2468,-6.3079,-6.3079,-6.3079,-6.3079,-6.3079,-6.3481,-6.3993,0.0,0.0,0.0,0.0,0.0,0.0,0.0,0.0,0.0,0.0,0.0,0.0,0.0,0.0,0.0,0.0,0.0,0.0,0.0,0.0,-3.6233,-3.6486,-3.7742,-3.8434,-3.8368,-3.9438,-3.9982,-3.9973,-4.0891,-4.1247,-4.1119,-4.1843,-4.2086,-4.1886,-4.2137,-4.2037,-4.1716,-4.1966,-4.19,-4.1647,-4.1647,-4.1398,-4.093,-4.0591,-4.0122,0.0,0.0,0.0,0.0,0.0,0.0,0.0,0.0,-4.0286,-4.0261,-4.0081,-4.0323,-4.0658,0.0,-4.1223,-4.1703,-4.1532,-4.1522,-4.1438,-4.1057,-4.1029,-4.1327,-4.198,-4.2581,-4.3342,-4.4292,-4.4825,-4.5537,-4.6662,-4.73,-4.7938,-4.8748,-5.024,-5.1381,-5.1585,-5.2543,0.0,0.0,0.0,0.0,-5.5416,-5.644,-5.705,-5.705,-5.7599,-5.8143,-5.8604,-5.9644,-6.0338,-6.0863,-6.1073,-6.1193,-6.1193,-6.1193,-6.1193,-6.1193,-6.1193,-6.1193,-6.1193,-6.1284,-6.1642,-6.2116,-6.2234,-6.2585,-6.3079,-6.3079,-6.3079,-6.3079,-6.3079,-6.3424,-6.3823,0.0,0.0,0.0,0.0,0.0,0.0,0.0,0.0,0.0,0.0,0.0,0.0,0.0,0.0,0.0,0.0,0.0,0.0,0.0,0.0,0.0,-3.5554,-3.6659,-3.7553,-3.803,-3.8599,-3.9073,-3.9479,-4.0053,-4.0294,-4.0082,-4.0027,-3.9906,-3.9721,-4.0356,-4.0135,-3.9282,-3.9909,-3.9751,-3.9028,-3.9028,-3.9028,-3.906,-3.9156,0.0,0.0,0.0,0.0,0.0,0.0,0.0,0.0,0.0,0.0,-4.0011,-4.0011,-4.0514,-4.1003,-4.0772,-4.1517,-4.2269,-4.1827,-4.1702,-4.166,-4.148,-4.1438,-4.1609,-4.221,-4.2496,-4.3084,0.0,0.0,-4.5713,-4.7168,-4.7796,-4.8302,-4.8927,-5.0009,-5.0909,0.0,0.0,0.0,0.0,0.0,0.0,-5.5416,0.0,-5.7303,-5.7361,-5.8292,-5.9014,-5.9335,-6.0227,-6.0892,-6.1193,-6.1193,-6.1193,-6.1193,-6.1193,-6.1193,-6.1193,-6.1193,-6.1193,-6.1193,-6.1494,-6.1791,-6.2116,-6.2498,-6.2789,-6.3079,-6.3079,-6.3079,-6.3079,-6.3079,-6.3252,-6.3538,0.0,0.0,0.0,0.0,0.0,0.0,0.0,0.0,0.0,0.0,0.0,0.0,0.0,0.0,0.0,0.0,0.0,0.0,0.0,0.0,0.0,0.0,0.0,0.0,0.0,0.0,0.0,0.0,0.0,-3.8716,-3.8951,-3.936,-3.9728,-4.0089,-4.0128,-4.0035,-3.9814,-3.9974,-3.9942,-3.9752,0.0,-3.9752,-3.9689,0.0,0.0,0.0,0.0,0.0,0.0,0.0,0.0,0.0,0.0,-3.9776,-4.0011,-4.0011,-4.0374,-4.0811,-4.0733,-4.1397,-4.2104,-4.1785,-4.1702,-4.1702,-4.1619,-4.1744,-4.1926,-4.2308,-4.2923,-4.3529,0.0,0.0,0.0,-4.6035,-4.6962,0.0,-4.8302,-4.9453,0.0,0.0,0.0,-5.2833,-5.3442,-5.4662,0.0,0.0,-5.6578,-5.7536,-5.8029,-5.8784,-5.9451,-5.9945,-6.0698,-6.1133,-6.1193,-6.1193,-6.1193,-6.1193,-6.1193,-6.1193,-6.1193,-6.1193,-6.1193,-6.1193,-6.1494,-6.1791,-6.2116,-6.2498,-6.2789,-6.3079,-6.3079,-6.3079,-6.3079,-6.3079,-6.3252,-6.3538,0.0,0.0,0.0,0.0,0.0,0.0,0.0,0.0,0.0,0.0,0.0,0.0,0.0,0.0,0.0,0.0,0.0,0.0,0.0,0.0,0.0,0.0,0.0,0.0,0.0,0.0,0.0,0.0,0.0,0.0,0.0,-3.8073,-3.8325,-3.863,-3.8549,-3.8463,-3.8405,-3.8405,0.0,0.0,0.0,0.0,0.0,0.0,0.0,0.0,0.0,0.0,0.0,0.0,0.0,-3.9455,-3.9565,-3.9811,-4.0011,-4.0011,0.0,-4.0495,-4.0799,-4.1391,-4.196,-4.2099,-4.2158,-4.2158,-4.2158,-4.2281,-4.2485,-4.2648,-4.3186,0.0,0.0,0.0,0.0,0.0,0.0,0.0,-4.8332,-4.9175,-5.0213,0.0,-5.1984,0.0,-5.3413,-5.4662,-5.5416,0.0,-5.6578,-5.7594,-5.8261,-5.8929,-5.9568,-6.0177,-6.0845,-6.1193,-6.1193,-6.1193,-6.1193,-6.1193,-6.1193,-6.1193,-6.1193,-6.1193,-6.1253,-6.1404,0.0,-6.1998,-6.2351,-6.2673,-6.2905,-6.3079,-6.3079,-6.3079,-6.3079,-6.3079,-6.3194,-6.3367,0.0,0.0,0.0,0.0,0.0,0.0,0.0,0.0,0.0,0.0,0.0,0.0,0.0,0.0,0.0,0.0,0.0,0.0,0.0,0.0,0.0,0.0,0.0,0.0,0.0,0.0,0.0,0.0,0.0,0.0,0.0,0.0,0.0,0.0,0.0,0.0,0.0,0.0,0.0,0.0,0.0,0.0,0.0,0.0,0.0,0.0,0.0,0.0,0.0,0.0,-3.8086,-3.9028,-3.9484,-3.9791,-3.996,-3.998,-4.007,-4.0248,-4.0812,-4.1281,-4.1705,-4.2393,-4.2522,-4.2493,-4.2621,-4.2723,-4.2823,-4.2872,0.0,-4.3754,-4.4288,0.0,-4.5344,-4.6339,0.0,-4.7551,-4.8759,-4.898,-4.9735,-5.1754,-5.1765,-5.2107,-5.3384,-5.4662,-5.5416,-5.5416,-5.6522,-5.7566,-5.8349,-5.8929,-5.9567,-6.0234,-6.0903,-6.1193,-6.1193,-6.1193,-6.1193,-6.1193,-6.1193,-6.1193,-6.1193,-6.1193,-6.1344,-6.1613,-6.191,0.0,-6.2615,-6.2963,-6.3079,-6.3079,-6.3079,-6.3079,-6.3079,-6.3079,-6.3079,-6.3137,0.0,0.0,0.0,0.0,0.0,0.0,0.0,0.0,0.0,0.0,-2.7259,-2.8186,0.0,0.0,0.0,0.0,0.0,0.0,0.0,0.0,0.0,0.0,0.0,0.0,0.0,0.0,0.0,0.0,0.0,0.0,0.0,0.0,0.0,0.0,0.0,0.0,0.0,0.0,0.0,0.0,0.0,0.0,0.0,0.0,0.0,0.0,0.0,0.0,0.0,0.0,-3.7865,-3.8622,-3.8898,-3.9285,-3.963,-3.9899,-4.0179,-4.0315,-4.0285,-4.0562,-4.1028,-4.1705,-4.1597,-4.1486,-4.2207,-4.2102,0.0,0.0,0.0,-4.3358,-4.3442,-4.4425,0.0,-4.6022,0.0,0.0,0.0,0.0,-4.9475,0.0,0.0,0.0,0.0,0.0,0.0,0.0,0.0,-5.7513,-5.8637,-5.881,-5.9387,-6.06,-6.1015,-6.1193,-6.1193,-6.1193,-6.1193,-6.1193,-6.1193,-6.1193,-6.1193,-6.1193,-6.1344,-6.1613,-6.191,0.0,-6.2615,-6.2963,-6.3079,-6.3079,-6.3079,-6.3079,-6.3079,-6.3079,-6.3079,-6.3137,0.0,0.0,0.0,0.0,0.0,0.0,0.0,-2.4789,-2.5849,-2.5874,-2.7281,-2.8246,-2.8246,-2.8631,-2.9011,0.0,0.0,0.0,0.0,0.0,0.0,0.0,0.0,0.0,0.0,0.0,0.0,0.0,0.0,0.0,0.0,0.0,0.0,0.0,0.0,0.0,0.0,0.0,0.0,0.0,0.0,0.0,0.0,0.0,0.0,0.0,0.0,0.0,0.0,0.0,-3.7568,-3.7961,-3.8496,-3.9117,-3.9686,-3.9719,-3.999,-4.0347,-4.0528,-4.071,-4.1025,-4.1654,-4.164,-4.1603,-4.2153,0.0,0.0,0.0,0.0,-4.3272,-4.3605,0.0,0.0,0.0,0.0,0.0,0.0,0.0,0.0,0.0,0.0,0.0,0.0,0.0,0.0,0.0,0.0,-5.7456,-5.8752,-5.9443,-6.0076,-6.0681,-6.1013,-6.1193,-6.1193,-6.1193,-6.1193,-6.1193,-6.1193,-6.1193,-6.1193,-6.1344,-6.1583,-6.185,-6.2234,0.0,-6.2847,-6.3021,-6.3079,-6.3079,-6.3079,-6.3079,-6.3079,-6.3079,-6.3079,-6.3137,0.0,0.0,0.0,0.0,0.0,0.0,0.0,-2.4789,-2.5861,-2.5959,-2.7346,-2.8327,-2.834,-2.8367,-2.8618,0.0,0.0,0.0,0.0,0.0,0.0,0.0,0.0,0.0,0.0,0.0,0.0,0.0,0.0,0.0,0.0,0.0,0.0,0.0,0.0,0.0,0.0,0.0,0.0,0.0,0.0,0.0,0.0,0.0,0.0,0.0,0.0,0.0,0.0,0.0,-3.7156,-3.7446,-3.8057,-3.8811,-3.952,-3.9599,-3.9828,-4.0239,-4.0766,-4.0878,-4.103,-4.1669,-4.173,-4.1742,-4.204,-4.2166,0.0,0.0,0.0,-4.3157,0.0,0.0,0.0,0.0,0.0,0.0,0.0,0.0,0.0,0.0,0.0,0.0,0.0,0.0,0.0,0.0,0.0,0.0,-5.8516,-5.987,-6.056,-6.056,-6.1013,-6.1193,-6.1193,-6.1193,-6.1193,-6.1193,-6.1193,-6.1193,-6.1193,-6.1494,-6.1791,-6.2116,-6.2439,0.0,0.0,-6.3079,-6.3079,-6.3079,-6.3079,-6.3079,-6.3079,-6.3079,-6.3079,-6.3079,0.0,0.0,0.0,0.0,0.0,0.0,0.0,-2.4789,-2.5861,-2.5959,-2.742,-2.8406,-2.8484,-2.8432,-2.8429,0.0,0.0,0.0,0.0,0.0,0.0,0.0,0.0,0.0,0.0,0.0,0.0,0.0,0.0,0.0,0.0,0.0,0.0,0.0,0.0,0.0,0.0,0.0,0.0,0.0,0.0,0.0,0.0,0.0,0.0,0.0,0.0,0.0,0.0,0.0,0.0,-3.7476,-3.7413,-3.7987,-3.8779,-3.9715,0.0,0.0,-4.0413,-4.0562,-4.0716,-4.1392,-4.1225,-4.1086,-4.1705,0.0,0.0,0.0,-4.2217,-4.2658,0.0,0.0,0.0,0.0,0.0,0.0,0.0,0.0,0.0,0.0,0.0,0.0,0.0,0.0,0.0,0.0,0.0,0.0,-5.7891,-5.9387,-6.0255,-6.0255,-6.0892,-6.1193,-6.1193,-6.1193,-6.1193,-6.1193,-6.1193,-6.1193,-6.1193,-6.1494,-6.1791,-6.2116,-6.2439,0.0,0.0,-6.3079,-6.3079,-6.3079,-6.3079,-6.3079,-6.3079,-6.3079,-6.3079,-6.3079,0.0,0.0,0.0,0.0,0.0,0.0,-2.3505,-2.4789,-2.5874,-2.6033,-2.7423,-2.8432,-2.8549,-2.8536,-2.8497,-2.8471,0.0,0.0,0.0,0.0,0.0,0.0,0.0,0.0,0.0,0.0,0.0,0.0,0.0,0.0,0.0,0.0,0.0,0.0,0.0,0.0,0.0,0.0,0.0,0.0,0.0,0.0,0.0,0.0,0.0,0.0,0.0,0.0,0.0,0.0,0.0,0.0,-3.7419,-3.7778,0.0,0.0,-3.9472,-3.9816,-4.0275,-4.0362,-4.0549,-4.1131,-4.1171,-4.1185,-4.1601,0.0,0.0,-4.1883,-4.2106,-4.2391,-4.2704,0.0,0.0,0.0,0.0,0.0,0.0,0.0,0.0,0.0,0.0,0.0,0.0,0.0,0.0,0.0,0.0,0.0,-5.7559,-5.9265,-6.0194,-6.0194,-6.0892,-6.1193,-6.1193,-6.1193,-6.1193,-6.1193,-6.1193,-6.1193,-6.1193,-6.1702,-6.1969,-6.2116,-6.2673,0.0,0.0,-6.3079,-6.3079,-6.3079,-6.3079,-6.3079,-6.3079,-6.3079,-6.3079,-6.3079,0.0,0.0,0.0,0.0,0.0,-2.3577,-2.3826,-2.4968,-2.5945,-2.6332,-2.7566,-2.8432,-2.8562,-2.8587,-2.8574,-2.8536,-2.8536,0.0,0.0,0.0,0.0,0.0,0.0,0.0,0.0,0.0,-3.0712,-3.0508,-3.1182,0.0,0.0,0.0,0.0,0.0,0.0,0.0,0.0,0.0,0.0,0.0,0.0,0.0,0.0,0.0,0.0,0.0,0.0,0.0,0.0,0.0,0.0,0.0,0.0,0.0,0.0,0.0,-3.9203,-3.9623,-4.0072,-4.0229,-4.0291,-4.0665,-4.1015,-4.1304,0.0,0.0,0.0,-4.2174,-4.2174,-4.2366,-4.2872,0.0,0.0,-4.4336,0.0,-4.6871,0.0,0.0,0.0,0.0,0.0,0.0,0.0,0.0,0.0,0.0,0.0,0.0,0.0,-5.9205,-6.0194,-6.0194,-6.0892,-6.1193,-6.1193,-6.1193,-6.1193,-6.1193,-6.1193,-6.1193,-6.1193,-6.1821,-6.2116,-6.2116,-6.2847,0.0,0.0,-6.3079,-6.3079,-6.3079,-6.3079,-6.3079,-6.3079,-6.3079,-6.3079,-6.3079,0.0,0.0,0.0,0.0,0.0,0.0,-2.4587,-2.5337,-2.6111,-2.6997,-2.7851,-2.8419,-2.8497,-2.8562,-2.86,-2.86,-2.86,0.0,0.0,0.0,0.0,0.0,0.0,0.0,0.0,0.0,-2.9957,-2.9811,-3.0474,-3.066,-3.0422,0.0,0.0,0.0,0.0,0.0,0.0,0.0,0.0,0.0,0.0,0.0,0.0,0.0,0.0,0.0,0.0,0.0,0.0,0.0,0.0,0.0,0.0,0.0,0.0,0.0,-3.9298,-3.9344,-3.987,-4.0,-4.0,-4.0,-4.0574,-4.1086,0.0,0.0,0.0,-4.2397,-4.2397,-4.2559,-4.3101,-4.3637,-4.425,-4.5059,0.0,0.0,0.0,0.0,0.0,0.0,0.0,0.0,0.0,0.0,0.0,0.0,0.0,0.0,0.0,-5.9205,-6.0194,-6.0194,-6.0892,-6.1193,-6.1193,-6.1193,-6.1193,-6.1193,-6.1193,-6.1193,-6.1193,-6.1821,-6.2116,0.0,0.0,0.0,0.0,-6.3079,-6.3079,-6.3079,-6.3079,-6.3079,-6.3079,-6.3079,-6.3079,-6.3079,0.0,0.0,0.0,0.0,0.0,0.0,0.0,-2.58,-2.6754,-2.7069,-2.7851,-2.8419,-2.8497,-2.8562,-2.86,-2.86,-2.86,0.0,0.0,0.0,0.0,0.0,0.0,0.0,0.0,0.0,-2.9277,-2.9057,-3.0246,-3.0697,-3.0422,-3.1139,-3.1385,0.0,0.0,0.0,0.0,0.0,0.0,0.0,0.0,0.0,0.0,0.0,0.0,0.0,0.0,0.0,0.0,0.0,0.0,0.0,0.0,0.0,0.0,-3.8157,0.0,0.0,-3.9573,-3.968,-3.9691,-4.0053,-4.0342,-4.0664,-4.1113,0.0,-4.1973,-4.2426,-4.246,-4.2559,-4.3101,-4.3536,-4.411,0.0,0.0,0.0,0.0,0.0,0.0,0.0,0.0,0.0,0.0,0.0,0.0,0.0,0.0,0.0,0.0,-5.9371,-6.0194,-6.0194,-6.0892,-6.1193,-6.1193,-6.1193,-6.1193,-6.1193,-6.1193,-6.1193,-6.1193,-6.1821,-6.2116,0.0,0.0,0.0,0.0,-6.3079,-6.3079,-6.3079,-6.3079,-6.3079,-6.3079,-6.3079,-6.3079,-6.3079,0.0,0.0,0.0,0.0,0.0,0.0,0.0,-2.6371,-2.7111,-2.7459,-2.804,-2.8406,-2.8458,-2.8549,-2.86,-2.86,-2.86,0.0,0.0,0.0,0.0,0.0,0.0,0.0,-2.8081,-2.8471,-2.8573,-2.8312,-2.9756,-3.03,-3.0033,-3.1022,-3.1385,-3.119,-3.119,0.0,0.0,0.0,0.0,0.0,0.0,0.0,-3.1258,0.0,0.0,0.0,0.0,0.0,0.0,0.0,0.0,0.0,0.0,0.0,0.0,0.0,-3.7959,0.0,0.0,-3.9251,-3.9235,-3.9515,-3.9841,0.0,0.0,0.0,-4.1776,-4.2394,-4.2654,-4.2944,-4.3419,-4.3815,0.0,0.0,0.0,0.0,0.0,0.0,0.0,0.0,0.0,0.0,0.0,0.0,0.0,0.0,0.0,0.0,0.0,-5.9607,-6.0255,-6.0377,-6.0952,-6.1193,-6.1193,-6.1193,-6.1193,-6.1193,-6.1193,-6.1193,-6.1193,-6.1821,-6.2116,0.0,0.0,0.0,0.0,-6.3079,-6.3079,-6.3079,-6.3079,-6.3021,-6.2905,-6.2905,-6.2847,-6.2701,0.0,0.0,0.0,0.0,0.0,0.0,0.0,-2.7063,-2.7335,-2.8106,-2.8336,-2.8393,-2.8393,-2.851,-2.86,-2.86,0.0,0.0,0.0,0.0,0.0,0.0,0.0,0.0,-2.8095,-2.8025,-2.7911,-2.7701,-2.9107,-2.9642,-2.9333,-3.0801,-3.1385,-3.119,-3.119,-3.119,0.0,0.0,0.0,0.0,0.0,0.0,0.0,0.0,0.0,0.0,0.0,0.0,0.0,0.0,0.0,0.0,0.0,0.0,0.0,0.0,0.0,0.0,0.0,-3.8783,0.0,0.0,0.0,0.0,0.0,0.0,0.0,-4.23,-4.2912,-4.3489,-4.3888,0.0,0.0,0.0,0.0,0.0,0.0,0.0,0.0,0.0,0.0,0.0,0.0,0.0,0.0,0.0,0.0,0.0,0.0,-5.9696,-6.0377,-6.0681,-6.1013,-6.1193,-6.1193,-6.1193,-6.1193,-6.1193,-6.1193,-6.1193,-6.1193,-6.1821,-6.2116,0.0,0.0,0.0,0.0,-6.3079,-6.3079,-6.3079,-6.3079,-6.2847,-6.2615,-6.2556,-6.2351,-6.2116,0.0,0.0,0.0,0.0,0.0,0.0,0.0,0.0,0.0,0.0,-2.8336,-2.8393,-2.8393,-2.851,-2.86,0.0,0.0,0.0,0.0,0.0,0.0,0.0,0.0,0.0,-2.8186,-2.8053,-2.7911,-2.7701,-2.9107,-2.9609,-2.9263,-3.0782,-3.1385,-3.119,-3.119,-3.119,0.0,0.0,0.0,0.0,0.0,0.0,0.0,0.0,0.0,0.0,-3.2056,-3.2747,0.0,0.0,0.0,0.0,0.0,0.0,0.0,0.0,-3.6738,-3.7507,-3.8157,0.0,-3.8898,-3.8794,-3.8814,-3.9162,0.0,0.0,-4.0945,-4.2171,0.0,0.0,0.0,0.0,0.0,0.0,0.0,0.0,0.0,0.0,0.0,0.0,0.0,0.0,0.0,0.0,0.0,0.0,0.0,0.0,0.0,-5.9924,-6.0377,-6.0681,-6.1013,-6.1193,-6.1193,-6.1193,-6.1193,-6.1193,-6.1193,-6.1193,-6.1193,-6.1821,-6.2116,0.0,0.0,0.0,-6.3079,-6.3079,-6.3079,-6.3079,-6.2789,-6.2673,-6.2556,-6.2292,-6.2175,-6.2116,0.0,0.0,0.0,0.0,0.0,0.0,0.0,0.0,0.0,0.0,0.0,0.0,0.0,0.0,0.0,0.0,0.0,0.0,0.0,0.0,0.0,0.0,0.0,-2.8327,-2.8213,-2.8053,-2.8102,-2.8308,-2.9298,-2.9799,-2.9811,-3.0953,-3.1385,-3.119,-3.119,-3.119,0.0,0.0,0.0,0.0,-3.119,0.0,0.0,0.0,0.0,0.0,-3.165,-3.2476,0.0,-3.3863,-3.4699,-3.5543,0.0,0.0,0.0,0.0,-3.6323,-3.71,-3.7496,-3.8302,-3.8985,-3.8816,-3.8972,-3.9328,-4.0194,0.0,0.0,0.0,0.0,0.0,0.0,0.0,0.0,0.0,0.0,0.0,0.0,0.0,0.0,0.0,0.0,0.0,0.0,0.0,0.0,0.0,0.0,0.0,0.0,-6.0255,-6.056,-6.0952,-6.1133,-6.1193,-6.1193,-6.1193,-6.1193,-6.1193,-6.1193,-6.1193,-6.1193,-6.1821,-6.2116,0.0,0.0,0.0,-6.3079,-6.3079,-6.3021,-6.2847,-6.2673,-6.2439,-6.2116,-6.191,-6.1821,-6.1702,0.0,0.0,0.0,0.0,0.0,0.0,0.0,0.0,0.0,0.0,0.0,0.0,0.0,0.0,0.0,0.0,0.0,0.0,0.0,0.0,0.0,0.0,0.0,-2.8313,-2.82,-2.8053,-2.8314,-2.8956,-2.9508,-3.0006,-3.0516,-3.1177,-3.1385,-3.119,-3.119,-3.119,0.0,0.0,0.0,0.0,-3.119,0.0,0.0,0.0,0.0,0.0,0.0,0.0,0.0,-3.3482,-3.4396,-3.5486,-3.5463,0.0,0.0,0.0,0.0,0.0,-3.6873,-3.7873,-3.8903,-3.8794,-3.921,-3.9726,-4.0144,0.0,0.0,0.0,0.0,0.0,0.0,0.0,0.0,0.0,0.0,0.0,0.0,0.0,0.0,0.0,0.0,0.0,0.0,0.0,0.0,0.0,0.0,0.0,0.0,-6.0499,-6.0892,-6.1193,-6.1193,-6.1193,-6.1193,-6.1193,-6.1193,-6.1193,-6.1193,-6.1193,-6.1193,-6.1761,-6.2057,-6.2057,0.0,0.0,-6.2963,-6.2963,-6.2789,-6.2498,-6.2498,-6.2116,-6.1613,-6.1554,-6.1404,-6.1193,0.0,0.0,0.0,0.0,0.0,0.0,0.0,0.0,0.0,0.0,0.0,0.0,0.0,0.0,0.0,0.0,0.0,0.0,0.0,0.0,0.0,-2.8313,-2.8313,-2.8246,-2.813,-2.8025,-2.8256,-2.8736,-2.9443,-3.0007,-3.0441,-3.1139,-3.1385,-3.119,-3.119,-3.119,-3.119,-3.119,-3.119,-3.119,-3.119,0.0,0.0,0.0,0.0,0.0,0.0,0.0,0.0,-3.3948,-3.469,-3.5314,-3.5198,0.0,0.0,0.0,0.0,0.0,-3.677,-3.7606,-3.8492,-3.8492,-3.8983,-3.9518,-3.9809,0.0,0.0,0.0,0.0,0.0,0.0,0.0,0.0,0.0,0.0,0.0,0.0,0.0,0.0,0.0,0.0,0.0,0.0,0.0,0.0,0.0,0.0,0.0,0.0,-6.0499,-6.0892,-6.1193,-6.1193,-6.1193,-6.1193,-6.1193,-6.1193,-6.1193,-6.1193,-6.1193,-6.1193,-6.1494,-6.1673,-6.1732,0.0,-6.2234,-6.2234,-6.2234,-6.2234,-6.2175,-6.185,-6.1673,-6.1554,-6.1344,-6.1253,-6.1193,0.0,0.0,0.0,0.0,0.0,0.0,0.0,0.0,0.0,0.0,0.0,0.0,0.0,0.0,0.0,0.0,0.0,0.0,0.0,0.0,-2.8327,-2.83,-2.8232,-2.815,-2.8081,-2.8025,-2.8453,-2.9368,-2.9652,-3.0214,-3.1003,-3.1249,-3.1288,-3.119,-3.1131,-3.1092,-3.1092,-3.1052,-3.1032,-3.1032,0.0,0.0,0.0,0.0,0.0,0.0,0.0,0.0,0.0,0.0,-3.4688,-3.5175,-3.5128,0.0,0.0,0.0,0.0,0.0,-3.645,-3.7334,-3.8334,-3.8427,-3.9038,-3.971,-4.0071,0.0,0.0,0.0,0.0,0.0,0.0,0.0,0.0,0.0,0.0,0.0,0.0,0.0,0.0,0.0,0.0,0.0,0.0,0.0,0.0,0.0,0.0,0.0,0.0,0.0,-6.1073,-6.1193,-6.1193,-6.1193,-6.1193,-6.1193,-6.1193,-6.1193,-6.1193,-6.1193,-6.1193,-6.1494,-6.1613,-6.1613,0.0,-6.2116,-6.2116,-6.2116,-6.1969,-6.1791,-6.1673,-6.1494,-6.1344,-6.1253,-6.1193,-6.1193,0.0,0.0,0.0,0.0,0.0,0.0,0.0,0.0,0.0,0.0,0.0,0.0,0.0,0.0,0.0,0.0,0.0,0.0,0.0,0.0,-2.8273,-2.8273,-2.815,-2.8081,-2.8102,-2.7996,-2.8599,-2.9859,-2.981,-3.0387,-3.1515,-3.1288,-3.1171,-3.1151,-3.1052,-3.1012,-3.0992,-3.0932,-3.0892,-3.0925,0.0,0.0,0.0,0.0,0.0,0.0,0.0,0.0,0.0,0.0,0.0,0.0,0.0,0.0,0.0,-3.4767,-3.5517,-3.635,-3.6352,-3.7283,-3.8304,-3.8585,-3.9217,-3.985,-4.0351,-4.1336,0.0,0.0,0.0,0.0,0.0,0.0,0.0,0.0,0.0,0.0,0.0,0.0,0.0,0.0,0.0,0.0,0.0,0.0,0.0,0.0,0.0,0.0,0.0,0.0,-6.1193,-6.1193,-6.1193,-6.1193,-6.1193,-6.1193,-6.1193,-6.1193,-6.1193,-6.1193,-6.1193,-6.1404,-6.1494,-6.1494,-6.1761,-6.188,-6.188,-6.188,-6.1761,-6.1494,-6.1494,-6.1404,-6.1193,-6.1193,-6.1193,-6.1193,0.0,0.0,0.0,0.0,0.0,0.0,0.0,0.0,0.0,0.0,0.0,0.0,0.0,0.0,0.0,0.0,0.0,0.0,0.0,0.0,-2.8213,-2.8213,-2.8158,-2.8053,-2.7996,-2.7946,-2.8509,-2.9793,-2.9793,-3.0387,-3.1515,-3.1288,-3.1131,-3.1032,-3.0978,-3.0972,-3.0912,-3.0892,-3.0892,-3.0959,-3.1662,0.0,0.0,0.0,0.0,0.0,0.0,0.0,0.0,0.0,0.0,0.0,0.0,0.0,-3.4579,-3.4955,-3.5596,-3.6319,-3.6717,-3.765,-3.8586,-3.9031,-3.9346,0.0,-4.0344,-4.1529,0.0,-4.3378,0.0,0.0,0.0,0.0,0.0,0.0,0.0,0.0,0.0,0.0,0.0,0.0,0.0,0.0,0.0,0.0,0.0,0.0,0.0,0.0,0.0,0.0,0.0,-6.1193,-6.1193,-6.1193,-6.1193,-6.1193,-6.1193,-6.1193,-6.1193,-6.1193,-6.1193,-6.1193,-6.1253,-6.1253,-6.1253,-6.1253,-6.1253,-6.1253,-6.1253,-6.1253,-6.1253,-6.1193,-6.1193,-6.1193,-6.1193,-6.1193,0.0,0.0,0.0,0.0,0.0,0.0,0.0,0.0,0.0,0.0,0.0,0.0,0.0,0.0,0.0,0.0,0.0,0.0,0.0,-2.8213,-2.8186,-2.8158,-2.8053,-2.8018,-2.7946,-2.7903,-2.8509,-2.9793,-3.0507,-3.1083,-3.1515,-3.1288,-3.1131,-3.1012,-3.0972,-3.1126,-3.1437,-3.1353,-3.1598,-3.2052,-3.2319,-3.2452,0.0,0.0,0.0,0.0,0.0,0.0,0.0,0.0,-3.4715,-3.457,0.0,-3.4423,-3.4356,-3.4917,-3.5497,-3.6048,-3.6444,-3.7417,-3.8403,-3.868,-3.9256,0.0,0.0,-4.1923,-4.3042,-4.32,-4.4442,0.0,0.0,0.0,0.0,0.0,0.0,0.0,0.0,0.0,0.0,0.0,0.0,0.0,0.0,0.0,0.0,0.0,0.0,0.0,0.0,0.0,-6.1013,-6.1193,-6.1193,-6.1193,-6.1193,-6.1193,-6.1193,-6.1193,-6.1193,-6.1193,-6.1193,-6.1193,-6.1193,-6.1193,-6.1193,-6.1193,-6.1193,-6.1193,-6.1193,-6.1193,-6.1193,-6.1193,-6.1193,-6.1193,-6.1193,-6.1193,0.0,0.0,0.0,0.0,0.0,0.0,0.0,0.0,0.0,0.0,0.0,0.0,0.0,0.0,0.0,0.0,0.0,0.0,-2.8186,-2.8186,-2.8158,-2.8053,-2.7982,-2.7961,-2.7888,-2.8091,-2.8728,-2.9793,-3.0948,-3.1481,-3.1481,-3.1249,-3.1092,-3.0972,-3.1106,-3.1404,-3.1743,-3.189,-3.221,-3.2652,-3.2883,-3.296,0.0,0.0,0.0,0.0,0.0,0.0,0.0,0.0,-3.4546,0.0,0.0,0.0,0.0,-3.509,-3.5609,-3.6126,-3.6787,-3.762,-3.8401,-3.8808,0.0,0.0,-4.1198,-4.2303,-4.3209,-4.326,-4.4938,0.0,0.0,0.0,0.0,0.0,0.0,0.0,0.0,0.0,0.0,0.0,0.0,0.0,0.0,0.0,0.0,0.0,0.0,0.0,0.0,-6.0499,-6.0892,-6.1193,-6.1193,-6.1193,-6.1193,-6.1193,-6.1193,-6.1193,-6.1193,-6.1193,-6.1193,-6.1193,-6.1193,-6.1193,-6.1193,-6.1193,-6.1193,-6.1193,-6.1193,-6.1193,-6.1193,-6.1193,-6.1193,-6.1193,-6.1193,-6.1193,0.0,0.0,0.0,0.0,0.0,0.0,0.0,0.0,0.0,0.0,0.0,0.0,0.0,0.0,0.0,0.0,0.0,0.0,-2.8081,-2.8081,-2.8053,-2.7996,-2.7946,-2.7888,-2.7888,-2.8498,-2.9126,-2.9811,-3.0948,-3.1481,-3.1515,-3.1151,-3.0972,-3.0925,-3.1516,-3.1722,-3.1681,-3.2398,-3.2629,-3.2583,-3.3307,-3.3534,-3.3481,0.0,0.0,0.0,0.0,0.0,0.0,0.0,-3.4399,-3.4275,0.0,0.0,0.0,-3.5509,-3.6014,-3.6663,-3.7868,-3.8338,0.0,0.0,0.0,0.0,-4.2162,-4.2648,-4.3183,-4.3803,0.0,0.0,0.0,0.0,0.0,0.0,0.0,0.0,0.0,0.0,0.0,0.0,0.0,0.0,0.0,0.0,0.0,0.0,0.0,0.0,0.0,-6.0499,-6.0892,-6.1193,-6.1193,-6.1193,-6.1193,-6.1193,-6.1193,-6.1193,-6.1193,-6.1193,-6.1193,-6.1193,-6.1193,-6.1193,-6.1193,-6.1193,-6.1193,-6.1193,-6.1193,-6.1193,-6.1193,-6.1193,-6.1193,-6.1193,-6.1193,-6.1193,0.0,0.0,0.0,0.0,0.0,0.0,0.0,0.0,0.0,0.0,0.0,0.0,0.0,0.0,0.0,0.0,0.0,0.0,-2.8081,-2.8074,-2.8018,-2.7932,-2.7903,-2.783,-2.7677,-2.8752,-2.966,-3.0352,-3.1133,-3.1423,-3.1303,-3.1631,-3.1683,-3.155,-3.2154,-3.2674,-3.3024,-3.3129,-3.3477,-3.3922,-3.4119,-3.4193,-3.4202,0.0,0.0,0.0,0.0,0.0,0.0,0.0,0.0,0.0,0.0,0.0,0.0,-3.5859,-3.6569,-3.7055,-3.7561,-3.8692,0.0,0.0,0.0,0.0,0.0,-4.2898,0.0,0.0,0.0,0.0,0.0,0.0,0.0,0.0,0.0,0.0,0.0,0.0,0.0,0.0,0.0,0.0,0.0,0.0,0.0,0.0,0.0,0.0,0.0,-6.0316,-6.0621,-6.1193,-6.1193,-6.1193,-6.1193,-6.1193,-6.1193,-6.1193,-6.0729,-6.0729,-6.1193,-6.1193,-6.1193,-6.1193,-6.1193,-6.1193,-6.1193,-6.1193,-6.1193,-6.1193,-6.1193,-6.1193,-6.1193,-6.1193,-6.1193,-6.1193,0.0,0.0,0.0,0.0,0.0,0.0,0.0,0.0,0.0,0.0,0.0,0.0,0.0,0.0,0.0,0.0,0.0,0.0,0.0,-2.7989,-2.7932,-2.781,-2.7815,-2.7992,-2.8401,-2.9401,-3.0264,-3.0983,-3.1223,-3.1308,-3.1224,-3.1745,-3.1892,-3.1755,-3.2652,-3.3232,-3.3534,-3.3734,-3.4079,-3.4423,-3.4423,-3.4399,-3.4349,0.0,0.0,0.0,0.0,0.0,0.0,0.0,0.0,0.0,0.0,0.0,0.0,-3.6127,-3.6805,-3.7468,-3.7804,0.0,0.0,0.0,0.0,0.0,0.0,0.0,0.0,0.0,0.0,0.0,0.0,0.0,0.0,0.0,0.0,0.0,0.0,0.0,0.0,0.0,0.0,0.0,0.0,0.0,0.0,0.0,0.0,0.0,0.0,-6.0194,-6.0384,-6.0816,-6.0787,-6.07,-6.0438,-6.0438,-6.0438,-6.0438,-6.0032,-6.0061,-6.0438,-6.0438,-6.0438,-6.0467,-6.0582,-6.0669,-6.0698,-6.1077,-6.1193,-6.1193,-6.1193,-6.1193,-6.1193,-6.1193,-6.1193,-6.1193,0.0,0.0,0.0,0.0,0.0,0.0,0.0,0.0,0.0,0.0,-2.5381,0.0,0.0,0.0,0.0,0.0,0.0,0.0,0.0,0.0,-2.7845,-2.7701,-2.7702,-2.8296,-2.9556,-3.0248,-3.0862,-3.1462,-3.1288,-3.1224,-3.1286,-3.17,-3.1855,-3.1824,-3.31,-3.3609,-3.3499,-3.4153,-3.4374,-3.425,-3.4315,-3.4273,-3.4147,-3.4212,0.0,0.0,0.0,0.0,0.0,0.0,0.0,0.0,0.0,0.0,-3.6382,-3.6362,-3.7031,-3.7898,0.0,0.0,0.0,0.0,0.0,0.0,0.0,0.0,0.0,0.0,0.0,0.0,0.0,0.0,0.0,0.0,0.0,0.0,0.0,0.0,0.0,0.0,0.0,0.0,0.0,0.0,0.0,0.0,0.0,0.0,0.0,-6.0022,-6.004,-6.0148,-6.0119,-5.9858,-5.9306,-5.9306,-5.9306,-5.9306,-5.9248,-5.9219,-5.9219,-5.9277,-5.9306,-5.9364,-5.9741,-5.9885,-5.9943,-6.0758,-6.1137,-6.1166,-6.1077,-6.1106,-6.1224,-6.1193,-6.1193,-6.1193,0.0,0.0,0.0,0.0,0.0,0.0,0.0,0.0,0.0,0.0,0.0,0.0,0.0,0.0,0.0,0.0,0.0,0.0,0.0,0.0,-2.7647,-2.7632,-2.8072,-2.8708,-2.9506,-3.0123,-3.0692,-3.1249,-3.121,-3.1415,-3.1858,-3.2285,-3.2751,-3.3199,-3.3874,-3.4072,-3.3948,-3.4011,-3.3949,-3.3854,-3.4406,-3.4605,-3.4643,-3.5214,-3.5439,0.0,0.0,0.0,0.0,0.0,0.0,0.0,-3.6162,-3.634,-3.6425,-3.7341,-3.7933,-3.8413,0.0,0.0,0.0,0.0,0.0,0.0,0.0,0.0,0.0,0.0,0.0,0.0,0.0,0.0,0.0,0.0,0.0,0.0,0.0,0.0,0.0,0.0,0.0,0.0,0.0,0.0,0.0,0.0,0.0,0.0,-5.8648,-5.8708,-5.8977,-5.951,-5.948,-5.9422,-5.9306,-5.9306,-5.9306,0.0,-5.8784,-5.8523,-5.8523,-5.9074,-5.9452,-5.9801,-5.9859,-5.9888,-5.9888,-5.9771,-6.0267,-6.1087,-6.0089,-6.0292,-6.1172,-6.1166,-6.1193,-6.1193,0.0,0.0,0.0,0.0,0.0,0.0,0.0,0.0,0.0,0.0,0.0,0.0,0.0,0.0,0.0,0.0,0.0,0.0,0.0,0.0,-2.7685,-2.7955,-2.8622,-2.9265,-2.9935,-3.0488,-3.0915,-3.119,-3.1308,-3.1512,-3.1841,-3.2707,-3.3195,-3.3353,-3.4283,-3.4593,-3.4388,-3.4689,-3.4771,-3.475,-3.5075,-3.5235,-3.5267,-3.5651,-3.5778,-3.5778,-3.5778,0.0,0.0,0.0,0.0,0.0,0.0,0.0,-3.7031,-3.7686,-3.833,-3.8923,0.0,0.0,0.0,0.0,0.0,0.0,0.0,0.0,0.0,0.0,0.0,0.0,0.0,0.0,0.0,0.0,0.0,0.0,0.0,0.0,0.0,0.0,0.0,0.0,0.0,0.0,0.0,0.0,0.0,-5.768,-5.8249,-5.8308,-5.8489,-5.8842,-5.8813,-5.8668,-5.8348,-5.8348,-5.8348,-5.8348,-5.8,-5.7826,-5.7826,-5.8174,-5.8464,-5.8637,-5.8668,-5.8668,-5.861,-5.8407,-5.8755,-5.9248,-5.8608,-5.9158,-6.0352,-6.0995,-6.1197,-6.1193,0.0,0.0,0.0,0.0,0.0,0.0,0.0,0.0,0.0,0.0,0.0,0.0,0.0,0.0,0.0,0.0,0.0,0.0,0.0,0.0,0.0,-2.8352,-2.9197,-2.9883,-3.0299,-3.0896,-3.1219,-3.1274,-3.1641,-3.1803,-3.188,-3.2975,-3.3451,-3.3428,-3.4516,-3.4973,-3.4894,-3.5527,-3.5751,-3.5756,-3.5851,-3.5887,-3.5892,-3.6115,-3.6182,-3.6186,-3.631,-3.6289,-3.627,-3.684,0.0,0.0,0.0,0.0,-3.79,-3.7992,-3.8626,-3.9425,0.0,0.0,0.0,0.0,0.0,0.0,0.0,0.0,0.0,0.0,0.0,0.0,0.0,0.0,0.0,0.0,0.0,0.0,0.0,0.0,0.0,0.0,0.0,0.0,0.0,0.0,0.0,0.0,0.0,-5.7341,-5.7935,-5.7994,-5.803,-5.8145,-5.8116,-5.7855,-5.7303,-5.7303,-5.7303,-5.7303,-5.7303,-5.7303,-5.7303,-5.7303,-5.7303,-5.7332,-5.7281,-5.7282,-5.7282,-5.7312,-5.7311,-5.7311,-5.731,-5.7971,-5.9127,-6.0412,-6.1024,-6.1193,0.0,0.0,0.0,0.0,0.0,0.0,0.0,0.0,0.0,0.0,0.0,0.0,0.0,0.0,0.0,0.0,0.0,0.0,0.0,0.0,0.0,-2.8152,-2.9502,-3.0231,-3.0059,-3.0818,-3.1315,-3.1535,-3.2232,-3.2646,0.0,0.0,-3.3704,-3.4826,-3.4759,-3.5021,-3.5486,-3.5582,-3.5562,-3.5482,-3.6115,-3.625,-3.6292,-3.7457,-3.7807,-3.7778,-3.8341,-3.856,-3.856,-3.8654,-3.8654,0.0,0.0,0.0,-3.8704,-3.9159,-3.9531,0.0,0.0,0.0,0.0,0.0,0.0,0.0,0.0,0.0,0.0,0.0,0.0,0.0,0.0,0.0,0.0,0.0,0.0,0.0,0.0,0.0,0.0,0.0,0.0,0.0,0.0,0.0,0.0,0.0,-5.5749,-5.6042,-5.6594,-5.6651,-5.691,-5.7448,-5.7448,-5.739,-5.7303,-5.7303,-5.7303,-5.7303,-5.7303,-5.7303,-5.7303,-5.7303,-5.7303,-5.7303,-5.7305,-5.7305,-5.7305,-5.7306,-5.7306,-5.7279,-5.7311,-5.7427,-5.7711,-5.907,-6.0231,-6.1222,0.0,0.0,0.0,0.0,0.0,0.0,0.0,0.0,0.0,0.0,0.0,0.0,0.0,0.0,0.0,0.0,0.0,0.0,0.0,0.0,0.0,-2.9168,-2.9795,-3.0296,-3.0508,-3.0691,-3.1062,-3.1615,-3.2142,0.0,0.0,-3.3641,-3.4246,0.0,-3.5391,-3.5763,-3.5998,-3.667,-3.6896,-3.6899,-3.7588,-3.7809,-3.7841,-3.8404,-3.8622,-3.8621,-3.8902,-3.8996,-3.8996,-3.8996,-3.8963,-3.8866,-3.8769,0.0,0.0,0.0,-4.0016,0.0,0.0,0.0,0.0,0.0,0.0,0.0,0.0,0.0,0.0,0.0,0.0,0.0,0.0,0.0,0.0,0.0,0.0,0.0,0.0,0.0,0.0,0.0,0.0,0.0,0.0,0.0,0.0,0.0,-5.5671,-5.5961,-5.6394,-5.6595,-5.6851,-5.7303,-5.7303,-5.7303,-5.7303,-5.7303,-5.7303,-5.7303,-5.7303,-5.7303,-5.7303,-5.7303,-5.7303,-5.7303,-5.7303,-5.7303,-5.7303,-5.7303,-5.7303,-5.7332,-5.7279,-5.7282,-5.7542,-5.9597,-6.0734,-6.1169,0.0,0.0,0.0,0.0,0.0,0.0,0.0,0.0,0.0,0.0,0.0,0.0,0.0,0.0,0.0,0.0,0.0,0.0,0.0,0.0,0.0,-2.995,-3.0147,-3.0407,-3.0818,-3.0792,-3.113,-3.1792,0.0,0.0,-3.32,-3.4392,-3.4818,0.0,-3.584,-3.6452,-3.6712,-3.7623,-3.8091,-3.8278,-3.8809,-3.9056,-3.9178,-3.9334,-3.9423,-3.951,-3.9696,-3.9758,-3.9758,-3.9758,-3.9658,-3.9554,-3.9388,-3.9589,0.0,0.0,0.0,0.0,0.0,0.0,0.0,0.0,0.0,0.0,0.0,0.0,0.0,0.0,0.0,0.0,0.0,0.0,0.0,0.0,0.0,0.0,0.0,0.0,0.0,0.0,0.0,0.0,0.0,0.0,0.0,0.0,-5.5335,-5.5623,-5.588,-5.6221,-5.6559,-5.681,-5.6839,-5.6839,-5.6839,-5.6984,-5.7158,-5.7303,-5.7303,-5.7303,-5.7303,-5.7303,-5.7303,-5.7303,-5.7303,-5.7303,-5.7303,-5.7303,-5.7303,-5.7303,-5.7303,-5.7453,-5.7859,-5.9539,-6.0647,-6.1229,0.0,0.0,0.0,0.0,0.0,0.0,0.0,0.0,0.0,0.0,0.0,0.0,-2.7496,-2.8015,-2.8367,-2.8367,-2.8819,0.0,0.0,0.0,0.0,-2.9907,-3.0516,0.0,-3.0729,-3.1248,-3.177,-3.2269,0.0,0.0,-3.3688,-3.4967,-3.5355,-3.5106,-3.5859,-3.6837,-3.7904,0.0,0.0,0.0,-3.8996,-3.9173,-3.9524,-4.017,-4.0607,-4.0861,-4.1535,-4.1778,-4.1778,-4.1778,-4.1711,-4.1741,-4.1741,-4.1741,-4.1765,0.0,0.0,0.0,0.0,0.0,0.0,0.0,0.0,0.0,0.0,0.0,0.0,0.0,0.0,0.0,0.0,0.0,0.0,0.0,0.0,0.0,0.0,0.0,0.0,0.0,0.0,0.0,0.0,0.0,0.0,0.0,-5.4064,-5.4317,-5.4567,-5.4929,-5.5204,-5.5503,-5.5503,-5.5503,-5.5503,-5.6142,-5.6752,-5.7303,-5.7303,-5.7303,-5.7303,-5.7303,-5.7303,-5.7303,-5.7303,-5.7303,-5.7303,-5.7303,-5.7303,-5.7303,-5.7303,-5.7828,-5.8465,-5.777,-5.9096,-6.1184,0.0,0.0,0.0,0.0,0.0,0.0,0.0,0.0,0.0,0.0,0.0,0.0,0.0,-2.8785,-2.8922,-2.8922,-2.9395,0.0,0.0,0.0,0.0,-3.043,-3.1008,-3.1302,-3.1175,-3.1703,-3.2289,0.0,0.0,-3.3365,-3.4372,-3.5195,-3.5616,-3.5654,-3.6841,-3.753,-3.7871,-3.8642,0.0,0.0,0.0,0.0,-4.1071,-4.1315,-4.145,0.0,0.0,0.0,0.0,-4.3031,-4.3152,-4.3152,-4.3037,-4.2697,-4.2417,-4.2707,-4.3199,0.0,0.0,0.0,0.0,0.0,0.0,0.0,0.0,0.0,0.0,0.0,0.0,0.0,0.0,0.0,0.0,0.0,0.0,0.0,0.0,0.0,0.0,0.0,0.0,0.0,0.0,0.0,0.0,0.0,0.0,-5.437,-5.4482,-5.4979,-5.5307,-5.5416,-5.5416,-5.5416,-5.5416,-5.5649,-5.6,-5.6524,-5.7038,-5.7297,-5.7303,-5.7303,-5.7303,-5.7303,-5.7303,-5.7303,-5.7303,-5.7303,-5.7303,-5.7303,-5.7303,-5.7855,-5.861,-5.8522,-5.9358,-6.0485,0.0,0.0,0.0,0.0,0.0,0.0,0.0,0.0,-2.7788,-2.8459,0.0,0.0,0.0,0.0,-2.9646,-3.01,-3.0475,-3.069,-3.0784,-3.1224,-3.1462,-3.1378,-3.167,-3.1792,-3.1703,-3.2243,-3.2769,0.0,0.0,0.0,0.0,-3.5268,-3.5657,-3.5971,-3.7592,-3.8183,0.0,0.0,0.0,-4.0593,0.0,0.0,-4.244,0.0,0.0,0.0,0.0,0.0,0.0,0.0,-4.4148,-4.4108,-4.3988,-4.3648,-4.3339,-4.3696,-4.4072,0.0,0.0,0.0,0.0,0.0,0.0,0.0,0.0,0.0,0.0,0.0,0.0,0.0,0.0,0.0,0.0,0.0,0.0,0.0,0.0,0.0,0.0,0.0,0.0,0.0,0.0,0.0,0.0,0.0,0.0,0.0,-5.4047,-5.4508,-5.4778,-5.4778,-5.4778,-5.4894,-5.5097,-5.5097,-5.5333,-5.5858,-5.6828,-5.7149,-5.7013,-5.7216,-5.7303,-5.7303,-5.7303,-5.7303,-5.7303,-5.7303,-5.7303,-5.7303,-5.7303,-5.7941,-5.8871,-5.9131,-5.956,-5.9982,0.0,0.0,0.0,0.0,0.0,0.0,0.0,0.0,-2.8408,-2.9125,0.0,0.0,0.0,0.0,0.0,-3.193,-3.201,-3.229,-3.2937,-3.2785,-3.2685,-3.2685,-3.2482,-3.2312,-3.2312,-3.2914,-3.3234,-3.3266,-3.3551,0.0,0.0,0.0,-3.5603,-3.6034,-3.8091,-3.8834,-3.8536,0.0,-4.0047,-4.1204,0.0,-4.2077,-4.3596,0.0,0.0,0.0,-4.4748,-4.4693,0.0,-4.4722,0.0,0.0,0.0,-4.4693,-4.4663,-4.4663,-4.4663,-4.4726,0.0,0.0,0.0,0.0,0.0,0.0,0.0,0.0,0.0,0.0,0.0,0.0,0.0,0.0,0.0,0.0,0.0,0.0,0.0,0.0,0.0,0.0,0.0,0.0,0.0,0.0,0.0,0.0,-5.2519,-5.2841,-5.3054,-5.3372,-5.35,-5.35,-5.35,-5.382,-5.4487,-5.4487,-5.4778,-5.5387,-5.6566,-5.6887,-5.6432,-5.7013,-5.7274,-5.7303,-5.7303,-5.7303,-5.7247,-5.7303,-5.7303,-5.7303,-5.7303,-5.8116,-5.9219,-5.9188,-5.9465,-5.981,0.0,0.0,0.0,0.0,0.0,-2.8032,-2.8801,-2.8903,-2.9124,0.0,0.0,0.0,-3.1187,-3.1778,-3.2235,-3.2486,-3.2519,-3.2497,-3.2506,-3.2449,-3.2426,-3.2426,-3.2756,-3.2947,-3.2947,-3.3543,-3.4068,-3.4491,-3.4444,-3.4962,-3.6063,-3.6115,-3.658,0.0,-3.8528,-3.9082,-3.9275,-4.0239,0.0,0.0,-4.2591,-4.3277,0.0,0.0,0.0,0.0,0.0,-4.6344,-4.6771,0.0,-4.7435,-4.7346,0.0,-4.6388,-4.6049,-4.6049,-4.6049,-4.6153,-4.6533,0.0,0.0,0.0,0.0,0.0,0.0,0.0,0.0,0.0,0.0,0.0,0.0,0.0,0.0,0.0,0.0,0.0,0.0,0.0,0.0,0.0,0.0,0.0,0.0,0.0,0.0,0.0,-5.2841,-5.3001,-5.3107,-5.3372,-5.35,-5.35,-5.35,-5.3617,-5.3791,-5.3791,-5.3888,-5.405,-5.4364,-5.5137,-5.6177,-5.6493,-5.6785,-5.6993,-5.6993,-5.6851,-5.668,-5.7134,-5.7303,-5.7303,-5.7303,-5.7655,-5.8205,-5.8489,-5.8791,-5.9111,0.0,0.0,0.0,0.0,0.0,-2.857,-2.9299,-2.9401,-2.9751,0.0,0.0,0.0,-3.2217,-3.2862,-3.3315,-3.3429,-3.3736,-3.3961,-3.4104,-3.4031,-3.4015,-3.4015,-3.434,-3.4493,-3.4493,-3.4755,-3.5045,-3.5417,-3.5171,-3.5609,-3.6578,-3.6466,-3.6957,-3.8029,0.0,0.0,0.0,0.0,0.0,0.0,-4.3064,0.0,0.0,-4.5361,-4.5916,0.0,0.0,0.0,-4.7704,-4.8085,-4.8202,0.0,0.0,0.0,0.0,0.0,-4.7089,-4.7177,-4.7374,-4.7882,-4.8388,0.0,0.0,0.0,0.0,-5.0481,0.0,0.0,0.0,0.0,0.0,0.0,0.0,0.0,0.0,0.0,0.0,0.0,0.0,0.0,0.0,0.0,0.0,0.0,-5.2573,-5.2841,-5.3001,-5.316,-5.3266,-5.3424,-5.35,-5.35,-5.35,-5.35,-5.35,-5.35,-5.3511,-5.3526,-5.3481,-5.414,-5.5314,-5.5921,-5.6272,-5.6336,-5.6594,-5.6595,-5.6394,-5.6794,-5.7021,-5.7134,-5.7247,-5.7539,-5.783,-5.8198,-5.8497,-5.8819,0.0,0.0,-2.7654,-2.7721,-2.8289,-2.8992,-2.9847,-2.9948,-3.0483,0.0,-3.2181,-3.2495,-3.3082,-3.3604,-3.4143,-3.4644,-3.5371,-3.6032,-3.6587,-3.6592,-3.6512,-3.6448,-3.64,-3.6314,-3.6249,-3.6082,-3.6001,-3.6071,-3.5824,-3.6035,-3.6705,-3.6656,-3.7145,-3.8122,0.0,0.0,0.0,0.0,0.0,-4.2213,-4.3217,-4.4255,0.0,0.0,-4.699,-4.742,-4.7876,-4.8043,-4.8101,-4.8188,-4.8217,0.0,0.0,0.0,0.0,0.0,-4.7898,-4.7898,-4.7898,-4.8333,-4.8827,-4.8827,0.0,0.0,-4.9717,-5.029,-5.093,0.0,0.0,0.0,0.0,0.0,0.0,0.0,0.0,0.0,0.0,0.0,0.0,0.0,0.0,0.0,0.0,-5.2534,-5.264,-5.2905,-5.2905,-5.3093,-5.3413,-5.3413,-5.3442,-5.35,-5.35,-5.35,-5.35,-5.35,-5.35,-5.353,-5.3473,-5.3683,-5.4169,-5.5154,-5.5562,-5.5452,-5.5994,-5.628,-5.6279,-5.6337,-5.6537,-5.688,-5.7078,-5.7368,-5.7628,-5.811,-5.838,-5.8673,0.0,-2.8289,-2.859,-2.9178,-2.9412,-2.9948,-3.134,-3.1541,-3.1813,-3.2464,-3.341,-3.4487,-3.5694,-3.5931,-3.5992,-3.5896,-3.6551,-3.6896,-3.6777,-3.7295,-3.7331,-3.6754,-3.6726,-3.6469,-3.592,-3.586,-3.6066,-3.6501,-3.6444,-3.6708,-3.735,-3.7676,-3.8215,-3.8808,0.0,0.0,0.0,0.0,0.0,-4.3576,-4.4539,0.0,-4.6329,-4.7081,-4.7763,-4.8497,-4.9136,-4.9688,-5.0191,-5.0685,-5.0859,-5.0772,0.0,0.0,0.0,-4.8682,0.0,0.0,0.0,0.0,0.0,0.0,0.0,0.0,-5.0038,-5.0681,-5.1297,0.0,0.0,0.0,0.0,0.0,0.0,0.0,0.0,0.0,0.0,0.0,0.0,0.0,0.0,0.0,0.0,-5.15,-5.1632,-5.1889,-5.1889,-5.2172,-5.2717,-5.2746,-5.2978,-5.35,-5.35,-5.35,-5.35,-5.35,-5.35,-5.35,-5.3242,-5.3481,-5.4086,-5.407,-5.4398,-5.5112,-5.5254,-5.5422,-5.5671,-5.5961,-5.625,-5.6509,-5.6566,-5.648,-5.6476,-5.7525,-5.7796,-5.7837,-2.8491,-2.8791,-2.9123,-2.949,-3.0155,-3.09,-3.1589,-3.2021,-3.2586,-3.3472,-3.4939,-3.6163,-3.6879,-3.7426,-3.7681,-3.7572,-3.8248,-3.8579,-3.8432,-3.8752,-3.8784,-3.8403,-3.8403,-3.8211,-3.7889,-3.7831,-3.7934,-3.8195,-3.8074,-3.8204,-3.8491,-3.8654,-3.903,-3.9525,-4.0075,0.0,0.0,0.0,-4.3607,-4.482,-4.5518,0.0,-4.6727,-4.8024,-4.8788,-4.9291,-4.993,-5.0598,-5.1207,-5.1527,-5.1614,0.0,0.0,-5.0917,-5.0569,0.0,-5.0162,-5.0162,0.0,0.0,0.0,-5.0656,0.0,0.0,0.0,-5.1248,-5.1532,0.0,0.0,0.0,0.0,0.0,0.0,0.0,0.0,0.0,0.0,0.0,0.0,0.0,0.0,0.0,0.0,-5.1816,-5.1816,-5.1816,-5.1664,-5.1759,-5.2078,-5.2397,-5.2717,-5.3036,-5.3355,-5.35,-5.35,-5.35,-5.35,-5.35,-5.3184,-5.3144,-5.3382,-5.3371,-5.375,-5.4346,-5.4657,-5.5107,-5.5496,-5.5671,-5.5845,-5.5961,-5.6279,-5.625,-5.6103,-5.7038,-5.7397,-5.7519,-2.8873,-2.9251,-2.9661,-2.9773,-3.0778,-3.1594,-3.178,-3.2406,-3.3444,-3.5044,-3.6512,-3.7584,-3.7971,-3.8803,-3.9329,-3.9428,-4.0067,-4.045,-4.0388,-4.0515,-4.0578,-4.0482,-4.045,-4.0387,-4.0322,-4.007,-3.9944,-3.9944,-3.9629,-3.944,-3.944,-3.9439,-3.9654,0.0,0.0,0.0,0.0,0.0,0.0,-4.6015,0.0,-4.6797,-4.7169,-4.8968,-4.9725,-5.0037,-5.0793,-5.1439,-5.1991,-5.1991,-5.1991,-5.1962,-5.1846,-5.1788,0.0,0.0,0.0,0.0,0.0,0.0,0.0,0.0,0.0,-5.1988,0.0,0.0,0.0,0.0,0.0,0.0,0.0,0.0,0.0,0.0,0.0,0.0,0.0,0.0,0.0,0.0,0.0,0.0,0.0,-5.1798,-5.1758,-5.1531,-5.1379,-5.1345,-5.1461,-5.1984,-5.2304,-5.2368,-5.3007,-5.3326,-5.3245,-5.3442,-5.35,-5.35,-5.3131,-5.2865,-5.2709,-5.2842,-5.3133,-5.3529,-5.4147,-5.4765,-5.5327,-5.544,-5.5496,-5.5554,-5.6077,-5.6077,-5.5988,-5.6552,-5.6999,-5.7294,-3.0468,-3.0323,-3.0546,-3.1067,-3.1309,-3.1813,-3.298,-3.38,-3.5117,-3.7561,-3.7862,-3.8555,-4.0382,-4.067,-4.0928,-4.1242,-4.1904,-4.2181,-4.1875,-4.2438,-4.257,-4.2145,-4.2113,-4.1897,-4.1433,-4.0831,-4.0514,-4.0514,-3.9692,-3.9345,-3.9314,-3.9617,-4.0104,0.0,-4.126,0.0,0.0,0.0,-4.5253,0.0,-4.7875,-4.8134,0.0,-4.9775,-5.0427,-5.0714,-5.1984,-5.2746,-5.3297,0.0,-5.3297,-5.321,0.0,-5.2507,-5.2339,-5.1788,0.0,0.0,0.0,0.0,0.0,0.0,-5.1816,0.0,0.0,0.0,0.0,0.0,0.0,0.0,0.0,0.0,0.0,0.0,0.0,0.0,0.0,0.0,0.0,0.0,0.0,0.0,0.0,-4.9498,-4.9823,-4.9775,-5.0066,-5.0506,-5.1011,-5.0979,-5.1149,-5.1701,-5.2339,-5.2601,-5.233,-5.31,-5.35,-5.35,-5.3001,-5.2734,-5.268,-5.2198,-5.2291,-5.2854,-5.3501,-5.4119,-5.4737,-5.5271,-5.5496,-5.5496,-5.5554,-5.5554,-5.5639,-5.6257,-5.6451,-5.6704,-3.177,-3.1594,-3.1627,-3.1878,-3.2282,-3.2882,-3.3787,-3.5435,-3.6933,-3.793,-3.9328,-4.0515,-4.1277,0.0,0.0,0.0,0.0,-4.4002,0.0,0.0,-4.4174,-4.3966,-4.3591,-4.3286,-4.3075,-4.2385,-4.204,-4.204,-4.169,-4.15,-4.1531,-4.1538,-4.1678,0.0,-4.2381,0.0,-4.4096,0.0,0.0,0.0,0.0,0.0,0.0,-5.0648,-5.1306,-5.1955,-5.2775,-5.3297,-5.35,0.0,-5.35,0.0,0.0,0.0,0.0,0.0,0.0,0.0,0.0,0.0,0.0,0.0,0.0,0.0,-5.3253,0.0,-5.3337,0.0,0.0,0.0,0.0,0.0,0.0,0.0,0.0,0.0,0.0,0.0,0.0,0.0,0.0,0.0,0.0,0.0,0.0,0.0,-4.9528,-4.9791,-4.9863,-5.0495,-5.095,-5.1062,-5.2049,-5.2733,-5.2982,-5.3321,-5.3314,-5.3045,-5.2812,-5.2627,-5.2411,-5.2004,-5.2124,-5.2742,-5.3388,-5.4007,-5.4625,-5.5243,-5.5613,-5.5729,-5.5554,-5.5496,-5.5524,-5.5777,-5.6114,-5.6507,-3.3561,0.0,0.0,0.0,-3.3279,-3.4023,-3.5182,-3.6989,-3.843,-3.8856,-4.0896,0.0,-4.2556,-4.3957,0.0,0.0,-4.5497,-4.5832,0.0,0.0,-4.5825,-4.5901,-4.5248,-4.4911,-4.4949,-4.4263,-4.392,-4.392,-4.351,-4.3287,-4.3287,-4.2922,-4.2901,-4.3198,0.0,-4.396,-4.4719,0.0,0.0,-4.7967,-4.9194,-5.027,-5.115,-5.1571,-5.2201,-5.292,-5.3559,-5.3791,-5.382,-5.3994,-5.4023,0.0,-5.4023,0.0,0.0,0.0,0.0,0.0,-5.3791,0.0,0.0,0.0,0.0,0.0,0.0,0.0,0.0,0.0,0.0,0.0,0.0,0.0,-5.1229,-5.1229,0.0,-5.0136,0.0,0.0,0.0,0.0,0.0,0.0,0.0,0.0,0.0,-4.8745,-4.911,-4.9233,-4.8952,-4.9911,-5.0379,-5.0133,-5.1381,-5.2355,-5.2968,-5.3169,-5.314,-5.291,-5.2783,-5.2573,-5.2329,-5.195,-5.204,-5.2489,-5.3332,-5.3979,-5.4486,-5.5303,-5.5787,-5.6077,-5.5729,-5.5613,-5.5613,-5.5496,-5.5777,-5.6198,-3.6293,-3.4113,0.0,0.0,0.0,0.0,0.0,0.0,0.0,0.0,0.0,0.0,0.0,0.0,0.0,0.0,0.0,-4.7738,-4.7536,0.0,-4.7617,0.0,0.0,-4.6874,0.0,-4.6445,-4.6102,-4.6102,-4.4545,-4.3784,-4.3753,-4.2952,-4.3199,-4.4266,0.0,-4.509,-4.6557,-4.7219,-4.8216,-4.9314,-5.0351,-5.1611,-5.2815,0.0,-5.2972,-5.3559,-5.4226,0.0,0.0,-5.5155,-5.5358,0.0,0.0,0.0,0.0,0.0,0.0,0.0,0.0,0.0,0.0,-5.35,0.0,0.0,0.0,0.0,-5.3869,0.0,0.0,0.0,0.0,-5.1648,-5.1229,-5.1229,-5.0614,0.0,0.0,0.0,0.0,0.0,0.0,0.0,0.0,0.0,0.0,-4.8327,-4.87,-4.8814,-4.8555,-4.8922,-4.9037,-4.8798,-5.0046,-5.1033,-5.1672,-5.2281,-5.2891,-5.3448,-5.2947,-5.268,-5.268,-5.2059,-5.1787,-5.1899,-5.3135,-5.3839,-5.4205,-5.5451,-5.6135,-5.6337,-5.6077,-5.599,-5.5932,-5.5613,-5.5524,-5.5608,0.0,0.0,0.0,0.0,0.0,0.0,0.0,-4.0007,0.0,0.0,0.0,0.0,0.0,-4.7339,-4.8109,0.0,0.0,-4.9408,-4.9151,-4.9108,0.0,0.0,0.0,-4.8593,0.0,-4.7729,-4.7141,-4.7141,-4.6136,-4.5557,-4.544,-4.5147,-4.5144,-4.5333,0.0,-4.5938,0.0,0.0,0.0,0.0,0.0,-5.2317,-5.2931,0.0,0.0,-5.4197,-5.4429,-5.4778,0.0,-5.5329,-5.5416,-5.5416,-5.5416,-5.5416,-5.5416,-5.5416,-5.5271,-5.5097,0.0,0.0,-5.4662,-5.4284,0.0,0.0,0.0,0.0,0.0,0.0,0.0,0.0,0.0,-5.2018,-5.15,-5.1242,-5.0301,-4.9523,0.0,0.0,0.0,0.0,0.0,0.0,0.0,0.0,0.0,-4.7638,-4.8148,-4.8313,-4.7877,-4.8816,-4.9168,-4.8711,-4.9988,-5.0556,-5.0327,-5.1853,-5.2885,-5.3489,-5.3131,-5.2841,-5.268,-5.2519,-5.261,-5.3065,-5.3834,-5.4542,-5.511,-5.5908,-5.648,-5.6709,-5.6423,-5.625,-5.6193,-5.5671,-5.5496,-5.558,-3.752,0.0,0.0,0.0,0.0,0.0,0.0,0.0,0.0,0.0,-4.5441,0.0,-4.745,0.0,-4.9578,0.0,-5.0567,-5.0891,-5.0955,-5.0955,0.0,-5.1225,-5.0327,0.0,0.0,0.0,0.0,-4.8446,-4.761,-4.7068,-4.6864,-4.6377,-4.6123,-4.6161,0.0,0.0,0.0,0.0,-4.9224,0.0,0.0,-5.3149,0.0,0.0,-5.3791,-5.4575,0.0,-5.5445,-5.5794,-5.5997,-5.6084,-5.6084,-5.6084,-5.6084,-5.6084,-5.6084,-5.5939,-5.5765,-5.5765,-5.5591,0.0,-5.4923,-5.4662,0.0,-5.3965,0.0,-5.3815,0.0,0.0,0.0,0.0,-5.218,-5.1672,-5.113,-5.0076,-4.9149,0.0,-4.7848,0.0,0.0,0.0,0.0,0.0,0.0,-4.6681,-4.695,-4.7339,-4.7479,0.0,0.0,-4.8676,-4.8391,-4.9436,-4.9869,-4.9688,-5.1374,-5.2675,-5.35,-5.3232,-5.3001,-5.2841,-5.2734,-5.3023,-5.3652,-5.4225,-5.4964,-5.5706,-5.6337,-5.6737,-5.6993,-5.6709,-5.6595,-5.6509,-5.5903,-5.5613,-5.5552,0.0,0.0,0.0,0.0,-3.9623,0.0,0.0,0.0,-4.4596,0.0,-4.7314,-4.8872,-4.8789,-4.9745,-5.0642,-5.133,-5.179,-5.2259,-5.2896,-5.2926,0.0,0.0,-5.1713,-5.1046,-5.1046,0.0,0.0,0.0,0.0,0.0,-4.794,-4.6667,-4.6301,-4.6768,-4.74,0.0,-4.8476,-4.9687,-5.0674,-5.1434,-5.2881,-5.4031,-5.4861,-5.4682,-5.4604,-5.4778,-5.5968,-5.6432,-5.6549,-5.71,-5.7303,-5.7303,-5.7303,-5.7303,-5.7303,-5.7303,-5.6897,-5.6461,-5.6461,-5.5997,-5.5503,-5.5474,-5.5039,0.0,0.0,0.0,-5.3611,0.0,0.0,0.0,0.0,-5.2063,-5.1576,-5.0894,-4.9908,-4.8805,-4.7549,-4.7339,-4.7309,0.0,0.0,0.0,0.0,-4.5693,-4.5574,-4.619,-4.6249,0.0,0.0,0.0,-4.7574,-4.78,-4.8391,-4.903,-4.968,-5.0969,-5.226,-5.3532,-5.3227,-5.3136,-5.3107,-5.2841,-5.3077,-5.3735,-5.428,-5.5131,-5.61,-5.6677,-5.7107,-5.7247,-5.705,-5.6936,-5.6823,-5.6193,-5.5787,-5.5496,-4.1501,-4.1624,-4.1836,0.0,-4.1551,-4.1927,0.0,0.0,0.0,0.0,-4.8337,-4.9362,-5.1172,-5.1603,-5.2124,-5.2937,-5.3084,0.0,0.0,0.0,0.0,-5.3416,-5.3114,-5.295,-5.3108,-5.2048,0.0,-5.138,0.0,0.0,-4.9189,-4.8826,-4.8635,-4.8595,0.0,0.0,-4.9747,-5.0554,-5.1775,-5.3208,-5.3816,-5.4391,0.0,0.0,-5.591,-5.5968,-5.6287,-5.6694,-5.71,-5.7245,-5.7303,-5.7303,-5.7303,-5.7303,-5.7303,-5.7303,-5.7187,-5.7071,-5.7071,-5.6955,-5.6723,-5.6258,-5.6026,-5.5678,0.0,0.0,0.0,0.0,0.0,0.0,0.0,0.0,-5.165,-5.0725,-4.966,-4.876,-4.8147,0.0,0.0,-4.7309,0.0,0.0,0.0,-4.5693,-4.5364,-4.5544,-4.6022,0.0,0.0,0.0,0.0,-4.78,-4.8391,-4.9011,-4.9687,-5.0954,-5.2275,-5.3494,-5.3425,-5.3424,-5.3424,-5.3319,-5.3897,-5.4967,-5.5111,-5.5861,-5.6959,-5.7133,-5.7247,-5.7303,-5.7247,-5.7107,-5.6823,-5.6193,-5.5787,-5.5496,-4.2498,0.0,0.0,-4.4439,0.0,0.0,-4.5485,0.0,0.0,-4.8584,-4.9693,0.0,-5.2184,-5.2719,-5.3324,-5.4002,-5.3946,0.0,-5.4042,0.0,0.0,-5.4269,-5.3999,-5.3946,-5.4014,-5.3131,0.0,-5.2493,0.0,0.0,-5.0275,-4.9749,0.0,0.0,0.0,-5.0062,0.0,-5.2007,-5.3077,-5.4032,-5.4649,0.0,0.0,-5.63,-5.6689,-5.681,-5.681,-5.7013,-5.7303,-5.7303,-5.7303,-5.7303,-5.7303,-5.7303,-5.7303,-5.7303,-5.7303,-5.7303,-5.7303,-5.7303,-5.7216,-5.6897,-5.6607,-5.6229,-5.5503,-5.4923,-5.44,0.0,-5.3704,-5.3262,0.0,0.0,-5.159,-5.0276,-4.9297,-4.8547,-4.8001,0.0,0.0,0.0,-4.641,0.0,0.0,-4.515,-4.4844,-4.4762,0.0,0.0,0.0,0.0,0.0,-4.7346,-4.7985,-4.8759,-4.9688,-5.0676,-5.1787,-5.293,-5.3069,-5.3239,-5.353,-5.382,-5.4487,-5.5416,-5.5707,-5.6403,-5.7303,-5.7303,-5.7303,-5.7303,-5.7303,-5.7134,-5.688,-5.6537,-5.6193,-5.5903,0.0,0.0,0.0,0.0,0.0,0.0,0.0,-4.7985,0.0,-4.9127,0.0,-5.2686,-5.2658,-5.3493,-5.4304,-5.4797,0.0,-5.473,-5.5388,-5.5448,-5.5448,-5.5448,-5.482,-5.4461,-5.4461,-5.3939,-5.3567,0.0,-5.2304,-5.1703,-5.1439,-5.0212,0.0,0.0,0.0,0.0,0.0,-5.3473,-5.4311,0.0,-5.547,-5.61,-5.6515,-5.6891,-5.7173,-5.7416,-5.736,-5.736,-5.7303,-5.7303,-5.7303,-5.7303,-5.7303,-5.7303,-5.7303,-5.7303,-5.7303,-5.7303,-5.7303,-5.7303,-5.7303,-5.7303,-5.6926,-5.652,-5.6432,-5.5474,-5.4604,-5.4517,-5.3994,-5.3326,-5.2688,0.0,-5.1335,-4.9816,-4.9039,-4.8391,0.0,0.0,0.0,0.0,0.0,0.0,0.0,0.0,0.0,0.0,0.0,0.0,0.0,0.0,0.0,-4.6824,-4.7433,-4.8417,-4.9695,-5.0339,-5.1191,-5.2216,-5.2471,-5.2891,-5.353,-5.4197,-5.4836,-5.5445,-5.6113,-5.6752,-5.7303,-5.7303,-5.7303,-5.7303,-5.7303,-5.7134,-5.6936,-5.6936,-5.6766,-5.6509,0.0,0.0,0.0,0.0,0.0,-4.883,-5.0432,-5.0032,-5.0124,-5.1775,-5.2421,-5.3162,-5.4314,-5.4613,-5.5054,-5.587,-5.5888,0.0,0.0,0.0,0.0,-5.6765,-5.6166,-5.5837,-5.5837,-5.469,-5.4091,0.0,-5.3283,-5.2893,-5.2815,-5.2037,0.0,0.0,0.0,0.0,-5.3713,-5.4072,0.0,-5.5897,-5.6363,-5.6888,-5.7487,-5.7812,-5.7996,-5.8029,-5.7781,-5.7528,-5.7303,-5.7303,-5.7303,-5.7303,-5.7303,-5.7303,-5.7303,-5.7303,-5.7303,-5.7303,-5.7303,-5.7303,-5.7303,-5.7303,-5.7216,-5.7013,-5.652,-5.5823,-5.5097,-5.4604,-5.3994,-5.3326,-5.2688,0.0,-5.0688,-5.0105,-4.9432,-4.8834,0.0,0.0,0.0,0.0,0.0,-4.6167,0.0,0.0,0.0,0.0,0.0,0.0,0.0,0.0,0.0,0.0,-4.7433,0.0,0.0,0.0,-5.1191,-5.2216,-5.2471,-5.2891,-5.353,-5.4197,-5.4836,-5.5445,-5.6113,-5.6752,-5.7303,-5.7303,-5.7303,-5.7303,-5.7303,-5.7247,-5.7247,-5.7247,-5.7191,-5.7078,0.0,0.0,0.0,0.0,0.0,0.0,0.0,-5.2267,0.0,-5.316,-5.3837,-5.462,-5.5554,-5.5963,-5.6453,-5.71,-5.7139,-5.7209,-5.7355,-5.7385,-5.7385,-5.7385,-5.7084,0.0,-5.7139,-5.6174,-5.5661,-5.5661,-5.4635,-5.4055,-5.3879,-5.3218,0.0,0.0,0.0,-5.3593,0.0,0.0,0.0,-5.6256,-5.7116,-5.7523,-5.7773,-5.8263,-5.8335,-5.8195,-5.8029,-5.7918,-5.7696,-5.7416,-5.7303,-5.7303,-5.7303,-5.7303,-5.7303,-5.7303,-5.7303,-5.7303,-5.7303,-5.7303,-5.7303,-5.7303,-5.7303,-5.7216,-5.6926,-5.6374,-5.5736,-5.5097,-5.4458,-5.3733,-5.2798,-5.1788,0.0,0.0,0.0,0.0,0.0,0.0,0.0,0.0,0.0,0.0,0.0,0.0,0.0,0.0,0.0,0.0,0.0,0.0,0.0,0.0,0.0,0.0,-4.8698,0.0,-5.0763,-5.1889,-5.226,-5.2843,-5.3739,-5.4759,-5.5479,-5.5908,-5.6903,-5.7488,-5.7751,-5.7584,-5.7557,-5.7528,-5.736,-5.7303,-5.7303,-5.7303,-5.7303,-5.7247,0.0,-5.002,0.0,0.0,-5.2113,0.0,-5.3314,-5.4237,-5.473,-5.4206,-5.5191,-5.6081,-5.6543,-5.7217,-5.7739,-5.8185,-5.8216,-5.8204,-5.8118,-5.8096,-5.8096,-5.8096,-5.7945,-5.7989,-5.8246,-5.7578,-5.7152,0.0,-5.5918,-5.5243,-5.4896,-5.4231,-5.3803,0.0,0.0,0.0,0.0,0.0,-5.6569,-5.6779,-5.7723,-5.8041,-5.8089,-5.8595,-5.8609,-5.836,-5.8335,-5.8335,-5.8225,-5.7696,-5.7472,-5.7472,-5.7472,-5.7472,-5.7416,-5.7416,-5.736,-5.7303,-5.7303,-5.7303,-5.7303,-5.736,-5.7416,-5.7416,-5.7472,-5.7006,-5.6395,-5.5671,-5.489,-5.3936,-5.2775,-5.2165,0.0,0.0,0.0,0.0,0.0,0.0,0.0,0.0,0.0,0.0,-4.5169,0.0,0.0,0.0,0.0,0.0,0.0,0.0,0.0,0.0,0.0,-4.7782,-4.7782,0.0,-5.0365,-5.1664,-5.2129,-5.2902,-5.4052,-5.5371,-5.6065,-5.6338,-5.7635,-5.8195,-5.8195,-5.8003,-5.7892,-5.7892,-5.7584,-5.7472,-5.7472,-5.7472,-5.7472,-5.7472,0.0,0.0,0.0,0.0,0.0,0.0,-5.5222,-5.553,-5.5592,-5.553,-5.6176,-5.6867,-5.7247,-5.792,-5.8441,-5.8854,-5.8915,-5.9136,-5.972,-5.9781,-5.9781,-5.9781,-5.9197,-5.8863,-5.8915,-5.8276,-5.7638,0.0,0.0,-5.6464,-5.5857,-5.5189,-5.4837,0.0,0.0,0.0,0.0,-5.7251,-5.7842,-5.8362,-5.8188,-5.8417,-5.8955,-5.9015,-5.9045,-5.8991,-5.8719,-5.8609,-5.8609,-5.828,-5.814,-5.814,-5.814,-5.7948,-5.7725,-5.7725,-5.7528,-5.7303,-5.7303,-5.7303,-5.736,-5.7669,-5.7725,-5.7836,-5.8029,-5.7669,-5.6942,-5.605,-5.4672,-5.3384,-5.2688,-5.2565,-5.2078,0.0,0.0,0.0,0.0,0.0,0.0,0.0,0.0,0.0,0.0,-4.5808,0.0,0.0,0.0,0.0,0.0,0.0,0.0,-4.5895,-4.7114,-4.7782,-4.7782,-4.9049,-5.0423,-5.1967,-5.2477,-5.3275,-5.4311,-5.5636,-5.6279,-5.6338,-5.7635,-5.8195,-5.8195,-5.814,-5.814,-5.814,-5.814,-5.814,-5.814,-5.814,-5.814,-5.814,0.0,0.0,0.0,0.0,0.0,0.0,0.0,-5.6669,-5.71,-5.75,-5.7487,-5.7777,-5.8754,-5.9072,-5.9451,-6.0022,-6.0083,-6.0154,-6.0219,-6.025,-6.025,-6.025,-5.9975,-5.9927,-6.0083,-5.941,-5.895,0.0,0.0,0.0,0.0,-5.714,-5.6968,0.0,0.0,-5.7365,-5.7669,-5.8183,-5.8585,-5.8858,-5.8934,-5.9075,-5.9315,-5.9153,-5.9099,-5.9099,-5.8991,-5.8936,-5.8936,-5.8773,-5.85,-5.8195,-5.8195,-5.814,-5.8059,-5.8059,-5.7918,-5.7863,-5.7863,-5.7863,-5.7863,-5.7974,-5.8059,-5.8029,-5.8195,-5.8018,-5.761,-5.6853,-5.5464,-5.4142,-5.35,-5.2959,-5.2281,-5.1381,0.0,0.0,0.0,0.0,0.0,0.0,0.0,0.0,0.0,0.0,0.0,0.0,0.0,0.0,0.0,0.0,0.0,-4.6446,0.0,-4.805,-4.857,-4.9301,-5.0551,-5.2267,-5.3592,-5.4345,-5.4649,-5.5952,-5.7066,-5.8029,-5.8535,-5.8773,-5.8719,-5.8555,-5.85,-5.85,-5.825,-5.8195,-5.8195,-5.8195,-5.8195,-5.8195,-5.4683,0.0,-5.5068,0.0,-5.5869,-5.6546,-5.7303,-5.7795,-5.83,-5.9008,-5.867,-5.8731,-5.9686,-5.9963,-6.027,-6.0763,-6.0794,-6.069,-6.0534,-6.0534,-6.0534,-6.0534,-6.0534,0.0,-6.0794,-6.0332,-5.9993,-5.9778,-5.9316,0.0,0.0,0.0,0.0,0.0,-5.842,-5.8512,-5.8573,-5.9192,-5.9414,-5.9392,-5.9562,-5.9636,-5.9636,-5.9452,-5.9315,-5.9207,-5.9207,-5.9153,-5.9099,-5.9099,-5.8828,-5.847,-5.847,-5.8415,-5.8335,-5.8335,-5.825,-5.8195,-5.8195,-5.8195,-5.8195,-5.8335,-5.8335,-5.839,-5.8445,-5.847,-5.8208,-5.7326,-5.5966,-5.4785,-5.4036,-5.3383,-5.2733,-5.1991,0.0,0.0,0.0,-4.9582,0.0,0.0,-4.788,-4.7271,-4.7114,0.0,0.0,0.0,0.0,0.0,0.0,0.0,0.0,0.0,0.0,0.0,-4.9062,-4.9679,-5.0787,-5.2546,-5.433,-5.5108,-5.4934,-5.6266,-5.7511,-5.883,-5.9009,-5.9099,-5.9099,-5.8912,-5.8828,-5.8773,-5.8555,-5.847,-5.847,-5.847,-5.847,-5.847,-5.4683,-5.5253,-5.5899,-5.6656,-5.7333,-5.8011,-5.8639,-5.8762,-5.9008,-5.9686,-5.9778,-5.9778,-5.9778,-6.0393,-6.0794,-6.0794,-6.0794,-6.0794,-6.0794,-6.0794,-6.0794,0.0,0.0,-6.0794,-6.0794,-6.0794,-6.0455,-5.9778,0.0,0.0,-5.8793,0.0,-5.8793,-5.8824,-5.947,-5.9778,-5.9809,-6.0175,-6.0377,-6.0377,-6.0092,-6.0016,-6.0016,-6.0016,-5.9773,-5.9476,-5.9476,-5.9315,-5.9099,-5.9099,-5.9099,-5.9099,-5.9099,-5.8882,-5.8694,-5.8694,-5.8445,-5.8195,-5.8195,-5.8195,-5.825,-5.8609,-5.8694,-5.8719,-5.9045,-5.9099,-5.8632,-5.7024,-5.5959,-5.4995,-5.4088,-5.389,-5.3581,-5.271,0.0,0.0,0.0,0.0,0.0,-4.8885,-4.8663,-4.8449,-4.784,0.0,0.0,0.0,0.0,0.0,0.0,0.0,0.0,-4.6778,-4.8278,0.0,-4.9092,-4.9999,-5.1287,-5.2812,-5.4451,-5.5179,-5.5239,-5.6526,-5.7483,-5.8171,-5.883,-5.9099,-5.9099,-5.9099,-5.9099,-5.9099,-5.9099,-5.9099,-5.9099,-5.9099,-5.9099,-5.9099,-5.67,-5.6977,-5.7315,-5.8023,-5.83,-5.8701,-5.9378,-5.947,-5.9716,-6.0393,-6.0486,-6.0486,-6.0486,-6.0671,-6.0794,0.0,-6.0794,-6.0794,0.0,-6.0794,-6.0794,-6.0794,-6.0794,-6.0794,-6.0794,-6.0794,-6.0701,-6.0486,0.0,0.0,0.0,-6.0147,-6.0147,-6.0178,-6.0393,-6.0486,-6.0486,-6.0598,-6.069,-6.0638,-6.0377,-6.0272,-6.025,-6.0039,-5.9933,-5.9827,-5.9827,-5.9773,-5.9667,-5.9422,-5.9369,-5.9315,-5.9153,-5.9045,-5.8936,-5.8936,-5.8882,-5.8828,-5.8828,-5.8828,-5.8828,-5.8936,-5.8936,-5.8991,-5.9099,-5.9099,-5.8806,-5.7886,-5.6905,-5.6012,-5.5256,-5.4598,-5.3892,-5.2997,-5.288,0.0,-5.1439,0.0,-5.0511,0.0,-4.9262,-4.8653,-4.8449,-4.8043,0.0,0.0,0.0,0.0,0.0,0.0,0.0,0.0,-4.881,0.0,-5.094,-5.0662,-5.1621,-5.3744,-5.471,-5.5418,-5.5897,-5.6705,-5.7483,-5.8171,-5.883,-5.9099,-5.9099,-5.9099,-5.9099,-5.9099,-5.9099,-5.9099,-5.9099,-5.9099,-5.9099,-5.9099,-5.8104,-5.8196,-5.8362,-5.9039,-5.9162,-5.9378,-6.0055,-6.0178,-6.0332,-6.0763,-6.1113,-6.135,-6.135,-6.167,0.0,-6.0855,-6.0794,-6.0794,-6.0794,-6.0794,-6.0794,-6.0794,-6.0794,-6.0794,-6.0794,-6.0794,0.0,-6.0794,-6.0794,-6.0794,-6.0794,-6.0794,-6.0794,-6.0794,-6.0794,-6.0794,-6.0794,-6.0794,-6.0794,-6.0794,-6.0638,-6.0534,-6.0534,-6.0355,-6.025,-6.0144,-6.0144,-6.0092,-5.9963,-5.9773,-5.972,-5.9667,-5.9506,-5.9315,-5.9207,-5.9153,-5.9099,-5.9099,-5.9099,-5.9099,-5.9099,-5.9099,-5.9099,-5.9099,-5.9099,-5.9099,-5.8919,-5.8261,-5.7623,-5.6898,-5.5872,-5.5212,-5.4532,-5.3627,-5.3488,-5.318,-5.2282,0.0,-5.1445,0.0,0.0,0.0,0.0,-4.8856,-4.8391,0.0,0.0,0.0,0.0,0.0,-4.8541,-4.9062,-4.9516,-5.0401,-5.1784,-5.163,-5.2428,-5.4221,-5.488,-5.5418,-5.5837,-5.6705,-5.7334,-5.7782,-5.871,-5.9099,-5.9099,-5.9099,-5.9099,-5.9099,-5.9099,-5.9099,-5.9099,-5.9099,-5.9099,-5.9099,-5.8854,-5.8905,-5.912,0.0,-5.9921,-6.0137,-6.0815,-6.0907,-6.0938,-6.0999,-6.1815,-6.2426,-6.2426,-6.3194,-6.2986,-6.1144,0.0,0.0,-6.0855,-6.0824,-6.0794,-6.0794,-6.0794,-6.0794,-6.0794,-6.0794,-6.0794,-6.0794,-6.0794,-6.0794,-6.0794,-6.0794,-6.0794,-6.0794,-6.0794,-6.0794,-6.0794,-6.0794,-6.0824,-6.0886,-6.0886,-6.0886,-6.0948,-6.0948,-6.0791,-6.0582,-6.0582,-6.0425,-6.0191,-6.0191,-6.0191,-6.0138,-6.0138,-5.9864,-5.9536,-5.9237,-5.9099,-5.9099,-5.9099,-5.9099,-5.9099,-5.9099,-5.9099,-5.9099,-5.9099,-5.9099,-5.8919,-5.8321,-5.8141,-5.7647,-5.6132,-5.5783,-5.5464,-5.4503,-5.4385,-5.4046,-5.318,-5.3041,-5.2727,0.0,0.0,0.0,-5.0793,-5.0211,-4.9601,0.0,0.0,0.0,0.0,0.0,-4.9362,-4.9303,-5.0319,-5.1238,-5.1951,-5.2789,-5.3593,-5.4281,-5.491,-5.5179,-5.5239,-5.6526,-5.7094,-5.7154,-5.853,-5.9099,-5.9099,-5.9099,-5.9099,-5.9099,-5.9099,-5.9099,-5.9099,-5.9099,-5.9099,-5.9099,0.0,0.0,-6.0082,-6.0763,-6.1009,-6.143,-6.2177,-6.227,-6.2457,-6.2955,-6.3194,-6.3371,-6.3371,-6.3548,-6.3516,-6.3048,-6.2343,-6.1856,-6.1563,-6.1071,-6.0794,-6.0794,-6.0794,-6.0794,-6.0794,-6.0794,-6.0794,-6.0794,-6.0794,-6.0794,-6.0794,-6.0794,-6.0794,-6.0794,-6.0794,-6.0794,-6.0794,-6.0794,-6.1101,-6.1563,-6.1563,-6.1871,-6.2333,-6.2333,-6.228,-6.2226,-6.2226,-6.2173,-6.2097,-6.1905,-6.1798,-6.1828,-6.1582,-6.1139,-6.0462,-5.9627,-5.9261,-5.9099,-5.9099,-5.9099,-5.9099,-5.9099,-5.9099,-5.9099,-5.9099,-5.9099,-5.9069,-5.8919,-5.8471,-5.7969,-5.7587,-5.6721,-5.5952,-5.5464,-5.4967,-5.4509,-5.4075,-5.3583,-5.3229,0.0,-5.2243,-5.1683,-5.1683,-5.1537,-5.1391,0.0,0.0,0.0,-5.1631,-5.1807,-5.1668,-5.1195,-5.1409,-5.2256,-5.3614,-5.3704,-5.4172,-5.497,-5.5119,-5.5179,-5.5239,-5.6526,-5.7094,-5.7154,-5.853,-5.9099,-5.9099,-5.9099,-5.9099,-5.9099,-5.9099,-5.9099,-5.9099,-5.9099,-5.9099,-5.9099,-6.0586,-6.0749,-6.0975,-6.1348,-6.1761,-6.2206,-6.2612,-6.2975,-6.3287,-6.3662,-6.4079,-6.4351,-6.4351,-6.4737,-6.4978,-6.482,-6.3704,-6.285,-6.2693,-6.2321,-6.2083,-6.1927,-6.1927,-6.1751,-6.1255,-6.1255,-6.1101,-6.0794,-6.0794,-6.0794,-6.0794,-6.0794,-6.0794,-6.0794,-6.0794,-6.0794,-6.0824,-6.1132,-6.1471,-6.184,-6.2148,-6.2487,-6.2825,-6.2825,-6.2825,-6.2825,-6.2825,-6.2825,-6.2772,-6.2664,-6.261,-6.2557,-6.2395,-6.2011,-6.1477,-6.0593,-5.9878,-5.9261,-5.9153,-5.9099,-5.9099,-5.9099,-5.9099,-5.9099,-5.9099,-5.9099,-5.9099,-5.9099,-5.883,-5.8471,-5.8171,-5.7543,-5.6803,-5.605,-5.5662,-5.5232,-5.4598,-5.4272,-5.3985,-5.3802,-5.3141,-5.2658,-5.2658,-5.2364,-5.2188,-5.2188,-5.2338,0.0,-5.2586,-5.2684,-5.2634,-5.2278,-5.2375,-5.2998,-5.4192,-5.4381,-5.471,-5.5179,-5.5179,-5.5179,-5.5239,-5.6526,-5.7094,-5.7154,-5.853,-5.9099,-5.9099,-5.9099,-5.9099,-5.9099,-5.9099,-5.9099,-5.9099,-5.9099,-5.9099,-5.9099,-6.1582,-6.1726,-6.182,-6.182,-6.2464,-6.3016,-6.311,-6.361,-6.4017,-6.411,-6.4853,-6.5334,-6.5334,-6.608,-6.6512,-6.6246,-6.4988,-6.4079,-6.385,-6.3756,-6.362,-6.3357,-6.3357,-6.2972,-6.2121,-6.2069,-6.1677,-6.0948,-6.0948,-6.0886,-6.0794,-6.0794,-6.0794,-6.0794,-6.0794,-6.0794,-6.0907,-6.1585,-6.1976,-6.213,-6.2809,-6.3148,-6.3241,-6.3241,-6.3241,-6.3241,-6.3241,-6.3241,-6.3241,-6.3187,-6.3187,-6.3187,-6.3133,-6.2879,-6.2479,-6.1898,-6.0822,-5.9704,-5.9345,-5.9207,-5.9153,-5.9099,-5.9153,-5.9153,-5.9099,-5.9153,-5.9153,-5.9099,-5.9099,-5.8949,-5.8381,-5.8201,-5.7752,-5.6645,-5.6376,-5.6025,-5.5143,0.0,-5.4892,-5.4487,-5.3963,-5.3588,-5.3588,-5.3107,-5.2782,-5.2782,-5.2782,-5.2931,-5.3159,-5.3159,-5.3159,-5.3159,-5.3286,-5.3653,-5.4341,-5.491,-5.5179,-5.5179,-5.5299,-5.5329,-5.5388,-5.6675,-5.7244,-5.7304,-5.856,-5.9099,-5.9099,-5.9099,-5.9099,-5.9099,-5.9099,-5.9099,-5.9099,-5.9099,-5.9099,-5.9099,-6.1582,-6.2285,-6.2876,-6.2876,-6.3594,-6.4461,-6.506,-6.5218,-6.5502,-6.6101,-6.6259,-6.6375,-6.6375,-6.6501,-6.6565,-6.6565,-6.6291,-6.5702,-6.4599,-6.4037,-6.3693,-6.3641,-6.3641,-6.3558,-6.3381,-6.3202,-6.2597,-6.1656,-6.1656,-6.1348,-6.0794,-6.0794,-6.0794,-6.0794,-6.0794,-6.0897,-6.1216,-6.1898,-6.2674,-6.3474,-6.4159,-6.4751,-6.528,-6.528,-6.528,-6.528,-6.528,-6.528,-6.5227,-6.4987,-6.4932,-6.4878,-6.4635,-6.4094,-6.3548,-6.3207,-6.2127,-6.0951,-6.0084,-5.9667,-5.9369,-5.9153,-5.9261,-5.9369,-5.9153,-5.9261,-5.9369,-5.9153,-5.9099,-5.9069,-5.8979,-5.8501,-5.8052,-5.7842,-5.7334,-5.6735,-5.6055,0.0,-5.5756,-5.5138,-5.4786,-5.4603,-5.4603,-5.4484,-5.4425,-5.4425,-5.4628,-5.4779,-5.483,-5.483,-5.483,-5.483,-5.4341,-5.4371,-5.5029,-5.5149,-5.5179,-5.5209,-5.5748,-5.6017,-5.6128,-5.7363,-5.7962,-5.8022,-5.877,-5.9099,-5.9099,-5.9099,-5.9099,-5.9099,-5.9099,-5.9099,-5.9099,-5.9099,-5.9099,-5.9099,-6.2569,-6.3016,-6.3413,-6.3791,-6.4524,-6.5195,-6.5563,-6.589,-6.6238,-6.6554,-6.6617,-6.6617,-6.6617,-6.6617,-6.6617,-6.6617,-6.6617,-6.6354,-6.5743,-6.5429,-6.5219,-6.5061,-6.5061,-6.4767,-6.4255,-6.3754,-6.3307,-6.2808,-6.2467,-6.2125,-6.1815,-6.1443,-6.1257,-6.1257,-6.1257,-6.1308,-6.1472,-6.2612,-6.3287,-6.3797,-6.4827,-6.5419,-6.57,-6.57,-6.57,-6.57,-6.57,-6.57,-6.57,-6.5538,-6.5515,-6.546,-6.5187,-6.4861,-6.4467,-6.3824,-6.2425,-6.102,-6.0221,-5.988,-5.972,-5.9613,-5.9667,-5.972,-5.9613,-5.9667,-5.972,-5.9613,-5.9422,-5.9315,-5.9315,-5.8967,-5.853,-5.8171,-5.7872,-5.7423,-5.6765,-5.6675,-5.6555,-5.6256,-5.6123,-5.5871,-5.5594,-5.5564,-5.5415,-5.5006,-5.5158,-5.5179,-5.5179,-5.5538,-5.5718,-5.5718,-5.5089,-5.5059,-5.5718,-5.5718,-5.5897,-5.6226,-5.6526,-5.6675,-5.6705,-5.7693,-5.8112,-5.8171,-5.883,-5.9099,-5.9099,-5.9099,-5.9099,-5.9099,-5.9099,-5.9099,-5.9099,-5.9099,-5.9099,-5.9099,-6.3362,-6.3742,-6.4152,-6.4658,-6.5353,-6.5827,-6.5827,-6.627,-6.6617,-6.6617,-6.6617,-6.6617,-6.6617,-6.6617,-6.6617,-6.6617,-6.6617,-6.6617,-6.6617,-6.6617,-6.6512,-6.6299,-6.6299,-6.5888,-6.5058,-6.4527,-6.4152,-6.3943,-6.3236,-6.283,-6.2674,-6.1925,-6.1582,-6.1582,-6.1582,-6.1726,-6.2027,-6.3277,-6.3954,-6.4257,-6.5446,-6.5915,-6.5915,-6.5915,-6.5915,-6.5915,-6.5915,-6.5915,-6.5915,-6.5808,-6.5808,-6.5785,-6.5515,-6.5351,-6.5149,-6.4374,-6.2832,-6.1263,-6.0517,-6.0213,-6.0092,-6.0016,-6.0069,-6.0039,-6.0016,-6.0069,-6.0039,-6.0016,-5.9827,-5.9636,-5.9636,-5.9369,-5.9057,-5.8494,0.0,-5.8112,-5.7423,-5.7334,-5.7274,-5.7124,-5.7094,-5.6915,-5.6436,-5.6376,-5.6196,-5.5658,-5.5628,-5.5628,-5.5628,-5.6107,-5.6376,-5.6376,-5.5897,-5.5867,-5.6376,-5.6376,-5.6615,-5.7094,-5.7244,-5.7334,-5.7363,-5.8052,-5.8351,-5.8381,-5.889,-5.9099,-5.9099,-5.9099,-5.9099,-5.9099,-5.9099,-5.9099,-5.9099,-5.9099,-5.9099,-5.9099,-6.3457,-6.4532,-6.5468,-6.5532,-6.608,-6.6523,-6.6523,-6.6586,-6.6617,-6.6617,-6.6617,-6.6617,-6.6617,-6.6617,-6.6617,-6.6617,-6.6617,-6.6617,-6.6617,-6.6617,-6.6617,-6.6565,-6.6565,-6.6427,-6.6076,-6.6013,-6.5562,-6.4661,-6.3953,-6.3298,-6.2674,-6.1925,-6.1582,-6.1582,-6.1582,-6.2109,-6.3033,-6.3775,-6.4621,-6.5491,-6.6249,-6.6533,-6.6533,-6.6533,-6.6533,-6.6533,-6.6533,-6.6533,-6.6512,-6.6246,-6.6139,-6.6085,-6.5754,-6.5483,-6.5297,-6.5235,-6.3973,-6.2503,-6.1561,-6.0866,-6.0324,-6.0039,-6.0197,-6.0272,-6.0069,-6.0197,-6.0272,-6.0039,-6.0016,-5.9963,-5.9963,-5.972,-5.9446,-5.9416,0.0,0.0,-5.8141,-5.8052,-5.7812,-5.7184,-5.7094,-5.7064,-5.7034,-5.7034,-5.7004,-5.6944,-5.6944,-5.6944,-5.6944,-5.7004,-5.7034,-5.7034,-5.6974,-5.6974,-5.7034,-5.7034,-5.7064,-5.7094,-5.7752,-5.8052,-5.8082,-5.874,-5.9039,-5.9039,-5.9069,-5.9099,-5.9099,-5.9099,-5.9099,-5.9099,-5.9099,-5.9099,-5.9099,-5.9099,-5.9099,-5.9099,-6.4595,-6.5195,-6.5753,-6.6143,-6.6428,-6.6617,-6.6617,-6.6617,-6.6617,-6.6617,-6.6617,-6.6617,-6.6617,-6.6617,-6.6617,-6.6617,-6.6617,-6.6617,-6.6617,-6.6617,-6.6617,-6.6617,-6.6617,-6.6565,-6.6459,-6.6459,-6.6248,-6.5859,-6.5198,-6.4506,-6.3814,-6.3091,-6.2525,-6.2148,-6.2556,-6.2984,-6.34,-6.4535,-6.527,-6.569,-6.6333,-6.6617,-6.6617,-6.6617,-6.6617,-6.6617,-6.6617,-6.6617,-6.6617,-6.6459,-6.6459,-6.6406,-6.6108,-6.5978,-6.5817,-6.5406,-6.412,-6.271,-6.2357,-6.1467,-6.0638,-6.0512,-6.0586,-6.0638,-6.0512,-6.0586,-6.0638,-6.0512,-6.0355,-6.025,-6.025,-6.0039,-5.9773,-5.9529,0.0,-5.9225,-5.877,-5.874,-5.865,-5.8381,-5.8351,-5.8171,-5.7782,-5.7723,-5.7543,-5.7124,-5.7094,-5.7198,-5.7385,-5.7984,-5.8459,-5.8882,-5.8882,-5.8542,-5.7752,-5.7723,-5.7932,-5.8351,-5.862,-5.874,-5.874,-5.8979,-5.9099,-5.9099,-5.9099,-5.9099,-5.9099,-5.9099,-5.9099,-5.9099,-5.9099,-5.9099,-5.9099,-5.9099,-5.9099,-5.9099,-6.5353,-6.5764,-6.6048,-6.6523,-6.6617,-6.6617,-6.6617,-6.6617,-6.6617,-6.6617,-6.6617,-6.6617,-6.6617,-6.6617,-6.6617,-6.6617,-6.6617,-6.6617,-6.6617,-6.6617,-6.6617,-6.6617,-6.6617,-6.6617,-6.6617,-6.6617,-6.6617,-6.6617,-6.5922,-6.5322,-6.4848,-6.4121,-6.3552,-6.3059,-6.3584,-6.3931,-6.4216,-6.5164,-6.5701,-6.5922,-6.6396,-6.6617,-6.6617,-6.6617,-6.6617,-6.6617,-6.6617,-6.6617,-6.6617,-6.6617,-6.6617,-6.6565,-6.6406,-6.6246,-6.6085,-6.546,-6.4174,-6.2932,-6.2825,-6.184,-6.0794,-6.0794,-6.0794,-6.0794,-6.0794,-6.0794,-6.0794,-6.0794,-6.0638,-6.0534,-6.0534,-6.0302,-6.0039,-5.9796,-5.9636,-5.9422,-5.9261,-5.9153,-5.9099,-5.9099,-5.9099,-5.8919,-5.8471,-5.8494,-5.8338,-5.7858,-5.7933,-5.8121,-5.836,-5.894,-5.95,-5.9986,-6.0016,-5.9562,-5.8707,-5.8601,-5.8704,-5.9099,-5.9207,-5.9207,-5.9207,-5.9315,-5.9399,-5.9399,-5.9399,-5.9315,-5.9207,-5.9207,-5.9153,-5.9099,-5.9099,-5.9099,-5.9099,-5.9099,-5.9099,-5.9099,-6.5448,-6.6143,-6.6617,-6.6617,-6.6617,-6.6617,-6.6617,-6.6617,-6.6617,-6.6617,-6.6617,-6.6617,-6.6617,-6.6617,-6.6617,-6.6617,-6.6617,-6.6617,-6.6617,-6.6617,-6.6617,-6.6617,-6.6617,-6.6617,-6.6617,-6.6617,-6.6617,-6.6617,-6.5922,-6.5626,-6.5595,-6.4848,-6.4532,-6.4532,-6.4532,-6.4911,-6.5626,-6.5626,-6.5985,-6.6617,-6.6617,-6.6617,-6.6617,-6.6617,-6.6617,-6.6617,-6.6617,-6.6617,-6.6617,-6.6617,-6.6617,-6.6617,-6.6617,-6.6406,-6.6085,-6.546,-6.4336,-6.3198,-6.2879,-6.184,-6.0794,-6.0794,-6.0794,-6.0794,-6.0794,-6.0794,-6.0794,-6.0794,-6.0794,-6.0794,-6.0794,-6.0586,-6.0377,-6.0377,-5.9902,-5.9529,-5.9529,-5.9261,-5.9099,-5.9099,-5.9099,-5.9099,-5.9099,-5.9369,-5.9529,-5.9529,-5.9827,-6.0016,-6.0016,-6.0016,-6.0016,-6.0016,-6.0016,-6.0016,-6.0016,-5.9636,-5.9369,-5.9099,-5.9369,-5.9529,-5.9529,-5.9827,-6.0016,-6.0016,-6.0016,-5.9827,-5.9529,-5.9529,-5.9369,-5.9099,-5.9099,-5.9099,-5.9099,-5.9099,-5.9099,-5.9099,-6.6175,-6.6459,-6.6617,-6.6617,-6.6617,-6.6617,-6.6617,-6.6617,-6.6617,-6.6617,-6.6617,-6.6617,-6.6617,-6.6617,-6.6617,-6.6617,-6.6617,-6.6617,-6.6617,-6.6617,-6.6617,-6.6617,-6.6617,-6.6617,-6.6617,-6.6617,-6.6617,-6.6617,-6.6396,-6.6048,-6.5626,-6.5353,-6.5006,-6.4532,-6.5037,-6.5385,-6.5658,-6.608,-6.6428,-6.6617,-6.6617,-6.6617,-6.6617,-6.6617,-6.6617,-6.6617,-6.6617,-6.6617,-6.6617,-6.6617,-6.6617,-6.6617,-6.6617,-6.6406,-6.6045,-6.5352,-6.4443,-6.3422,-6.261,-6.1732,-6.1,-6.0845,-6.0794,-6.0794,-6.0794,-6.0794,-6.0794,-6.0794,-6.0794,-6.0794,-6.0794,-6.0742,-6.0638,-6.0429,-6.0272,-6.0061,-5.988,-5.9773,-5.972,-5.972,-5.972,-5.972,-5.972,-5.9773,-5.9827,-5.9827,-6.0144,-6.0302,-6.0302,-6.046,-6.0564,-6.0564,-6.0564,-6.0429,-6.0302,-5.9986,-5.9827,-5.972,-5.9827,-5.9827,-5.9827,-5.9933,-6.0016,-6.0016,-6.0016,-5.9933,-5.9827,-5.9827,-5.9773,-5.972,-5.972,-5.972,-5.972,-5.9476,-5.9369,-5.9369,-6.6774,-6.6901,-6.6901,-6.6901,-6.6901,-6.6901,-6.6744,-6.6744,-6.6691,-6.6617,-6.6617,-6.6617,-6.6617,-6.6617,-6.6617,-6.6617,-6.6691,-6.6744,-6.6744,-6.6849,-6.6901,-6.6901,-6.6901,-6.6796,-6.6586,-6.6617,-6.6617,-6.6617,-6.6617,-6.6396,-6.5985,-6.5985,-6.5764,-6.5353,-6.5796,-6.5985,-6.6017,-6.6428,-6.6617,-6.6617,-6.6617,-6.6617,-6.6617,-6.6617,-6.6617,-6.6617,-6.6617,-6.6617,-6.6617,-6.6617,-6.6617,-6.6617,-6.6617,-6.6512,-6.6226,-6.5313,-6.4518,-6.3621,-6.2623,-6.1887,-6.1308,-6.1155,-6.0949,-6.0794,-6.0794,-6.0794,-6.0794,-6.0794,-6.0794,-6.0794,-6.0794,-6.0794,-6.0742,-6.0586,-6.0481,-6.0324,-6.0197,-6.0039,-6.0016,-6.0016,-6.0016,-6.0016,-6.0016,-6.0092,-6.0197,-6.0302,-6.0429,-6.0534,-6.0534,-6.069,-6.0794,-6.0794,-6.0794,-6.069,-6.0534,-6.0407,-6.0197,-6.0016,-6.0092,-6.0144,-6.0144,-6.025,-6.0302,-6.0302,-6.0302,-6.025,-6.0144,-6.0144,-6.0092,-6.0016,-6.0016,-6.0016,-6.0016,-5.9773,-5.972,-5.9636,-6.726,-6.7388,-6.7388,-6.7388,-6.7388,-6.7317,-6.7057,-6.7057,-6.6953,-6.6691,-6.6638,-6.6638,-6.6638,-6.6638,-6.6638,-6.6638,-6.6901,-6.7057,-6.7057,-6.7233,-6.7388,-6.7388,-6.7388,-6.7161,-6.6638,-6.6638,-6.6638,-6.6638,-6.6638,-6.6638,-6.6638,-6.6638,-6.6638,-6.6638,-6.6638,-6.6638,-6.6638,-6.6638,-6.6638,-6.667,-6.667,-6.667,-6.667,-6.6617,-6.6617,-6.6617,-6.6617,-6.6617,-6.6617,-6.6617,-6.6617,-6.6617,-6.6617,-6.6617,-6.6407,-6.5356,-6.4643,-6.3932,-6.2839,-6.2132,-6.1633,-6.1582,-6.1226,-6.0845,-6.0845,-6.0794,-6.0794,-6.0794,-6.0794,-6.0794,-6.0794,-6.0794,-6.0794,-6.0794,-6.0586,-6.0429,-6.0429,-6.025,-6.0039,-6.0039,-6.0039,-6.0039,-6.0039,-6.0302,-6.0534,-6.0794,-6.0794,-6.0794,-6.0794,-6.0794,-6.0794,-6.0794,-6.0794,-6.0794,-6.0794,-6.0794,-6.0564,-6.0039,-6.0355,-6.0429,-6.0429,-6.069,-6.0794,-6.0794,-6.0794,-6.0638,-6.0429,-6.0429,-6.0302,-6.0039,-6.0039,-6.0039,-6.0069,-6.0069,-6.0069,-6.0039,-6.7388,-6.7388,-6.7388,-6.7388,-6.7388,-6.7388,-6.7317,-6.7285,-6.7317,-6.7265,-6.7213,-6.7213,-6.7213,-6.7213,-6.7213,-6.7213,-6.7317,-6.7285,-6.7285,-6.7368,-6.7388,-6.7388,-6.7388,-6.7368,-6.7213,-6.7213,-6.7213,-6.7213,-6.7213,-6.7213,-6.7213,-6.7213,-6.7213,-6.7213,-6.7213,-6.7213,-6.7213,-6.7213,-6.7213,-6.7213,-6.7005,-6.6901,-6.6901,-6.6638,-6.6617,-6.6617,-6.6617,-6.6617,-6.6617,-6.6617,-6.6617,-6.6617,-6.6617,-6.6617,-6.6365,-6.4997,-6.4524,-6.4094,-6.2581,-6.201,-6.1866,-6.1633,-6.1481,-6.1359,-6.1155,-6.0949,-6.0794,-6.0794,-6.0794,-6.0794,-6.0794,-6.0794,-6.0794,-6.0794,-6.0742,-6.069,-6.069,-6.0638,-6.0669,-6.0669,-6.0669,-6.0669,-6.0669,-6.069,-6.0742,-6.0794,-6.0794,-6.0794,-6.0794,-6.0794,-6.0794,-6.0794,-6.0794,-6.0794,-6.0794,-6.0794,-6.0742,-6.0669,-6.069,-6.069,-6.069,-6.0794,-6.0794,-6.0794,-6.0794,-6.0742,-6.069,-6.069,-6.069,-6.0669,-6.0669,-6.0669,-6.0586,-6.0377,-6.0324,-6.0302,-6.7797,-6.7797,-6.7797,-6.7797,-6.7797,-6.7746,-6.7593,-6.7593,-6.7542,-6.7388,-6.7388,-6.7388,-6.7388,-6.7388,-6.7388,-6.7388,-6.7491,-6.7593,-6.7593,-6.7695,-6.7797,-6.7797,-6.7797,-6.7797,-6.7797,-6.7797,-6.7644,-6.7388,-6.7388,-6.7388,-6.7388,-6.7388,-6.7388,-6.7388,-6.7388,-6.7388,-6.7388,-6.7388,-6.7388,-6.742,-6.7265,-6.7213,-6.7161,-6.7057,-6.6901,-6.6796,-6.6796,-6.6723,-6.6617,-6.6617,-6.6617,-6.6617,-6.6617,-6.6365,-6.589,-6.4848,-6.4279,-6.3723,-6.2499,-6.2166,-6.2166,-6.2016,-6.1916,-6.1714,-6.1461,-6.1155,-6.1,-6.1,-6.0897,-6.0794,-6.0794,-6.0794,-6.0794,-6.0794,-6.0794,-6.0794,-6.0794,-6.0794,-6.0794,-6.0794,-6.0794,-6.0794,-6.0794,-6.0794,-6.0794,-6.0794,-6.0794,-6.0794,-6.0794,-6.0794,-6.0794,-6.0794,-6.0794,-6.0794,-6.0794,-6.0794,-6.0794,-6.0794,-6.0794,-6.0794,-6.0794,-6.0794,-6.0794,-6.0794,-6.0794,-6.0794,-6.0794,-6.0794,-6.0794,-6.0794,-6.0794,-6.0794,-6.0794,-6.0638,-6.0586,-6.0586,-6.8201,-6.8201,-6.8201,-6.8201,-6.8201,-6.8151,-6.7899,-6.7848,-6.7797,-6.7542,-6.7542,-6.7542,-6.7542,-6.7542,-6.7542,-6.7542,-6.7746,-6.7848,-6.7848,-6.8101,-6.8201,-6.8201,-6.8201,-6.8201,-6.8201,-6.8201,-6.8,-6.7542,-6.7542,-6.7542,-6.7542,-6.7542,-6.7542,-6.7542,-6.7542,-6.7542,-6.7542,-6.7542,-6.7542,-6.7542,-6.7491,-6.7439,-6.7439,-6.7388,-6.7265,-6.7057,-6.7057,-6.6901,-6.6744,-6.6744,-6.6744,-6.6744,-6.6744,-6.6269,-6.5572,-6.4875,-6.4127,-6.3431,-6.2685,-6.2414,-6.2396,-6.2396,-6.2216,-6.2016,-6.1815,-6.1512,-6.1257,-6.1257,-6.1052,-6.0845,-6.0845,-6.0845,-6.0794,-6.0794,-6.0794,-6.0794,-6.0794,-6.0794,-6.0794,-6.0794,-6.0794,-6.0794,-6.0794,-6.0794,-6.0794,-6.0794,-6.0794,-6.0794,-6.0794,-6.0794,-6.0794,-6.0794,-6.0794,-6.0794,-6.0794,-6.0794,-6.0794,-6.0794,-6.0794,-6.0794,-6.0794,-6.0794,-6.0794,-6.0794,-6.0794,-6.0794,-6.0794,-6.0794,-6.0794,-6.0794,-6.0794,-6.0794,-6.0794,-6.0794,-6.0794,-6.0794,-6.8201,-6.8201,-6.8201,-6.8201,-6.8201,-6.8201,-6.8151,-6.8151,-6.8151,-6.8101,-6.8101,-6.8101,-6.8101,-6.8101,-6.8101,-6.8101,-6.8101,-6.8151,-6.8151,-6.8201,-6.8201,-6.8201,-6.8201,-6.8201,-6.8201,-6.8201,-6.8151,-6.8101,-6.8101,-6.8101,-6.8101,-6.8101,-6.8101,-6.8101,-6.8101,-6.8101,-6.8101,-6.8101,-6.8101,-6.805,-6.7848,-6.7746,-6.7695,-6.7491,-6.7388,-6.7368,-6.7368,-6.7317,-6.7317,-6.7317,-6.7317,-6.7317,-6.7317,-6.6806,-6.6052,-6.54,-6.458,-6.368,-6.2949,-6.2562,-6.2396,-6.2396,-6.2365,-6.2315,-6.2315,-6.1916,-6.1531,-6.1531,-6.1359,-6.1186,-6.1186,-6.0949,-6.0794,-6.0794,-6.0794,-6.0794,-6.0794,-6.0794,-6.0794,-6.0794,-6.0794,-6.0794,-6.0794,-6.0794,-6.0794,-6.0794,-6.0794,-6.0794,-6.0794,-6.0794,-6.0794,-6.0794,-6.0794,-6.0794,-6.0794,-6.0794,-6.0794,-6.0794,-6.0794,-6.0794,-6.0794,-6.0794,-6.0794,-6.0794,-6.0794,-6.0794,-6.0794,-6.0794,-6.0794,-6.0794,-6.0794,-6.0794,-6.0794,-6.0794,-6.0794,-6.0794,-6.8201,-6.8201,-6.8201,-6.8201,-6.8201,-6.8201,-6.8201,-6.8201,-6.8201,-6.8201,-6.8201,-6.8201,-6.8201,-6.8201,-6.8201,-6.8201,-6.8201,-6.8201,-6.8201,-6.8201,-6.8201,-6.8201,-6.8201,-6.8201,-6.8201,-6.8201,-6.8201,-6.8201,-6.8201,-6.8201,-6.8201,-6.8201,-6.8201,-6.8201,-6.8201,-6.8201,-6.8201,-6.8201,-6.8201,-6.8201,-6.805,-6.8,-6.8,-6.7899,-6.7746,-6.7593,-6.7439,-6.7388,-6.7388,-6.7388,-6.7388,-6.7324,-6.694,-6.6332,-6.5628,-6.4892,-6.4122,-6.3417,-6.3098,-6.2808,-6.2612,-6.2612,-6.2513,-6.2396,-6.2396,-6.2216,-6.2016,-6.1834,-6.1613,-6.141,-6.141,-6.1206,-6.1,-6.1,-6.0897,-6.0794,-6.0794,-6.0794,-6.0794,-6.0794,-6.0794,-6.0794,-6.0794,-6.0794,-6.0794,-6.0794,-6.0794,-6.0794,-6.0794,-6.0794,-6.0794,-6.0794,-6.0794,-6.0794,-6.0794,-6.0794,-6.0794,-6.0794,-6.0794,-6.0794,-6.0794,-6.0794,-6.0794,-6.0794,-6.0794,-6.0794,-6.0794,-6.0794,-6.0794,-6.0794,-6.0794,-6.0794,-6.0794,-6.0794,-6.0794,-6.0794]},{"header":{"parameterUnit":"m.s-1","parameterCategory":1,"la1":30.6,"la2":28.766,"lo1":-90.7593,"lo2":-88.6598,"dy":0.0162,"dx":0.0183,"nx":116,"ny":114,"refTime":"2023-06-18T18:00:00:Z","depth":0,"parameterNumber":3,"parameterNumberName":"V-component_of_WINDS"},"data":[0.0,0.0,0.0,0.0,0.0,0.0,0.0,0.0,0.0,0.0,0.0,0.0,0.0,0.0,0.0,0.0,0.0,0.0,0.0,0.0,0.0,0.0,0.0,0.0,0.0,0.0,0.0,0.0,0.0,0.0,0.0,0.0,0.0,0.0,0.0,0.0,0.0,0.0,0.0,0.0,0.0,0.0,0.0,0.0,0.0,0.0,0.0,0.0,0.0,0.0,0.0,0.0,0.0,0.0,0.0,0.0,0.0,0.0,0.0,0.0,0.0,0.0,0.0,0.0,0.0,0.0,0.0,0.0,0.0,0.0,0.0,0.0,0.0,0.0,0.0,0.0,0.0,0.0,0.0,0.0,0.0,0.0,0.0,0.0,0.0,0.0,0.0,0.0,0.0,0.0,0.0,0.0,0.0,0.0,0.0,0.0,0.0,0.0,0.0,0.0,0.0,0.0,0.0,0.0,0.0,0.0,0.0,0.0,0.0,0.0,0.0,0.0,0.0,0.0,0.0,0.0,0.0,0.0,0.0,0.0,0.0,0.0,0.0,0.0,0.0,0.0,0.0,0.0,0.0,0.0,0.0,0.0,0.0,0.0,0.0,0.0,0.0,0.0,0.0,0.0,0.0,0.0,0.0,0.0,0.0,0.0,0.0,0.0,0.0,0.0,0.0,0.0,0.0,0.0,0.0,0.0,0.0,0.0,0.0,0.0,0.0,0.0,0.0,0.0,0.0,0.0,0.0,0.0,0.0,0.0,0.0,0.0,0.0,0.0,0.0,0.0,0.0,0.0,0.0,0.0,0.0,0.0,0.0,0.0,0.0,0.0,0.0,0.0,0.0,0.0,0.0,0.0,0.0,0.0,0.0,0.0,0.0,0.0,0.0,0.0,0.0,0.0,0.0,0.0,0.0,0.0,0.0,0.0,0.0,0.0,0.0,0.0,0.0,0.0,0.0,0.0,0.0,0.0,0.0,0.0,0.0,0.0,0.0,0.0,0.0,0.0,0.0,0.0,0.0,0.0,0.0,0.0,0.0,0.0,0.0,0.0,0.0,0.0,0.0,0.0,0.0,0.0,0.0,0.0,0.0,0.0,0.0,0.0,0.0,0.0,0.0,0.0,0.0,0.0,0.0,0.0,0.0,0.0,0.0,0.0,0.0,0.0,0.0,0.0,0.0,0.0,0.0,0.0,0.0,0.0,0.0,0.0,0.0,0.0,0.0,0.0,0.0,0.0,0.0,0.0,0.0,0.0,0.0,0.0,0.0,0.0,0.0,0.0,0.0,0.0,0.0,0.0,0.0,0.0,0.0,0.0,0.0,0.0,0.0,0.0,0.0,0.0,0.0,0.0,0.0,0.0,0.0,0.0,0.0,0.0,0.0,0.0,0.0,0.0,0.0,0.0,0.0,0.0,0.0,0.0,0.0,0.0,0.0,0.0,0.0,0.0,0.0,0.0,0.0,0.0,0.0,0.0,0.0,0.0,0.0,0.0,0.0,0.0,0.0,0.0,0.0,0.0,0.0,0.0,0.0,0.0,0.0,0.0,0.0,0.0,0.0,0.0,0.0,0.0,0.0,0.0,0.0,0.0,0.0,0.0,0.0,0.0,0.0,0.0,0.0,0.0,0.0,0.0,0.0,0.0,0.0,0.0,0.0,0.0,0.0,0.0,0.0,0.0,0.0,0.0,0.0,0.0,0.0,0.0,0.0,0.0,0.0,0.0,0.0,0.0,0.0,0.0,0.0,0.0,0.0,0.0,0.0,0.0,0.0,0.0,0.0,0.0,0.0,0.0,0.0,0.0,0.0,0.0,0.0,0.0,0.0,0.0,0.0,0.0,0.0,0.0,0.0,0.0,0.0,0.0,0.0,0.0,0.0,0.0,0.0,0.0,0.0,0.0,0.0,0.0,0.0,0.0,0.0,0.0,0.0,0.0,0.0,0.0,0.0,0.0,0.0,0.0,0.0,0.0,0.0,0.0,0.0,0.0,0.0,0.0,0.0,0.0,0.0,0.0,0.0,0.0,0.0,0.0,0.0,0.0,0.0,0.0,0.0,0.0,0.0,0.0,0.0,0.0,0.0,0.0,0.0,0.0,0.0,0.0,0.0,0.0,0.0,0.0,0.0,0.0,0.0,0.0,0.0,0.0,0.0,0.0,0.0,0.0,0.0,0.0,0.0,0.0,0.0,0.0,0.0,0.0,0.0,0.0,0.0,0.0,0.0,0.0,0.0,0.0,0.0,0.0,0.0,0.0,0.0,0.0,0.0,0.0,0.0,0.0,0.0,0.0,0.0,0.0,0.0,0.0,0.0,0.0,0.0,0.0,0.0,0.0,0.0,0.0,0.0,0.0,0.0,0.0,0.0,0.0,0.0,0.0,0.0,0.0,0.0,0.0,0.0,0.0,0.0,0.0,0.0,0.0,0.0,0.0,0.0,0.0,0.0,0.0,0.0,0.0,0.0,0.0,0.0,0.0,0.0,0.0,0.0,0.0,0.0,0.0,0.0,0.0,0.0,0.0,0.0,0.0,0.0,0.0,0.0,0.0,0.0,0.0,0.0,0.0,0.0,0.0,0.0,0.0,0.0,0.0,0.0,0.0,0.0,0.0,0.0,0.0,0.0,0.0,0.0,0.0,0.0,0.0,0.0,0.0,0.0,0.0,0.0,0.0,0.0,0.0,0.0,0.0,0.0,0.0,0.0,0.0,0.0,0.0,0.0,0.0,0.0,0.0,0.0,0.0,0.0,0.0,0.0,0.0,0.0,0.0,0.0,0.0,0.0,0.0,0.0,0.0,0.0,0.0,0.0,0.0,0.0,0.0,0.0,0.0,0.0,0.0,0.0,0.0,0.0,0.0,0.0,0.0,0.0,0.0,0.0,0.0,0.0,0.0,0.0,0.0,0.0,0.0,0.0,0.0,0.0,0.0,0.0,0.0,0.0,0.0,0.0,0.0,0.0,0.0,0.0,0.0,0.0,0.0,0.0,0.0,0.0,0.0,0.0,0.0,0.0,0.0,0.0,0.0,0.0,0.0,0.0,0.0,0.0,0.0,0.0,0.0,0.0,0.0,0.0,0.0,0.0,0.0,0.0,0.0,0.0,0.0,0.0,0.0,0.0,0.0,0.0,0.0,0.0,0.0,0.0,0.0,0.0,0.0,0.0,0.0,0.0,0.0,0.0,0.0,0.0,0.0,0.0,0.0,0.0,0.0,0.0,0.0,0.0,0.0,0.0,0.0,0.0,0.0,0.0,0.0,0.0,0.0,0.0,0.0,0.0,0.0,0.0,0.0,0.0,0.0,0.0,0.0,0.0,0.0,0.0,0.0,0.0,0.0,0.0,0.0,0.0,0.0,0.0,0.0,0.0,0.0,0.0,0.0,0.0,0.0,0.0,0.0,0.0,0.0,0.0,0.0,0.0,0.0,0.0,0.0,0.0,0.0,0.0,0.0,0.0,0.0,0.0,0.0,0.0,0.0,0.0,0.0,0.0,0.0,0.0,0.0,0.0,0.0,0.0,0.0,0.0,0.0,0.0,0.0,0.0,0.0,0.0,0.0,0.0,0.0,0.0,0.0,0.0,0.0,0.0,0.0,0.0,0.0,0.0,0.0,0.0,0.0,0.0,0.0,0.0,0.0,0.0,0.0,0.0,0.0,0.0,0.0,0.0,0.0,0.0,0.0,0.0,0.0,0.0,0.0,0.0,0.0,0.0,0.0,0.0,0.0,0.0,0.0,0.0,0.0,0.0,0.0,0.0,0.0,0.0,0.0,0.0,0.0,0.0,0.0,0.0,0.0,0.0,0.0,0.0,0.0,0.0,0.0,0.0,0.0,0.0,0.0,0.0,0.0,0.0,0.0,0.0,0.0,0.0,0.0,0.0,0.0,0.0,0.0,0.0,0.0,0.0,0.0,0.0,0.0,0.0,0.0,0.0,0.0,0.0,0.0,0.0,0.0,0.0,0.0,0.0,0.0,0.0,0.0,0.0,0.0,0.0,0.0,0.0,0.0,0.0,0.0,0.0,0.0,0.0,0.0,0.0,0.0,0.0,0.0,0.0,0.0,0.0,0.0,0.0,0.0,0.0,0.0,0.0,0.0,0.0,0.0,0.0,0.0,0.0,0.0,0.0,0.0,0.0,0.0,0.0,0.0,0.0,0.0,0.0,0.0,0.0,0.0,0.0,0.0,0.0,0.0,0.0,0.0,0.0,0.0,0.0,0.0,0.0,0.0,0.0,0.0,0.0,0.0,0.0,0.0,0.0,0.0,0.0,0.0,0.0,0.0,0.0,0.0,0.0,0.0,0.0,0.0,0.0,0.0,0.0,0.0,0.0,0.0,0.0,0.0,0.0,0.0,0.0,0.0,0.0,0.0,0.0,0.0,0.0,0.0,0.0,0.0,0.0,0.0,0.0,0.0,0.0,0.0,0.0,0.0,0.0,0.0,0.0,0.0,0.0,0.0,0.0,0.0,0.0,0.0,0.0,0.0,0.0,0.0,0.0,0.0,0.0,0.0,0.0,0.0,0.0,0.0,0.0,0.0,0.0,0.0,0.0,0.0,0.0,0.0,0.0,0.0,0.0,0.0,0.0,0.0,0.0,0.0,0.0,0.0,0.0,0.0,0.0,0.0,0.0,0.0,0.0,0.0,0.0,0.0,0.0,0.0,0.0,0.0,0.0,0.0,0.0,0.0,0.0,0.0,0.0,0.0,0.0,0.0,0.0,0.0,0.0,0.0,0.0,0.0,0.0,0.0,0.0,0.0,0.0,0.0,0.0,0.0,0.0,0.0,0.0,0.0,0.0,0.0,0.0,0.0,0.0,0.0,0.0,0.0,0.0,0.0,0.0,0.0,0.0,0.0,0.0,0.0,0.0,0.0,0.0,0.0,0.0,0.0,0.0,0.0,0.0,0.0,0.0,0.0,0.0,0.0,0.0,0.0,0.0,0.0,0.0,0.0,0.0,0.0,0.0,0.0,0.0,0.0,0.0,0.0,0.0,0.0,0.0,0.0,0.0,0.0,0.0,0.0,0.0,0.0,0.0,0.0,0.0,0.0,0.0,0.0,0.0,0.0,0.0,0.0,0.0,0.0,0.0,0.0,0.0,0.0,0.0,0.0,0.0,0.0,0.0,0.0,0.0,0.0,0.0,0.0,0.0,0.0,0.0,0.0,0.0,0.0,0.0,0.0,0.0,0.0,0.0,0.0,0.0,0.0,0.0,0.0,0.0,0.0,0.0,0.0,0.0,0.0,0.0,0.0,0.0,0.0,0.0,0.0,0.0,0.0,0.0,0.0,0.0,0.0,0.0,0.0,0.0,0.0,0.0,0.0,0.0,0.0,0.0,0.0,0.0,0.0,0.0,0.0,0.0,0.0,0.0,0.0,0.0,0.0,0.0,0.0,0.0,0.0,0.0,0.0,0.0,0.0,0.0,0.0,0.0,0.0,0.0,0.0,0.0,0.0,0.0,0.0,0.0,0.0,0.0,0.0,0.0,0.0,0.0,0.0,0.0,0.0,0.0,0.0,0.0,0.0,0.0,0.0,0.0,0.0,0.0,0.0,0.0,0.0,0.0,0.0,0.0,0.0,0.0,0.0,0.0,0.0,0.0,0.0,0.0,0.0,0.0,0.0,0.0,0.0,0.0,0.0,0.0,0.0,0.0,0.0,0.0,0.0,0.0,0.0,0.0,0.0,0.0,0.0,0.0,0.0,0.0,0.0,0.0,0.0,0.0,0.0,0.0,0.0,0.0,0.0,0.0,0.0,0.0,0.0,0.0,0.0,0.0,0.0,0.0,0.0,0.0,0.0,0.0,0.0,0.0,0.0,0.0,0.0,0.0,0.0,0.0,0.0,0.0,0.0,0.0,0.0,0.0,0.0,0.0,0.0,0.0,0.0,0.0,0.0,0.0,0.0,0.0,0.0,0.0,0.0,0.0,0.0,0.0,0.0,0.0,0.0,0.0,0.0,0.0,0.0,0.0,0.0,0.0,0.0,0.0,0.0,0.0,0.0,0.0,0.0,0.0,0.0,0.0,0.0,0.0,0.0,0.0,0.0,0.0,0.0,0.0,0.0,0.0,0.0,0.0,0.0,0.0,0.0,0.0,0.0,0.0,0.0,-3.4392,0.0,0.0,0.0,0.0,0.0,0.0,0.0,0.0,0.0,0.0,0.0,0.0,0.0,0.0,0.0,0.0,0.0,0.0,0.0,0.0,0.0,0.0,0.0,0.0,0.0,0.0,0.0,0.0,0.0,0.0,0.0,0.0,0.0,0.0,0.0,0.0,0.0,0.0,0.0,0.0,0.0,0.0,0.0,0.0,0.0,0.0,0.0,0.0,0.0,0.0,0.0,0.0,0.0,0.0,0.0,0.0,0.0,0.0,0.0,0.0,0.0,0.0,0.0,0.0,0.0,0.0,0.0,0.0,0.0,0.0,0.0,0.0,0.0,0.0,0.0,0.0,0.0,0.0,0.0,0.0,0.0,0.0,0.0,0.0,0.0,0.0,0.0,0.0,0.0,0.0,0.0,0.0,0.0,0.0,0.0,0.0,0.0,0.0,0.0,0.0,0.0,0.0,0.0,0.0,0.0,0.0,0.0,0.0,0.0,0.0,0.0,0.0,0.0,0.0,0.0,0.0,-3.5957,0.0,0.0,0.0,0.0,0.0,0.0,0.0,0.0,0.0,0.0,0.0,0.0,0.0,0.0,0.0,0.0,0.0,0.0,0.0,0.0,0.0,0.0,0.0,0.0,0.0,0.0,0.0,0.0,0.0,0.0,0.0,0.0,0.0,0.0,0.0,0.0,0.0,0.0,0.0,0.0,0.0,0.0,0.0,0.0,0.0,0.0,0.0,0.0,0.0,0.0,0.0,0.0,0.0,0.0,0.0,0.0,0.0,0.0,0.0,0.0,0.0,0.0,0.0,0.0,0.0,0.0,0.0,0.0,0.0,0.0,0.0,0.0,0.0,0.0,0.0,0.0,0.0,0.0,0.0,0.0,0.0,0.0,0.0,0.0,0.0,0.0,0.0,0.0,0.0,0.0,0.0,0.0,0.0,0.0,0.0,0.0,0.0,0.0,0.0,0.0,0.0,0.0,0.0,0.0,0.0,0.0,0.0,0.0,-3.9634,-4.0455,-4.1117,-4.1705,-4.2342,-4.2824,-4.0632,-3.9382,-3.882,-3.7848,0.0,0.0,0.0,0.0,0.0,0.0,0.0,0.0,0.0,0.0,0.0,0.0,0.0,0.0,0.0,0.0,0.0,0.0,0.0,0.0,0.0,0.0,0.0,0.0,0.0,0.0,0.0,0.0,0.0,0.0,0.0,0.0,0.0,0.0,0.0,0.0,0.0,0.0,-3.0328,-3.1329,-3.2031,-3.2406,-3.0984,0.0,0.0,0.0,0.0,0.0,0.0,0.0,0.0,0.0,0.0,0.0,0.0,0.0,0.0,0.0,0.0,0.0,0.0,0.0,0.0,0.0,0.0,0.0,0.0,0.0,0.0,0.0,0.0,0.0,0.0,0.0,0.0,0.0,0.0,0.0,0.0,0.0,0.0,0.0,0.0,0.0,0.0,0.0,-2.3354,-2.4806,0.0,0.0,0.0,0.0,0.0,0.0,0.0,0.0,0.0,0.0,0.0,0.0,0.0,-3.7377,-3.9128,-3.96,-4.0467,-4.1666,-4.2275,-4.3011,-4.3802,-4.4393,-4.5167,-4.589,-4.5306,0.0,-4.1195,-4.0614,0.0,0.0,0.0,0.0,0.0,0.0,0.0,0.0,0.0,0.0,0.0,0.0,0.0,0.0,0.0,0.0,0.0,0.0,0.0,0.0,0.0,0.0,0.0,0.0,0.0,0.0,0.0,0.0,0.0,0.0,0.0,0.0,0.0,0.0,0.0,0.0,-2.997,-3.1354,-3.2014,-3.2792,-3.347,-3.3972,-3.3296,-3.2705,-3.2118,-3.1027,0.0,0.0,0.0,0.0,0.0,0.0,0.0,0.0,0.0,0.0,0.0,0.0,0.0,0.0,0.0,0.0,0.0,0.0,0.0,0.0,0.0,0.0,0.0,0.0,0.0,0.0,0.0,0.0,0.0,0.0,0.0,0.0,0.0,0.0,0.0,0.0,0.0,0.0,0.0,-2.4258,-2.6045,-2.7031,-2.8985,-3.0278,0.0,0.0,0.0,0.0,0.0,0.0,0.0,0.0,0.0,-3.8241,-3.9368,-4.0468,-4.1554,-4.2244,-4.3057,-4.3916,-4.4983,-4.5652,-4.6027,-4.6622,-4.7108,-4.7459,-4.7298,-4.6384,-4.4811,-4.3383,-4.2233,-4.1253,0.0,0.0,0.0,0.0,-3.7967,-3.7817,0.0,0.0,0.0,0.0,0.0,0.0,0.0,0.0,0.0,0.0,0.0,0.0,0.0,0.0,0.0,-1.9401,0.0,0.0,0.0,0.0,0.0,0.0,0.0,0.0,0.0,0.0,0.0,-3.0408,-3.1755,-3.2792,-3.352,-3.4198,-3.4751,-3.5152,-3.5429,-3.489,-3.3737,-3.2567,-3.1932,0.0,0.0,0.0,0.0,0.0,0.0,0.0,0.0,0.0,0.0,0.0,0.0,0.0,0.0,0.0,0.0,0.0,0.0,0.0,0.0,0.0,0.0,0.0,0.0,0.0,0.0,0.0,0.0,0.0,0.0,0.0,0.0,0.0,0.0,0.0,0.0,0.0,0.0,-2.6971,-2.85,-2.9409,-3.1679,-3.3193,0.0,0.0,0.0,0.0,0.0,0.0,-3.8333,-3.9754,-4.0769,-4.1288,-4.24,-4.3282,-4.4004,-4.4716,-4.541,-4.5978,-4.7216,-4.7893,-4.8056,-4.8653,-4.895,-4.9113,-4.9113,-4.8834,-4.8113,-4.5978,-4.4519,-4.3597,-4.2733,-4.1954,-4.131,-4.0841,-4.0473,-4.0262,0.0,0.0,0.0,0.0,0.0,0.0,0.0,0.0,0.0,0.0,0.0,0.0,0.0,0.0,-1.9324,-2.0948,-2.1244,-2.1844,0.0,0.0,0.0,0.0,0.0,0.0,0.0,0.0,0.0,-3.2918,-3.2993,-3.3596,-3.463,-3.573,-3.6304,-3.638,-3.7387,-3.6541,-3.4338,-3.4289,-3.367,-3.2658,0.0,0.0,0.0,0.0,0.0,0.0,0.0,0.0,0.0,0.0,0.0,0.0,0.0,0.0,0.0,0.0,0.0,0.0,0.0,0.0,0.0,0.0,0.0,0.0,0.0,0.0,0.0,0.0,0.0,0.0,0.0,0.0,0.0,0.0,0.0,0.0,0.0,0.0,0.0,-3.203,-3.447,0.0,0.0,0.0,0.0,-4.0041,-4.0147,-4.068,-4.1901,-4.2541,-4.3078,-4.3715,-4.4613,-4.5603,-4.6813,-4.7108,-4.7513,-4.8056,-4.8679,-4.9331,-4.9901,-5.0498,-5.1095,-5.1638,-5.1638,-5.1287,-5.0569,-4.8193,-4.6528,-4.5425,-4.5122,-4.4484,-4.3665,-4.3445,-4.3088,-4.2755,0.0,0.0,0.0,0.0,0.0,0.0,0.0,0.0,0.0,0.0,0.0,0.0,0.0,-1.9328,-2.0418,-2.1155,-2.1906,-2.2918,-2.4178,0.0,0.0,0.0,0.0,0.0,0.0,0.0,-3.1843,-3.3111,-3.4148,-3.5052,-3.578,-3.6533,-3.7182,-3.768,-3.8084,-3.7783,-3.6905,-3.5846,-3.5236,-3.4752,-3.3269,-3.1889,0.0,0.0,0.0,0.0,0.0,0.0,0.0,0.0,0.0,0.0,0.0,0.0,0.0,0.0,0.0,0.0,0.0,0.0,0.0,0.0,0.0,0.0,0.0,0.0,0.0,0.0,0.0,0.0,0.0,0.0,0.0,0.0,0.0,0.0,0.0,0.0,0.0,-3.4863,-3.6973,0.0,0.0,-4.0221,-4.1282,-4.2008,-4.2435,-4.3095,-4.405,-4.5016,-4.5765,-4.6138,-4.6758,-4.7514,-4.8326,-4.8815,-4.9359,-4.9956,-5.058,-5.0987,-5.1204,-5.1394,-5.1611,-5.1769,-5.1566,-5.1272,-5.0803,-4.9743,-4.8764,-4.7806,-4.7152,-4.6521,-4.5969,-4.5737,-4.5413,-4.5121,0.0,0.0,0.0,0.0,0.0,0.0,0.0,0.0,0.0,0.0,0.0,-1.775,-1.859,-1.9966,-2.105,-2.1554,-2.2661,-2.3781,-2.487,0.0,0.0,0.0,0.0,0.0,0.0,-3.1656,-3.2884,-3.3897,-3.5203,-3.6107,-3.6707,-3.7412,-3.8112,-3.8713,-3.8891,-3.9017,-3.9015,-3.7686,-3.6793,-3.6127,-3.4721,-3.3486,-3.235,0.0,0.0,0.0,0.0,0.0,0.0,0.0,0.0,0.0,0.0,0.0,0.0,0.0,0.0,0.0,0.0,0.0,0.0,0.0,0.0,0.0,0.0,0.0,0.0,0.0,0.0,0.0,0.0,0.0,0.0,0.0,0.0,0.0,0.0,0.0,-3.5663,-3.7581,-3.9401,-4.0843,-4.1646,-4.2735,-4.3671,-4.445,-4.4828,-4.5415,-4.6165,-4.6948,-4.7677,-4.8246,-4.8626,-4.9167,-4.998,-5.0417,-5.0824,-5.1231,-5.1828,-5.2126,-5.2126,-5.2343,-5.2366,-5.2247,-5.1982,-5.1683,-5.1262,-5.1107,-5.0567,-4.9845,-4.8908,-4.8213,-4.7735,-4.7554,-4.7192,-4.6853,0.0,0.0,0.0,0.0,0.0,0.0,0.0,0.0,0.0,0.0,-1.6607,-1.7757,-1.8888,-2.0035,-2.1204,-2.2321,-2.352,-2.4503,-2.5173,-2.5911,0.0,0.0,0.0,0.0,-3.237,-3.2419,-3.3454,-3.5533,-3.6132,-3.6732,-3.7262,-3.8366,-3.9045,-3.9347,-3.9906,-4.0236,-4.0465,-3.9702,-3.8415,-3.6822,-3.6274,-3.5238,-3.39,0.0,0.0,0.0,0.0,0.0,0.0,0.0,0.0,0.0,0.0,0.0,0.0,0.0,0.0,0.0,0.0,0.0,0.0,0.0,0.0,0.0,0.0,0.0,0.0,0.0,0.0,0.0,0.0,0.0,0.0,0.0,0.0,0.0,-3.4559,-3.627,-3.8235,-4.0221,-4.1716,-4.3045,-4.4256,-4.5135,-4.6157,-4.735,-4.7486,-4.7703,-4.8219,-4.8273,-4.8815,-5.0037,-5.0064,-5.0634,-5.1796,-5.1855,-5.1882,-5.1882,-5.2479,-5.275,-5.275,-5.3347,-5.3437,-5.3098,-5.3098,-5.273,-5.2173,-5.2111,-5.1924,-5.1544,-5.0394,-4.9524,-4.8974,-4.8938,-4.8567,-4.8008,0.0,0.0,0.0,0.0,0.0,0.0,0.0,0.0,0.0,0.0,-1.7054,-1.8384,-1.8925,-2.0541,-2.1777,-2.2332,-2.3731,-2.4897,-2.5745,0.0,0.0,0.0,0.0,0.0,-3.237,-3.3158,-3.4421,-3.6135,-3.6709,-3.7462,-3.8466,-3.8718,-3.9222,-3.9906,-4.0236,-4.044,-4.0491,-4.0489,-3.985,-3.8812,-3.7434,-3.6295,-3.5338,0.0,0.0,0.0,0.0,0.0,0.0,0.0,0.0,0.0,0.0,0.0,0.0,0.0,0.0,0.0,0.0,0.0,0.0,0.0,0.0,0.0,0.0,0.0,0.0,0.0,0.0,0.0,0.0,0.0,0.0,0.0,0.0,-3.6349,-3.6367,-3.8225,-4.0141,-4.1716,-4.3575,-4.5023,-4.5809,-4.6863,-4.7595,-4.7975,-4.8789,-4.9359,-4.9521,-5.0306,-5.0929,-5.1312,-5.1339,-5.1692,-5.2452,-5.2479,-5.2696,-5.3103,-5.3266,-5.3227,-5.3012,-5.3605,-5.3689,-5.3406,-5.3518,-5.3488,-5.3324,-5.3159,-5.2967,-5.2772,-5.1346,-5.0529,-5.0115,-5.0295,-5.0381,-5.0368,0.0,0.0,0.0,0.0,0.0,0.0,0.0,0.0,0.0,0.0,-1.7226,-1.8486,-1.8758,-2.0588,-2.1894,-2.2171,-2.383,-2.5104,-2.5708,0.0,0.0,0.0,0.0,-3.1641,-3.2881,-3.3829,-3.5093,-3.6591,-3.7213,-3.799,-3.8868,-3.912,-3.9524,-4.0134,-4.0236,-4.044,-4.0643,-4.0694,-4.0514,-4.0077,-3.8785,-3.7606,-3.6586,-3.5846,-3.453,-3.306,-3.2023,-3.0683,-2.9159,-2.8109,0.0,0.0,0.0,0.0,0.0,0.0,0.0,0.0,0.0,0.0,0.0,0.0,0.0,0.0,0.0,0.0,0.0,0.0,0.0,0.0,0.0,0.0,0.0,0.0,-3.7348,-3.8992,-3.9323,-4.0461,-4.2033,-4.3949,-4.5264,-4.6374,-4.7486,-4.8436,-4.9032,-4.9331,-5.0227,-5.077,-5.077,-5.1448,-5.1936,-5.2181,-5.2208,-5.2479,-5.3076,-5.3076,-5.3266,-5.3592,-5.347,-5.3423,-5.3509,-5.3672,-5.369,-5.3641,-5.3768,-5.3734,-5.3605,-5.3438,-5.34,0.0,0.0,0.0,0.0,0.0,-5.1195,-5.1272,0.0,0.0,0.0,0.0,0.0,0.0,0.0,0.0,0.0,0.0,0.0,-1.8251,-1.8446,-2.0291,-2.1616,-2.1847,-2.3772,-2.5127,0.0,0.0,0.0,-2.9664,-3.0747,-3.2019,-3.3514,-3.4279,-3.5371,-3.6773,-3.7591,-3.8316,-3.8919,-3.9446,-3.9826,-4.0083,-4.0083,-4.0389,-4.0795,-4.0593,-4.0643,-4.0844,-4.0053,-3.8934,-3.7574,-3.6563,-3.5774,-3.4913,-3.2775,-3.1902,-3.1432,-2.9376,0.0,0.0,0.0,0.0,0.0,0.0,0.0,0.0,0.0,0.0,0.0,0.0,0.0,0.0,0.0,0.0,0.0,0.0,0.0,0.0,0.0,0.0,0.0,0.0,-3.9694,-4.1807,-4.2753,-4.291,-4.3841,-4.6211,-4.6645,-4.7432,-4.906,-4.9766,-5.0363,-5.096,-5.1584,-5.1936,-5.1936,0.0,0.0,0.0,0.0,-5.3076,-5.3592,-5.3592,-5.3592,-5.3531,-5.3308,-5.342,-5.3868,-5.3717,-5.3721,-5.3877,-5.3892,-5.3815,-5.3583,-5.3583,-5.3518,-5.3453,-5.2945,-5.2528,-5.221,-5.1639,-5.1423,-5.1381,0.0,0.0,0.0,0.0,0.0,0.0,0.0,0.0,0.0,-1.5804,-1.7164,-1.8089,-1.8221,-1.9959,-2.1266,-2.1616,-2.3128,-2.4609,0.0,0.0,-2.8846,-2.9219,-3.0572,-3.1929,-3.3305,-3.3681,-3.4789,-3.6773,-3.7369,-3.8091,-3.8919,-3.9446,-3.9749,-3.98,-3.9981,-4.0185,-4.0287,-4.044,-4.0643,-4.082,-4.0262,-3.9296,-3.8206,-3.7526,-3.6408,-3.5105,-3.4177,-3.3093,-3.186,-3.0788,-2.9934,-2.9088,-2.7755,0.0,0.0,0.0,0.0,0.0,0.0,0.0,0.0,0.0,0.0,0.0,0.0,0.0,0.0,0.0,0.0,0.0,0.0,0.0,0.0,-3.9468,-4.1191,-4.3022,-4.5117,-4.557,-4.5888,-4.6428,-4.7731,-4.8924,-4.9766,-5.0363,-5.0987,-5.1611,-5.2208,-5.2533,-5.2533,-5.2995,-5.332,-5.3429,-5.3429,-5.3483,-5.3592,-5.3592,-5.347,-5.3193,0.0,0.0,-5.3207,-5.4096,-5.434,-5.4119,-5.4616,-5.4825,-5.4759,-5.4759,-5.4426,-5.3788,-5.2796,-5.2256,-5.2153,-5.2018,-5.2226,-5.2535,0.0,0.0,0.0,0.0,0.0,0.0,0.0,0.0,0.0,0.0,-1.6896,-1.7688,-1.7976,-1.9658,-2.0878,-2.1266,-2.3036,0.0,0.0,-2.7496,-2.8703,-2.8962,-3.0477,-3.1896,-3.3073,-3.3594,-3.4676,-3.6407,-3.6826,-3.7568,-3.8717,-3.8992,-3.9318,-3.9697,-3.9826,-3.9981,-4.0134,-4.0236,-4.044,-4.0668,-4.0133,-3.932,-3.8334,-3.7958,-3.6958,-3.574,-3.5052,-3.4057,-3.2955,-3.2127,-3.11,-3.0081,-2.9324,-2.8761,-2.8249,0.0,0.0,0.0,0.0,0.0,0.0,0.0,0.0,0.0,0.0,0.0,0.0,0.0,0.0,-3.459,0.0,0.0,-3.9299,-4.1159,-4.2641,-4.4219,-4.6081,-4.6785,-4.7298,-4.7758,-4.8599,-4.9494,-5.0363,-5.1014,-5.1611,-5.2235,-5.2832,-5.3158,-5.3158,-5.3429,-5.3592,-5.3592,-5.3592,-5.3592,-5.3592,-5.3707,-5.3747,-5.3562,-5.3779,-5.389,-5.3889,-5.4275,-5.4498,-5.468,-5.4968,-5.5099,-5.5099,-5.4872,-5.4469,-5.3945,-5.318,-5.2751,-5.2528,-5.2528,-5.2541,-5.2585,0.0,0.0,0.0,0.0,0.0,0.0,0.0,0.0,0.0,0.0,-1.6648,-1.7315,-1.7657,-1.9204,-2.0461,0.0,0.0,0.0,0.0,-2.685,-2.8173,-2.868,-3.0234,-3.1552,-3.2604,-3.3409,-3.4438,-3.5599,-3.6113,-3.6924,-3.8089,-3.8189,-3.8614,-3.9319,-3.9319,-3.9448,-3.9702,-3.9702,-3.9855,-4.0031,-3.9571,-3.8912,-3.8208,-3.7962,-3.7236,-3.6282,-3.5419,-3.4619,-3.385,-3.2987,-3.1878,-3.083,-3.0668,-3.0205,-2.9612,-2.9518,-2.9169,0.0,0.0,0.0,0.0,0.0,0.0,0.0,0.0,0.0,-3.3913,-3.4785,-3.5696,-3.6811,-3.8399,-3.9562,-4.085,-4.2523,-4.3859,-4.5207,-4.6565,-4.7379,-4.8132,-4.9,-4.9081,-4.9597,-5.0787,-5.1413,-5.2009,-5.2712,-5.326,-5.3592,-5.3592,-5.3592,-5.3592,-5.3592,-5.37,-5.3782,-5.366,-5.4009,-5.4092,-5.3994,-5.3986,-5.422,-5.4629,-5.4472,-5.4654,-5.5099,-5.5099,-5.5032,-5.4939,-5.4578,-5.4174,-5.3861,-5.3546,-5.3204,-5.2929,-5.2929,-5.2723,-5.2377,0.0,0.0,0.0,0.0,0.0,0.0,0.0,0.0,0.0,0.0,0.0,0.0,0.0,0.0,0.0,0.0,0.0,0.0,-2.4486,-2.5656,-2.6899,-2.8398,-2.9253,-3.0303,-3.153,-3.2557,-3.348,-3.4293,-3.5527,-3.6308,-3.6678,-3.7195,-3.7592,-3.7842,-3.7842,-3.7992,-3.824,-3.824,-3.8389,-3.8612,-3.8338,-3.7985,-3.7673,-3.7383,-3.6933,-3.6279,-3.5132,-3.4433,-3.3847,-3.2818,-3.205,-3.1504,-3.1023,-3.0683,-3.0367,-2.9915,0.0,-2.94,-2.9822,-3.0382,-3.0993,-3.183,-3.271,-3.3656,0.0,0.0,-3.6207,-3.6571,-3.7712,-3.872,-3.8908,-4.0491,-4.2174,-4.347,-4.4257,-4.5375,-4.7352,-4.7728,-4.8127,-4.9,-4.9076,-4.9587,-5.0762,-5.1245,-5.1874,-5.3005,-5.3383,-5.3592,-5.3592,-5.3592,-5.3592,-5.3592,-5.4107,-5.4256,-5.3974,-5.4539,-5.4457,-5.3821,-5.4364,-5.4485,-5.4302,-5.4759,-5.5046,-5.5099,-5.5099,-5.4872,-5.4511,-5.4174,-5.3861,-5.3546,-5.3136,-5.2929,-5.2929,-5.2929,-5.2723,-5.2377,0.0,0.0,0.0,0.0,0.0,0.0,0.0,0.0,0.0,0.0,0.0,0.0,0.0,0.0,0.0,0.0,0.0,0.0,-2.3663,-2.5174,-2.6402,-2.73,-2.8475,-2.9646,-3.0743,-3.146,-3.2254,-3.3196,-3.4198,-3.5017,-3.5551,-3.621,-3.6874,-3.7419,-3.7419,-3.7518,-3.7618,-3.7618,-3.7668,-3.7742,-3.727,-3.6798,-3.6372,-3.5978,-3.5459,-3.4984,-3.4998,-3.4251,0.0,0.0,-3.2224,-3.1669,-3.1452,-3.1292,-3.1225,-3.0941,-3.0913,0.0,-3.2081,-3.2524,0.0,0.0,-3.4891,-3.5383,-3.6075,-3.6837,-3.7588,-3.8023,-3.897,-3.9888,-4.0618,-4.1443,-4.2445,0.0,-4.4249,-4.5037,-4.6785,-4.7209,-4.7548,-4.8258,-4.851,-4.9038,-5.0271,-5.0848,-5.1469,-5.2265,-5.2917,-5.3288,-5.3288,-5.347,-5.3754,-5.4107,-5.4167,-5.4278,-5.4504,-5.4714,-5.4622,-5.4325,-5.4708,-5.4865,-5.4733,-5.4994,-5.5099,-5.5099,-5.5099,-5.4872,-5.4511,-5.4106,-5.3793,-5.3478,-5.3067,-5.2929,-5.2929,-5.2929,-5.2515,-5.203,0.0,0.0,0.0,0.0,0.0,0.0,0.0,0.0,0.0,0.0,0.0,0.0,0.0,0.0,0.0,0.0,0.0,0.0,0.0,-2.4296,-2.5545,-2.6237,-2.7502,-2.8634,-2.9533,-3.0308,-3.109,-3.1879,-3.2818,-3.3624,-3.4246,-3.4775,-3.5454,-3.6186,-3.6333,-3.6407,-3.6382,-3.653,-3.6505,-3.6333,-3.5891,-3.5498,-3.5127,-3.4711,-3.4219,-3.3756,-3.4424,-3.3871,0.0,0.0,-3.2184,-3.1717,-3.1717,-3.1717,-3.1717,-3.1761,-3.2079,-3.2651,-3.362,0.0,0.0,-3.6051,-3.6516,-3.6762,-3.734,-3.7977,-3.861,-3.9204,-3.9934,-4.0757,-4.1721,-4.2045,0.0,-4.3889,-4.4106,-4.4619,-4.6167,-4.6663,-4.7077,-4.76,-4.8006,-4.8531,-4.942,-5.0253,-5.1003,-5.1588,-5.2479,-5.2983,-5.2983,-5.345,-5.387,-5.4213,-5.4378,-5.4629,-5.4868,-5.4875,-5.4932,-5.48,-5.5049,-5.5099,-5.5099,-5.5099,-5.5099,-5.5099,-5.5099,-5.4805,-5.4309,-5.4106,-5.3725,-5.3341,-5.2998,-5.2929,-5.2929,-5.2929,-5.2446,-5.182,0.0,0.0,0.0,0.0,0.0,0.0,0.0,0.0,0.0,0.0,0.0,0.0,0.0,0.0,0.0,0.0,0.0,0.0,0.0,-2.2568,-2.3906,-2.5295,-2.6194,-2.7019,-2.7766,-2.9173,-3.008,-3.0399,-3.1623,-3.2347,-3.2583,-3.2606,-3.2888,-3.3449,-3.3956,-3.4143,-3.4142,-3.4637,-3.4563,-3.4093,-3.4093,-3.4068,-3.4044,-3.4044,-3.3518,-3.2848,-3.3146,0.0,0.0,0.0,-3.1849,-3.1717,-3.1717,-3.1717,0.0,-3.1937,-3.27,-3.3518,0.0,0.0,-3.5634,-3.6694,-3.7316,-3.7847,-3.8675,-3.906,-3.9427,-4.0051,-4.0648,-4.1179,-4.1564,-4.2108,-4.2762,-4.3688,-4.3824,-4.4332,-4.5787,-4.6552,-4.7021,-4.7257,-4.7832,-4.8198,0.0,-4.9541,-5.0643,-5.1284,-5.2085,-5.2588,-5.2588,-5.3458,-5.3868,-5.3521,-5.4958,-5.5419,-5.4733,-5.5287,-5.5405,-5.5072,-5.5099,-5.5099,-5.5099,-5.5099,-5.5099,-5.5099,-5.5099,-5.4697,-5.3997,-5.3997,-5.3589,-5.2929,-5.2929,-5.2929,-5.2929,-5.2929,-5.2446,-5.182,0.0,0.0,0.0,0.0,0.0,0.0,0.0,0.0,0.0,0.0,0.0,0.0,0.0,0.0,0.0,0.0,0.0,0.0,0.0,-2.1768,-2.2796,-2.3865,-2.4935,-2.5701,-2.6301,-2.7569,-2.8344,-2.8544,-2.9966,-3.079,-3.1043,-3.1903,-3.2465,-3.277,-3.296,-3.303,-3.3004,-3.3195,-3.3171,-3.3004,-3.3004,-3.2789,-3.243,-3.2141,-3.1642,-3.1029,0.0,0.0,0.0,0.0,0.0,0.0,-3.1717,0.0,-3.1761,-3.2157,-3.2989,-3.3928,0.0,0.0,-3.6541,-3.7746,-3.8174,-3.8425,-3.9015,-3.9114,-3.9231,-3.9779,-4.026,-4.0709,-4.125,-4.1838,-4.2408,-4.2905,-4.3277,-4.3807,-4.4544,-4.5776,-4.6664,-4.6734,-4.7597,0.0,0.0,0.0,0.0,-5.0341,-5.1566,-5.2306,-5.2306,-5.3174,-5.3806,-5.408,-5.4724,-5.514,-5.5314,-5.526,-5.5232,-5.5099,-5.5099,-5.5099,-5.5099,-5.5099,-5.5099,-5.5099,-5.5099,-5.4671,-5.3997,-5.3997,-5.3589,-5.2929,-5.2929,-5.2929,-5.2929,-5.2929,-5.2446,-5.182,0.0,0.0,0.0,0.0,0.0,0.0,0.0,0.0,0.0,0.0,0.0,0.0,0.0,0.0,0.0,0.0,0.0,0.0,0.0,0.0,-2.161,-2.2249,-2.3412,-2.4367,-2.4976,-2.598,-2.6715,-2.7217,-2.8433,-2.915,-2.9398,-3.0331,-3.0859,-3.1065,-3.1251,-3.1319,-3.1293,-3.148,-3.1503,-3.1384,-3.1384,-3.1196,-3.0843,-3.0449,-3.0097,0.0,0.0,0.0,0.0,0.0,0.0,0.0,0.0,-3.1616,-3.2025,-3.2313,-3.3314,-3.4496,0.0,-3.6232,-3.7222,-3.8225,-3.8466,-3.8557,-3.8962,-3.8935,-3.8961,-3.9578,-3.9794,-4.0065,-4.0764,-4.1165,-4.1544,-4.2107,-4.2682,-4.3258,-4.3701,-4.5138,-4.6264,-4.6447,-4.731,0.0,0.0,0.0,0.0,-4.9897,-5.1154,-5.1934,-5.1934,-5.3012,-5.3747,-5.4054,-5.4654,-5.5169,-5.5405,-5.5232,-5.5099,-5.5099,-5.5099,-5.5099,-5.5099,-5.5099,-5.5099,-5.5099,-5.4939,-5.4537,-5.3997,-5.3861,-5.3452,-5.2929,-5.2929,-5.2929,-5.2929,-5.2929,-5.2515,-5.203,0.0,0.0,0.0,0.0,0.0,0.0,0.0,0.0,0.0,0.0,0.0,0.0,0.0,0.0,0.0,0.0,0.0,0.0,0.0,0.0,0.0,-2.0527,-2.181,-2.29,-2.3764,-2.4472,-2.5253,-2.6131,-2.6889,-2.7371,-2.7612,-2.7897,-2.8137,-2.8398,-2.8919,-2.9093,-2.9067,-2.9599,-2.9616,-2.9343,-2.9343,-2.9343,-2.93,-2.9106,0.0,0.0,0.0,0.0,0.0,0.0,0.0,0.0,0.0,0.0,-3.24,-3.24,-3.3695,-3.5175,-3.5442,-3.649,-3.7644,-3.8076,-3.8213,-3.8258,-3.8512,-3.8557,-3.8717,-3.9275,-3.9197,-3.9307,0.0,0.0,-4.0354,-4.1183,-4.2008,-4.2734,-4.3382,-4.4635,-4.5738,0.0,0.0,0.0,0.0,0.0,0.0,-4.9897,0.0,-5.1596,-5.1648,-5.3065,-5.3722,-5.3426,-5.4827,-5.5432,-5.5099,-5.5099,-5.5099,-5.5099,-5.5099,-5.5099,-5.5099,-5.5099,-5.5099,-5.5099,-5.4645,-5.4309,-5.3997,-5.3614,-5.3273,-5.2929,-5.2929,-5.2929,-5.2929,-5.2929,-5.2723,-5.2377,0.0,0.0,0.0,0.0,0.0,0.0,0.0,0.0,0.0,0.0,0.0,0.0,0.0,0.0,0.0,0.0,0.0,0.0,0.0,0.0,0.0,0.0,0.0,0.0,0.0,0.0,0.0,0.0,0.0,-2.5444,-2.6149,-2.6799,-2.7368,-2.7876,-2.8229,-2.836,-2.8334,-2.8513,-2.8491,-2.8421,0.0,-2.8421,-2.8375,0.0,0.0,0.0,0.0,0.0,0.0,0.0,0.0,0.0,0.0,-3.1569,-3.24,-3.24,-3.3803,-3.5398,-3.5487,-3.6625,-3.7828,-3.8122,-3.8213,-3.8213,-3.8304,-3.8167,-3.8083,-3.8011,-3.8143,-3.8342,0.0,0.0,0.0,-4.0106,-4.1004,0.0,-4.2734,-4.3849,0.0,0.0,0.0,-4.7571,-4.812,-4.9218,0.0,0.0,-5.0943,-5.1805,-5.225,-5.3046,-5.3647,-5.3975,-5.4773,-5.5165,-5.5099,-5.5099,-5.5099,-5.5099,-5.5099,-5.5099,-5.5099,-5.5099,-5.5099,-5.5099,-5.4645,-5.4309,-5.3997,-5.3614,-5.3273,-5.2929,-5.2929,-5.2929,-5.2929,-5.2929,-5.2723,-5.2377,0.0,0.0,0.0,0.0,0.0,0.0,0.0,0.0,0.0,0.0,0.0,0.0,0.0,0.0,0.0,0.0,0.0,0.0,0.0,0.0,0.0,0.0,0.0,0.0,0.0,0.0,0.0,0.0,0.0,0.0,0.0,-2.5141,-2.5608,-2.5995,-2.6185,-2.6312,-2.6395,-2.6395,0.0,0.0,0.0,0.0,0.0,0.0,0.0,0.0,0.0,0.0,0.0,0.0,0.0,-3.0138,-3.0635,-3.1525,-3.24,-3.24,0.0,-3.5047,-3.5232,-3.6219,-3.7286,-3.7658,-3.771,-3.771,-3.771,-3.7572,-3.7341,-3.7155,-3.713,0.0,0.0,0.0,0.0,0.0,0.0,0.0,-4.2107,-4.322,-4.4523,0.0,-4.6704,0.0,-4.8094,-4.9218,-4.9897,0.0,-5.0943,-5.1858,-5.2459,-5.306,-5.3635,-5.4184,-5.4785,-5.5099,-5.5099,-5.5099,-5.5099,-5.5099,-5.5099,-5.5099,-5.5099,-5.5099,-5.5032,-5.4805,0.0,-5.4132,-5.3725,-5.341,-5.3136,-5.2929,-5.2929,-5.2929,-5.2929,-5.2929,-5.2792,-5.2585,0.0,0.0,0.0,0.0,0.0,0.0,0.0,0.0,0.0,0.0,0.0,0.0,0.0,0.0,0.0,0.0,0.0,0.0,0.0,0.0,0.0,0.0,0.0,0.0,0.0,0.0,0.0,0.0,0.0,0.0,0.0,0.0,0.0,0.0,0.0,0.0,0.0,0.0,0.0,0.0,0.0,0.0,0.0,0.0,0.0,0.0,0.0,0.0,0.0,0.0,-2.7925,-2.9343,-3.0228,-3.1298,-3.2215,-3.2376,-3.3252,-3.4375,-3.4857,-3.557,-3.6334,-3.6852,-3.6882,-3.6857,-3.6887,-3.665,-3.6413,-3.6294,0.0,-3.5908,-3.6427,0.0,-3.6801,-3.8114,0.0,-4.0077,-4.1552,-4.2672,-4.4002,-4.5788,-4.6304,-4.6917,-4.8068,-4.9218,-4.9897,-4.9897,-5.1004,-5.1946,-5.2653,-5.3176,-5.3752,-5.4354,-5.4837,-5.5099,-5.5099,-5.5099,-5.5099,-5.5099,-5.5099,-5.5099,-5.5099,-5.5099,-5.4872,-5.4511,-5.4174,0.0,-5.3478,-5.3067,-5.2929,-5.2929,-5.2929,-5.2929,-5.2929,-5.2929,-5.2929,-5.2861,0.0,0.0,0.0,0.0,0.0,0.0,0.0,0.0,0.0,0.0,-1.2244,-1.266,0.0,0.0,0.0,0.0,0.0,0.0,0.0,0.0,0.0,0.0,0.0,0.0,0.0,0.0,0.0,0.0,0.0,0.0,0.0,0.0,0.0,0.0,0.0,0.0,0.0,0.0,0.0,0.0,0.0,0.0,0.0,0.0,0.0,0.0,0.0,0.0,0.0,0.0,-2.6761,-2.8449,-2.9579,-3.0486,-3.1312,-3.2166,-3.3121,-3.4054,-3.4331,-3.5028,-3.5744,-3.6334,-3.5922,-3.5511,-3.581,-3.5328,0.0,0.0,0.0,-3.4721,-3.4866,-3.5575,0.0,-3.7267,0.0,0.0,0.0,0.0,-4.3293,0.0,0.0,0.0,0.0,0.0,0.0,0.0,0.0,-5.247,-5.3614,-5.3772,-5.4299,-5.5287,-5.518,-5.5099,-5.5099,-5.5099,-5.5099,-5.5099,-5.5099,-5.5099,-5.5099,-5.5099,-5.4872,-5.4511,-5.4174,0.0,-5.3478,-5.3067,-5.2929,-5.2929,-5.2929,-5.2929,-5.2929,-5.2929,-5.2929,-5.2861,0.0,0.0,0.0,0.0,0.0,0.0,0.0,-1.1069,-1.1475,-1.1418,-1.2004,-1.2428,-1.2428,-1.2523,-1.2727,0.0,0.0,0.0,0.0,0.0,0.0,0.0,0.0,0.0,0.0,0.0,0.0,0.0,0.0,0.0,0.0,0.0,0.0,0.0,0.0,0.0,0.0,0.0,0.0,0.0,0.0,0.0,0.0,0.0,0.0,0.0,0.0,0.0,0.0,0.0,-2.582,-2.6828,-2.8356,-2.9678,-3.0798,-3.1452,-3.2239,-3.3039,-3.3557,-3.4009,-3.4424,-3.4951,-3.4785,-3.4524,-3.4594,0.0,0.0,0.0,0.0,-3.3504,-3.3839,0.0,0.0,0.0,0.0,0.0,0.0,0.0,0.0,0.0,0.0,0.0,0.0,0.0,0.0,0.0,0.0,-5.2648,-5.3836,-5.4469,-5.505,-5.5604,-5.5299,-5.5099,-5.5099,-5.5099,-5.5099,-5.5099,-5.5099,-5.5099,-5.5099,-5.4872,-5.4604,-5.4241,-5.3861,0.0,-5.3204,-5.2998,-5.2929,-5.2929,-5.2929,-5.2929,-5.2929,-5.2929,-5.2929,-5.2861,0.0,0.0,0.0,0.0,0.0,0.0,0.0,-1.1069,-1.1447,-1.1321,-1.1855,-1.2243,-1.2212,-1.2151,-1.2258,0.0,0.0,0.0,0.0,0.0,0.0,0.0,0.0,0.0,0.0,0.0,0.0,0.0,0.0,0.0,0.0,0.0,0.0,0.0,0.0,0.0,0.0,0.0,0.0,0.0,0.0,0.0,0.0,0.0,0.0,0.0,0.0,0.0,0.0,0.0,-2.4827,-2.5376,-2.6896,-2.8588,-3.0052,-3.0592,-3.1187,-3.1865,-3.2645,-3.2881,-3.3003,-3.3518,-3.3567,-3.3427,-3.3366,-3.3017,0.0,0.0,0.0,-3.23,0.0,0.0,0.0,0.0,0.0,0.0,0.0,0.0,0.0,0.0,0.0,0.0,0.0,0.0,0.0,0.0,0.0,0.0,-5.4092,-5.5101,-5.5736,-5.5736,-5.5299,-5.5099,-5.5099,-5.5099,-5.5099,-5.5099,-5.5099,-5.5099,-5.5099,-5.4645,-5.4309,-5.3997,-5.3682,0.0,0.0,-5.2929,-5.2929,-5.2929,-5.2929,-5.2929,-5.2929,-5.2929,-5.2929,-5.2929,0.0,0.0,0.0,0.0,0.0,0.0,0.0,-1.1069,-1.1447,-1.1321,-1.1781,-1.2058,-1.1872,-1.1996,-1.2104,0.0,0.0,0.0,0.0,0.0,0.0,0.0,0.0,0.0,0.0,0.0,0.0,0.0,0.0,0.0,0.0,0.0,0.0,0.0,0.0,0.0,0.0,0.0,0.0,0.0,0.0,0.0,0.0,0.0,0.0,0.0,0.0,0.0,0.0,0.0,0.0,-2.4981,-2.5355,-2.6723,-2.8499,-2.9859,0.0,0.0,-3.1645,-3.1834,-3.1954,-3.2485,-3.2064,-3.1669,-3.2146,0.0,0.0,0.0,-3.0813,-3.1135,0.0,0.0,0.0,0.0,0.0,0.0,0.0,0.0,0.0,0.0,0.0,0.0,0.0,0.0,0.0,0.0,0.0,0.0,-5.4817,-5.5622,-5.6066,-5.6066,-5.5432,-5.5099,-5.5099,-5.5099,-5.5099,-5.5099,-5.5099,-5.5099,-5.5099,-5.4645,-5.4309,-5.3997,-5.3682,0.0,0.0,-5.2929,-5.2929,-5.2929,-5.2929,-5.2929,-5.2929,-5.2929,-5.2929,-5.2929,0.0,0.0,0.0,0.0,0.0,0.0,-1.0496,-1.1069,-1.1418,-1.1151,-1.1676,-1.1996,-1.1716,-1.1747,-1.184,-1.1903,0.0,0.0,0.0,0.0,0.0,0.0,0.0,0.0,0.0,0.0,0.0,0.0,0.0,0.0,0.0,0.0,0.0,0.0,0.0,0.0,0.0,0.0,0.0,0.0,0.0,0.0,0.0,0.0,0.0,0.0,0.0,0.0,0.0,0.0,0.0,0.0,-2.4358,-2.5302,0.0,0.0,-2.8942,-2.9462,-3.0349,-3.0623,-3.0764,-3.1418,-3.1236,-3.0894,-3.0924,0.0,0.0,-2.9806,-2.9965,-3.0237,-3.0672,0.0,0.0,0.0,0.0,0.0,0.0,0.0,0.0,0.0,0.0,0.0,0.0,0.0,0.0,0.0,0.0,0.0,-5.5222,-5.5751,-5.6132,-5.6132,-5.5432,-5.5099,-5.5099,-5.5099,-5.5099,-5.5099,-5.5099,-5.5099,-5.5099,-5.4469,-5.4106,-5.3997,-5.341,0.0,0.0,-5.2929,-5.2929,-5.2929,-5.2929,-5.2929,-5.2929,-5.2929,-5.2929,-5.2929,0.0,0.0,0.0,0.0,0.0,-1.0528,-1.0639,-1.1149,-1.145,-1.1245,-1.1737,-1.1996,-1.1685,-1.1622,-1.1654,-1.1747,-1.1747,0.0,0.0,0.0,0.0,0.0,0.0,0.0,0.0,0.0,-1.5354,-1.5839,-1.6406,0.0,0.0,0.0,0.0,0.0,0.0,0.0,0.0,0.0,0.0,0.0,0.0,0.0,0.0,0.0,0.0,0.0,0.0,0.0,0.0,0.0,0.0,0.0,0.0,0.0,0.0,0.0,-2.7642,-2.8198,-2.9114,-2.9362,-2.9475,-3.0022,-3.0074,-3.0009,0.0,0.0,0.0,-2.9393,-2.9393,-2.9596,-3.0369,0.0,0.0,-3.3334,0.0,-3.6702,0.0,0.0,0.0,0.0,0.0,0.0,0.0,0.0,0.0,0.0,0.0,0.0,0.0,-5.5816,-5.6132,-5.6132,-5.5432,-5.5099,-5.5099,-5.5099,-5.5099,-5.5099,-5.5099,-5.5099,-5.5099,-5.4335,-5.3997,-5.3997,-5.3204,0.0,0.0,-5.2929,-5.2929,-5.2929,-5.2929,-5.2929,-5.2929,-5.2929,-5.2929,-5.2929,0.0,0.0,0.0,0.0,0.0,0.0,-1.0947,-1.1281,-1.1557,-1.1774,-1.1966,-1.2027,-1.184,-1.1685,-1.1591,-1.1591,-1.1591,0.0,0.0,0.0,0.0,0.0,0.0,0.0,0.0,0.0,-1.4854,-1.5231,-1.5821,-1.6388,-1.6907,0.0,0.0,0.0,0.0,0.0,0.0,0.0,0.0,0.0,0.0,0.0,0.0,0.0,0.0,0.0,0.0,0.0,0.0,0.0,0.0,0.0,0.0,0.0,0.0,0.0,-2.682,-2.7167,-2.7917,-2.8139,-2.8139,-2.8139,-2.8477,-2.8836,0.0,0.0,0.0,-2.9071,-2.9071,-2.9318,-3.018,-3.0911,-3.2002,-3.3801,0.0,0.0,0.0,0.0,0.0,0.0,0.0,0.0,0.0,0.0,0.0,0.0,0.0,0.0,0.0,-5.5816,-5.6132,-5.6132,-5.5432,-5.5099,-5.5099,-5.5099,-5.5099,-5.5099,-5.5099,-5.5099,-5.5099,-5.4335,-5.3997,0.0,0.0,0.0,0.0,-5.2929,-5.2929,-5.2929,-5.2929,-5.2929,-5.2929,-5.2929,-5.2929,-5.2929,0.0,0.0,0.0,0.0,0.0,0.0,0.0,-1.1487,-1.1842,-1.1805,-1.1966,-1.2027,-1.184,-1.1685,-1.1591,-1.1591,-1.1591,0.0,0.0,0.0,0.0,0.0,0.0,0.0,0.0,0.0,-1.42,-1.4646,-1.5495,-1.6236,-1.6907,-1.7305,-1.7666,0.0,0.0,0.0,0.0,0.0,0.0,0.0,0.0,0.0,0.0,0.0,0.0,0.0,0.0,0.0,0.0,0.0,0.0,0.0,0.0,0.0,0.0,-2.4367,0.0,0.0,-2.6693,-2.6954,-2.7215,-2.7721,-2.7921,-2.8144,-2.8455,0.0,-2.8444,-2.8819,-2.8978,-2.9318,-3.018,-3.1054,-3.2195,0.0,0.0,0.0,0.0,0.0,0.0,0.0,0.0,0.0,0.0,0.0,0.0,0.0,0.0,0.0,0.0,-5.6095,-5.6132,-5.6132,-5.5432,-5.5099,-5.5099,-5.5099,-5.5099,-5.5099,-5.5099,-5.5099,-5.5099,-5.4335,-5.3997,0.0,0.0,0.0,0.0,-5.2929,-5.2929,-5.2929,-5.2929,-5.2929,-5.2929,-5.2929,-5.2929,-5.2929,0.0,0.0,0.0,0.0,0.0,0.0,0.0,-1.1741,-1.2,-1.2082,-1.2119,-1.2058,-1.1934,-1.1716,-1.1591,-1.1591,-1.1591,0.0,0.0,0.0,0.0,0.0,0.0,0.0,-1.2797,-1.3163,-1.359,-1.4039,-1.508,-1.59,-1.6562,-1.7196,-1.7666,-1.8008,-1.8008,0.0,0.0,0.0,0.0,0.0,0.0,0.0,-1.8047,0.0,0.0,0.0,0.0,0.0,0.0,0.0,0.0,0.0,0.0,0.0,0.0,0.0,-2.395,0.0,0.0,-2.598,-2.6216,-2.6779,-2.7063,0.0,0.0,0.0,-2.8178,-2.8797,-2.9179,-2.9653,-3.0544,-3.147,0.0,0.0,0.0,0.0,0.0,0.0,0.0,0.0,0.0,0.0,0.0,0.0,0.0,0.0,0.0,0.0,0.0,-5.6072,-5.6066,-5.5934,-5.5365,-5.5099,-5.5099,-5.5099,-5.5099,-5.5099,-5.5099,-5.5099,-5.5099,-5.4335,-5.3997,0.0,0.0,0.0,0.0,-5.2929,-5.2929,-5.2929,-5.2929,-5.2998,-5.3136,-5.3136,-5.3204,-5.3316,0.0,0.0,0.0,0.0,0.0,0.0,0.0,-1.2014,-1.217,-1.2551,-1.2321,-1.2089,-1.2089,-1.1809,-1.1591,-1.1591,0.0,0.0,0.0,0.0,0.0,0.0,0.0,0.0,-1.2767,-1.292,-1.3164,-1.3511,-1.4632,-1.5472,-1.6051,-1.7029,-1.7666,-1.8008,-1.8008,-1.8008,0.0,0.0,0.0,0.0,0.0,0.0,0.0,0.0,0.0,0.0,0.0,0.0,0.0,0.0,0.0,0.0,0.0,0.0,0.0,0.0,0.0,0.0,0.0,-2.5126,0.0,0.0,0.0,0.0,0.0,0.0,0.0,-2.8936,-2.9562,-3.0239,-3.1233,0.0,0.0,0.0,0.0,0.0,0.0,0.0,0.0,0.0,0.0,0.0,0.0,0.0,0.0,0.0,0.0,0.0,0.0,-5.6034,-5.5934,-5.5604,-5.5299,-5.5099,-5.5099,-5.5099,-5.5099,-5.5099,-5.5099,-5.5099,-5.5099,-5.4335,-5.3997,0.0,0.0,0.0,0.0,-5.2929,-5.2929,-5.2929,-5.2929,-5.3204,-5.3478,-5.3546,-5.3725,-5.3997,0.0,0.0,0.0,0.0,0.0,0.0,0.0,0.0,0.0,0.0,-1.2321,-1.2089,-1.2089,-1.1809,-1.1591,0.0,0.0,0.0,0.0,0.0,0.0,0.0,0.0,0.0,-1.266,-1.2858,-1.3164,-1.3511,-1.4632,-1.5537,-1.6179,-1.7063,-1.7666,-1.8008,-1.8008,-1.8008,0.0,0.0,0.0,0.0,0.0,0.0,0.0,0.0,0.0,0.0,-1.8461,-1.8906,0.0,0.0,0.0,0.0,0.0,0.0,0.0,0.0,-2.2734,-2.3494,-2.4075,0.0,-2.502,-2.5253,-2.5508,-2.6044,0.0,0.0,-2.801,-2.8916,0.0,0.0,0.0,0.0,0.0,0.0,0.0,0.0,0.0,0.0,0.0,0.0,0.0,0.0,0.0,0.0,0.0,0.0,0.0,0.0,0.0,-5.6248,-5.5934,-5.5604,-5.5299,-5.5099,-5.5099,-5.5099,-5.5099,-5.5099,-5.5099,-5.5099,-5.5099,-5.4335,-5.3997,0.0,0.0,0.0,-5.2929,-5.2929,-5.2929,-5.2929,-5.3273,-5.341,-5.3546,-5.3793,-5.3929,-5.3997,0.0,0.0,0.0,0.0,0.0,0.0,0.0,0.0,0.0,0.0,0.0,0.0,0.0,0.0,0.0,0.0,0.0,0.0,0.0,0.0,0.0,0.0,0.0,-1.2243,-1.2598,-1.2858,-1.3216,-1.3692,-1.4687,-1.5595,-1.6397,-1.7158,-1.7666,-1.8008,-1.8008,-1.8008,0.0,0.0,0.0,0.0,-1.8008,0.0,0.0,0.0,0.0,0.0,-1.8227,-1.875,0.0,-1.9551,-2.0134,-2.078,0.0,0.0,0.0,0.0,-2.2587,-2.3408,-2.3658,-2.4284,-2.4956,-2.5147,-2.5551,-2.6216,-2.7239,0.0,0.0,0.0,0.0,0.0,0.0,0.0,0.0,0.0,0.0,0.0,0.0,0.0,0.0,0.0,0.0,0.0,0.0,0.0,0.0,0.0,0.0,0.0,0.0,-5.6066,-5.5736,-5.5365,-5.5165,-5.5099,-5.5099,-5.5099,-5.5099,-5.5099,-5.5099,-5.5099,-5.5099,-5.4335,-5.3997,0.0,0.0,0.0,-5.2929,-5.2929,-5.2998,-5.3204,-5.341,-5.3682,-5.3997,-5.4174,-5.4335,-5.4469,0.0,0.0,0.0,0.0,0.0,0.0,0.0,0.0,0.0,0.0,0.0,0.0,0.0,0.0,0.0,0.0,0.0,0.0,0.0,0.0,0.0,0.0,0.0,-1.2274,-1.2629,-1.2858,-1.3316,-1.3967,-1.4792,-1.5704,-1.6655,-1.7237,-1.7666,-1.8008,-1.8008,-1.8008,0.0,0.0,0.0,0.0,-1.8008,0.0,0.0,0.0,0.0,0.0,0.0,0.0,0.0,-1.9429,-2.011,-2.0955,-2.0994,0.0,0.0,0.0,0.0,0.0,-2.3547,-2.4302,-2.5084,-2.5253,-2.583,-2.6606,-2.759,0.0,0.0,0.0,0.0,0.0,0.0,0.0,0.0,0.0,0.0,0.0,0.0,0.0,0.0,0.0,0.0,0.0,0.0,0.0,0.0,0.0,0.0,0.0,0.0,-5.5802,-5.5432,-5.5099,-5.5099,-5.5099,-5.5099,-5.5099,-5.5099,-5.5099,-5.5099,-5.5099,-5.5099,-5.4402,-5.4064,-5.4064,0.0,0.0,-5.3067,-5.3067,-5.3273,-5.3614,-5.3614,-5.3997,-5.4511,-5.4578,-5.4805,-5.5099,0.0,0.0,0.0,0.0,0.0,0.0,0.0,0.0,0.0,0.0,0.0,0.0,0.0,0.0,0.0,0.0,0.0,0.0,0.0,0.0,0.0,-1.2274,-1.2274,-1.2428,-1.2783,-1.292,-1.3439,-1.4327,-1.4921,-1.5787,-1.6874,-1.7305,-1.7666,-1.8008,-1.8008,-1.8008,-1.8008,-1.8008,-1.8008,-1.8008,-1.8008,0.0,0.0,0.0,0.0,0.0,0.0,0.0,0.0,-1.9947,-2.0536,-2.1167,-2.1359,0.0,0.0,0.0,0.0,0.0,-2.3708,-2.4714,-2.578,-2.578,-2.6171,-2.6844,-2.8004,0.0,0.0,0.0,0.0,0.0,0.0,0.0,0.0,0.0,0.0,0.0,0.0,0.0,0.0,0.0,0.0,0.0,0.0,0.0,0.0,0.0,0.0,0.0,0.0,-5.5802,-5.5432,-5.5099,-5.5099,-5.5099,-5.5099,-5.5099,-5.5099,-5.5099,-5.5099,-5.5099,-5.5099,-5.4645,-5.4443,-5.4376,0.0,-5.3861,-5.3861,-5.3861,-5.3861,-5.3929,-5.4241,-5.4443,-5.4578,-5.4872,-5.5032,-5.5099,0.0,0.0,0.0,0.0,0.0,0.0,0.0,0.0,0.0,0.0,0.0,0.0,0.0,0.0,0.0,0.0,0.0,0.0,0.0,0.0,-1.2243,-1.2305,-1.2459,-1.2644,-1.2797,-1.292,-1.3571,-1.4722,-1.5027,-1.5896,-1.7229,-1.759,-1.7837,-1.8008,-1.811,-1.8178,-1.8178,-1.8245,-1.8279,-1.8279,0.0,0.0,0.0,0.0,0.0,0.0,0.0,0.0,0.0,0.0,-2.0843,-2.1397,-2.1474,0.0,0.0,0.0,0.0,0.0,-2.4126,-2.5123,-2.6223,-2.6844,-2.7334,-2.7805,-2.8781,0.0,0.0,0.0,0.0,0.0,0.0,0.0,0.0,0.0,0.0,0.0,0.0,0.0,0.0,0.0,0.0,0.0,0.0,0.0,0.0,0.0,0.0,0.0,0.0,0.0,-5.5232,-5.5099,-5.5099,-5.5099,-5.5099,-5.5099,-5.5099,-5.5099,-5.5099,-5.5099,-5.5099,-5.4645,-5.4511,-5.4511,0.0,-5.3997,-5.3997,-5.3997,-5.4106,-5.4309,-5.4443,-5.4645,-5.4872,-5.5032,-5.5099,-5.5099,0.0,0.0,0.0,0.0,0.0,0.0,0.0,0.0,0.0,0.0,0.0,0.0,0.0,0.0,0.0,0.0,0.0,0.0,0.0,0.0,-1.2367,-1.2367,-1.2644,-1.2797,-1.2844,-1.2981,-1.3718,-1.505,-1.5148,-1.5987,-1.7514,-1.7837,-1.8042,-1.8076,-1.8245,-1.8313,-1.8347,-1.8448,-1.8516,-1.8536,0.0,0.0,0.0,0.0,0.0,0.0,0.0,0.0,0.0,0.0,0.0,0.0,0.0,0.0,0.0,-2.2416,-2.3341,-2.4346,-2.4693,-2.5684,-2.6883,-2.797,-2.8362,-2.8754,-2.979,-3.1149,0.0,0.0,0.0,0.0,0.0,0.0,0.0,0.0,0.0,0.0,0.0,0.0,0.0,0.0,0.0,0.0,0.0,0.0,0.0,0.0,0.0,0.0,0.0,0.0,-5.5099,-5.5099,-5.5099,-5.5099,-5.5099,-5.5099,-5.5099,-5.5099,-5.5099,-5.5099,-5.5099,-5.4805,-5.4645,-5.4645,-5.4402,-5.4267,-5.4267,-5.4267,-5.4402,-5.4645,-5.4645,-5.4805,-5.5099,-5.5099,-5.5099,-5.5099,0.0,0.0,0.0,0.0,0.0,0.0,0.0,0.0,0.0,0.0,0.0,0.0,0.0,0.0,0.0,0.0,0.0,0.0,0.0,0.0,-1.2598,-1.2598,-1.2721,-1.2858,-1.2981,-1.318,-1.3905,-1.518,-1.518,-1.5987,-1.7514,-1.7837,-1.811,-1.8279,-1.8293,-1.8381,-1.8482,-1.8516,-1.8516,-1.8556,-1.8978,0.0,0.0,0.0,0.0,0.0,0.0,0.0,0.0,0.0,0.0,0.0,0.0,0.0,-2.2563,-2.3411,-2.4067,-2.4671,-2.5472,-2.6794,-2.8035,-2.8816,-2.8915,0.0,-3.1097,-3.2373,0.0,-3.5441,0.0,0.0,0.0,0.0,0.0,0.0,0.0,0.0,0.0,0.0,0.0,0.0,0.0,0.0,0.0,0.0,0.0,0.0,0.0,0.0,0.0,0.0,0.0,-5.5099,-5.5099,-5.5099,-5.5099,-5.5099,-5.5099,-5.5099,-5.5099,-5.5099,-5.5099,-5.5099,-5.5032,-5.5032,-5.5032,-5.5032,-5.5032,-5.5032,-5.5032,-5.5032,-5.5032,-5.5099,-5.5099,-5.5099,-5.5099,-5.5099,0.0,0.0,0.0,0.0,0.0,0.0,0.0,0.0,0.0,0.0,0.0,0.0,0.0,0.0,0.0,0.0,0.0,0.0,0.0,-1.2598,-1.266,-1.2721,-1.2858,-1.3028,-1.318,-1.3272,-1.3905,-1.518,-1.6178,-1.6921,-1.7514,-1.7837,-1.811,-1.8313,-1.8381,-1.8656,-1.9123,-1.926,-1.9459,-1.969,-1.9853,-1.9935,0.0,0.0,0.0,0.0,0.0,0.0,0.0,0.0,-2.2063,-2.2289,0.0,-2.2515,-2.2901,-2.3607,-2.4282,-2.5066,-2.5995,-2.7185,-2.8417,-2.9479,-3.0396,0.0,0.0,-3.3949,-3.5481,-3.6329,-3.8125,0.0,0.0,0.0,0.0,0.0,0.0,0.0,0.0,0.0,0.0,0.0,0.0,0.0,0.0,0.0,0.0,0.0,0.0,0.0,0.0,0.0,-5.5299,-5.5099,-5.5099,-5.5099,-5.5099,-5.5099,-5.5099,-5.5099,-5.5099,-5.5099,-5.5099,-5.5099,-5.5099,-5.5099,-5.5099,-5.5099,-5.5099,-5.5099,-5.5099,-5.5099,-5.5099,-5.5099,-5.5099,-5.5099,-5.5099,-5.5099,0.0,0.0,0.0,0.0,0.0,0.0,0.0,0.0,0.0,0.0,0.0,0.0,0.0,0.0,0.0,0.0,0.0,0.0,-1.266,-1.266,-1.2721,-1.2858,-1.3011,-1.315,-1.3302,-1.3512,-1.4167,-1.518,-1.676,-1.7495,-1.7495,-1.7906,-1.8178,-1.8381,-1.869,-1.9103,-1.9596,-1.9879,-2.0176,-2.0502,-2.0648,-2.0746,0.0,0.0,0.0,0.0,0.0,0.0,0.0,0.0,-2.2327,0.0,0.0,0.0,0.0,-2.4116,-2.4876,-2.5769,-2.6789,-2.7964,-2.9201,-3.0525,0.0,0.0,-3.434,-3.5575,-3.6742,-3.7522,-3.9933,0.0,0.0,0.0,0.0,0.0,0.0,0.0,0.0,0.0,0.0,0.0,0.0,0.0,0.0,0.0,0.0,0.0,0.0,0.0,0.0,-5.5802,-5.5432,-5.5099,-5.5099,-5.5099,-5.5099,-5.5099,-5.5099,-5.5099,-5.5099,-5.5099,-5.5099,-5.5099,-5.5099,-5.5099,-5.5099,-5.5099,-5.5099,-5.5099,-5.5099,-5.5099,-5.5099,-5.5099,-5.5099,-5.5099,-5.5099,-5.5099,0.0,0.0,0.0,0.0,0.0,0.0,0.0,0.0,0.0,0.0,0.0,0.0,0.0,0.0,0.0,0.0,0.0,0.0,-1.2797,-1.2797,-1.2858,-1.2981,-1.318,-1.3302,-1.3302,-1.4015,-1.4681,-1.5231,-1.676,-1.7495,-1.7514,-1.8076,-1.8381,-1.8536,-1.9219,-1.963,-1.9844,-2.0245,-2.0538,-2.0757,-2.1219,-2.1518,-2.1743,0.0,0.0,0.0,0.0,0.0,0.0,0.0,-2.2553,-2.274,0.0,0.0,0.0,-2.5154,-2.5926,-2.676,-2.7957,-2.9219,0.0,0.0,0.0,0.0,-3.7057,-3.7155,-3.7373,-3.9268,0.0,0.0,0.0,0.0,0.0,0.0,0.0,0.0,0.0,0.0,0.0,0.0,0.0,0.0,0.0,0.0,0.0,0.0,0.0,0.0,0.0,-5.5802,-5.5432,-5.5099,-5.5099,-5.5099,-5.5099,-5.5099,-5.5099,-5.5099,-5.5099,-5.5099,-5.5099,-5.5099,-5.5099,-5.5099,-5.5099,-5.5099,-5.5099,-5.5099,-5.5099,-5.5099,-5.5099,-5.5099,-5.5099,-5.5099,-5.5099,-5.5099,0.0,0.0,0.0,0.0,0.0,0.0,0.0,0.0,0.0,0.0,0.0,0.0,0.0,0.0,0.0,0.0,0.0,0.0,-1.2797,-1.2905,-1.3028,-1.3211,-1.3272,-1.3424,-1.3649,-1.4729,-1.5522,-1.5969,-1.6992,-1.7598,-1.7891,-1.8493,-1.8943,-1.9239,-1.9897,-2.0466,-2.0937,-2.1207,-2.1533,-2.1924,-2.2052,-2.2152,-2.2211,0.0,0.0,0.0,0.0,0.0,0.0,0.0,0.0,0.0,0.0,0.0,0.0,-2.5874,-2.6691,-2.7545,-2.8692,-3.023,0.0,0.0,0.0,0.0,0.0,-3.8288,0.0,0.0,0.0,0.0,0.0,0.0,0.0,0.0,0.0,0.0,0.0,0.0,0.0,0.0,0.0,0.0,0.0,0.0,0.0,0.0,0.0,0.0,0.0,-5.6,-5.567,-5.5099,-5.5099,-5.5099,-5.5099,-5.5099,-5.5099,-5.5099,-5.468,-5.468,-5.5099,-5.5099,-5.5099,-5.5099,-5.5099,-5.5099,-5.5099,-5.5099,-5.5099,-5.5099,-5.5099,-5.5099,-5.5099,-5.5099,-5.5099,-5.5099,0.0,0.0,0.0,0.0,0.0,0.0,0.0,0.0,0.0,0.0,0.0,0.0,0.0,0.0,0.0,0.0,0.0,0.0,0.0,-1.3089,-1.3211,-1.3376,-1.3454,-1.3804,-1.4471,-1.5428,-1.6219,-1.6779,-1.7396,-1.7803,-1.8027,-1.8839,-1.9353,-1.9651,-2.0502,-2.112,-2.1518,-2.1855,-2.2184,-2.2515,-2.2515,-2.2553,-2.2628,0.0,0.0,0.0,0.0,0.0,0.0,0.0,0.0,0.0,0.0,0.0,0.0,-2.6368,-2.7358,-2.8362,-2.9337,0.0,0.0,0.0,0.0,0.0,0.0,0.0,0.0,0.0,0.0,0.0,0.0,0.0,0.0,0.0,0.0,0.0,0.0,0.0,0.0,0.0,0.0,0.0,0.0,0.0,0.0,0.0,0.0,0.0,0.0,-5.6132,-5.5696,-5.4759,-5.4733,-5.4654,-5.4419,-5.4419,-5.4419,-5.4419,-5.4053,-5.4079,-5.4419,-5.4419,-5.4419,-5.4445,-5.4668,-5.4747,-5.4773,-5.4994,-5.5099,-5.5099,-5.5099,-5.5099,-5.5099,-5.5099,-5.5099,-5.5099,0.0,0.0,0.0,0.0,0.0,0.0,0.0,0.0,0.0,0.0,-1.1467,0.0,0.0,0.0,0.0,0.0,0.0,0.0,0.0,0.0,-1.3393,-1.3511,-1.3774,-1.4418,-1.5468,-1.6083,-1.6756,-1.7529,-1.7837,-1.8027,-1.8154,-1.9142,-1.9712,-1.9983,-2.1036,-2.1618,-2.1859,-2.2286,-2.259,-2.2777,-2.2821,-2.2955,-2.3141,-2.3185,0.0,0.0,0.0,0.0,0.0,0.0,0.0,0.0,0.0,0.0,-2.6615,-2.6906,-2.7968,-2.9278,0.0,0.0,0.0,0.0,0.0,0.0,0.0,0.0,0.0,0.0,0.0,0.0,0.0,0.0,0.0,0.0,0.0,0.0,0.0,0.0,0.0,0.0,0.0,0.0,0.0,0.0,0.0,0.0,0.0,0.0,0.0,-5.5972,-5.5379,-5.4158,-5.4131,-5.3896,-5.34,-5.34,-5.34,-5.34,-5.3347,-5.3321,-5.3321,-5.3373,-5.34,-5.3452,-5.3909,-5.4158,-5.421,-5.4707,-5.4927,-5.4953,-5.4994,-5.502,-5.5006,-5.5099,-5.5099,-5.5099,0.0,0.0,0.0,0.0,0.0,0.0,0.0,0.0,0.0,0.0,0.0,0.0,0.0,0.0,0.0,0.0,0.0,0.0,0.0,0.0,-1.3709,-1.3739,-1.4342,-1.4984,-1.5647,-1.6398,-1.7145,-1.7906,-1.7974,-1.8321,-1.8954,-1.9833,-2.0564,-2.1099,-2.1998,-2.2552,-2.2737,-2.2995,-2.3224,-2.3431,-2.3869,-2.4062,-2.4145,-2.4486,-2.4642,0.0,0.0,0.0,0.0,0.0,0.0,0.0,-2.5853,-2.6342,-2.6953,-2.8011,-2.9041,-3.0079,0.0,0.0,0.0,0.0,0.0,0.0,0.0,0.0,0.0,0.0,0.0,0.0,0.0,0.0,0.0,0.0,0.0,0.0,0.0,0.0,0.0,0.0,0.0,0.0,0.0,0.0,0.0,0.0,0.0,0.0,-5.481,-5.4746,-5.4399,-5.3583,-5.3556,-5.3504,-5.34,-5.34,-5.34,0.0,-5.2929,-5.2694,-5.2694,-5.3191,-5.3413,-5.3374,-5.3544,-5.357,-5.357,-5.37,-5.3791,-5.3808,-5.4223,-5.4406,-5.4478,-5.4953,-5.5099,-5.5099,0.0,0.0,0.0,0.0,0.0,0.0,0.0,0.0,0.0,0.0,0.0,0.0,0.0,0.0,0.0,0.0,0.0,0.0,0.0,0.0,-1.4068,-1.4398,-1.4979,-1.5601,-1.6253,-1.703,-1.7625,-1.8008,-1.858,-1.9075,-1.9512,-2.0487,-2.125,-2.1867,-2.2799,-2.3388,-2.3689,-2.4009,-2.4234,-2.4332,-2.4617,-2.4729,-2.4752,-2.5021,-2.5111,-2.5111,-2.5111,0.0,0.0,0.0,0.0,0.0,0.0,0.0,-2.7968,-2.8657,-2.9678,-3.0822,0.0,0.0,0.0,0.0,0.0,0.0,0.0,0.0,0.0,0.0,0.0,0.0,0.0,0.0,0.0,0.0,0.0,0.0,0.0,0.0,0.0,0.0,0.0,0.0,0.0,0.0,0.0,0.0,0.0,-5.5096,-5.4437,-5.4373,-5.3948,-5.2981,-5.2955,-5.2825,-5.2537,-5.2537,-5.2537,-5.2537,-5.2223,-5.2067,-5.2067,-5.238,-5.2526,-5.2566,-5.2825,-5.2941,-5.3005,-5.3286,-5.3369,-5.3464,-5.3704,-5.3971,-5.4223,-5.4559,-5.4861,-5.5099,0.0,0.0,0.0,0.0,0.0,0.0,0.0,0.0,0.0,0.0,0.0,0.0,0.0,0.0,0.0,0.0,0.0,0.0,0.0,0.0,0.0,-1.5155,-1.5647,-1.6267,-1.6968,-1.7658,-1.8115,-1.833,-1.939,-2.0018,-2.0261,-2.1159,-2.1932,-2.2601,-2.3501,-2.4149,-2.4603,-2.4992,-2.515,-2.5211,-2.5279,-2.5363,-2.5424,-2.5583,-2.569,-2.5752,-2.578,-2.5944,-2.6171,-2.6582,0.0,0.0,0.0,0.0,-2.9148,-2.9284,-3.0314,-3.1571,0.0,0.0,0.0,0.0,0.0,0.0,0.0,0.0,0.0,0.0,0.0,0.0,0.0,0.0,0.0,0.0,0.0,0.0,0.0,0.0,0.0,0.0,0.0,0.0,0.0,0.0,0.0,0.0,0.0,-5.4772,-5.4143,-5.408,-5.3525,-5.2354,-5.2328,-5.2093,-5.1596,-5.1596,-5.1596,-5.1596,-5.1596,-5.1596,-5.1596,-5.1596,-5.1596,-5.1622,-5.2145,-5.2375,-5.2375,-5.2863,-5.3094,-5.3094,-5.3209,-5.3588,-5.4062,-5.4157,-5.4586,-5.5099,0.0,0.0,0.0,0.0,0.0,0.0,0.0,0.0,0.0,0.0,0.0,0.0,0.0,0.0,0.0,0.0,0.0,0.0,0.0,0.0,0.0,-1.5524,-1.6311,-1.693,-1.7311,-1.7793,-1.8492,-1.9562,-2.0141,-2.0948,0.0,0.0,-2.268,-2.3601,-2.4113,-2.4693,-2.5254,-2.5322,-2.5483,-2.5661,-2.6119,-2.6398,-2.6672,-2.7527,-2.804,-2.8275,-2.8696,-2.886,-2.886,-2.893,-2.8996,0.0,0.0,0.0,-2.9833,-3.0457,-3.1374,0.0,0.0,0.0,0.0,0.0,0.0,0.0,0.0,0.0,0.0,0.0,0.0,0.0,0.0,0.0,0.0,0.0,0.0,0.0,0.0,0.0,0.0,0.0,0.0,0.0,0.0,0.0,0.0,0.0,-5.3836,-5.3531,-5.289,-5.2828,-5.2492,-5.1727,-5.1727,-5.1675,-5.1596,-5.1596,-5.1596,-5.1596,-5.1596,-5.1596,-5.1596,-5.1596,-5.1596,-5.1596,-5.1711,-5.1711,-5.1711,-5.1826,-5.1826,-5.1915,-5.2401,-5.2969,-5.3581,-5.4009,-5.459,-5.5125,0.0,0.0,0.0,0.0,0.0,0.0,0.0,0.0,0.0,0.0,0.0,0.0,0.0,0.0,0.0,0.0,0.0,0.0,0.0,0.0,0.0,-1.6587,-1.6986,-1.7447,-1.8015,-1.8395,-1.8988,-1.9803,-2.0576,0.0,0.0,-2.3121,-2.3757,0.0,-2.5186,-2.5805,-2.6214,-2.6949,-2.7301,-2.7428,-2.7941,-2.8169,-2.8321,-2.8743,-2.8972,-2.9103,-2.9315,-2.9385,-2.9385,-2.9385,-2.9494,-2.9621,-2.9748,0.0,0.0,0.0,-3.2332,0.0,0.0,0.0,0.0,0.0,0.0,0.0,0.0,0.0,0.0,0.0,0.0,0.0,0.0,0.0,0.0,0.0,0.0,0.0,0.0,0.0,0.0,0.0,0.0,0.0,0.0,0.0,0.0,0.0,-5.341,-5.3105,-5.2588,-5.243,-5.2094,-5.1596,-5.1596,-5.1596,-5.1596,-5.1596,-5.1596,-5.1596,-5.1596,-5.1596,-5.1596,-5.1596,-5.1596,-5.1596,-5.1596,-5.1596,-5.1596,-5.1596,-5.1596,-5.1622,-5.1915,-5.2375,-5.2959,-5.3544,-5.4089,-5.4716,0.0,0.0,0.0,0.0,0.0,0.0,0.0,0.0,0.0,0.0,0.0,0.0,0.0,0.0,0.0,0.0,0.0,0.0,0.0,0.0,0.0,-1.7422,-1.7626,-1.7956,-1.8563,-1.9055,-1.9547,-2.0108,0.0,0.0,-2.2658,-2.4026,-2.4778,0.0,-2.6099,-2.685,-2.7352,-2.8287,-2.8769,-2.891,-2.9244,-2.9565,-2.9792,-2.991,-3.0114,-3.0386,-3.0529,-3.0577,-3.0577,-3.0577,-3.0706,-3.0903,-3.1051,-3.149,0.0,0.0,0.0,0.0,0.0,0.0,0.0,0.0,0.0,0.0,0.0,0.0,0.0,0.0,0.0,0.0,0.0,0.0,0.0,0.0,0.0,0.0,0.0,0.0,0.0,0.0,0.0,0.0,0.0,0.0,0.0,0.0,-5.2857,-5.2554,-5.2223,-5.1856,-5.1487,-5.1152,-5.1178,-5.1178,-5.1178,-5.1309,-5.1465,-5.1596,-5.1596,-5.1596,-5.1596,-5.1596,-5.1596,-5.1596,-5.1596,-5.1596,-5.1596,-5.1596,-5.1596,-5.1596,-5.1596,-5.2072,-5.2786,-5.3257,-5.3893,-5.4649,0.0,0.0,0.0,0.0,0.0,0.0,0.0,0.0,0.0,0.0,0.0,0.0,-1.401,-1.4623,-1.5043,-1.5043,-1.5688,0.0,0.0,0.0,0.0,-1.7573,-1.8155,0.0,-1.8785,-1.9431,-2.0142,-2.0956,0.0,0.0,-2.3534,-2.477,-2.557,-2.5977,-2.6535,-2.7445,-2.8628,0.0,0.0,0.0,-2.9385,-2.9991,-3.0879,-3.1384,-3.2156,-3.3088,-3.3559,-3.3756,-3.3756,-3.3756,-3.3777,-3.3801,-3.3801,-3.3801,-3.3896,0.0,0.0,0.0,0.0,0.0,0.0,0.0,0.0,0.0,0.0,0.0,0.0,0.0,0.0,0.0,0.0,0.0,0.0,0.0,0.0,0.0,0.0,0.0,0.0,0.0,0.0,0.0,0.0,0.0,0.0,0.0,-5.1642,-5.132,-5.0996,-5.0664,-5.0364,-4.9976,-4.9976,-4.9976,-4.9976,-5.0551,-5.11,-5.1596,-5.1596,-5.1596,-5.1596,-5.1596,-5.1596,-5.1596,-5.1596,-5.1596,-5.1596,-5.1596,-5.1596,-5.1596,-5.1596,-5.2297,-5.3339,-5.3402,-5.427,-5.5575,0.0,0.0,0.0,0.0,0.0,0.0,0.0,0.0,0.0,0.0,0.0,0.0,0.0,-1.567,-1.5826,-1.5826,-1.6504,0.0,0.0,0.0,0.0,-1.8374,-1.9002,-1.9418,-1.9622,-2.0392,-2.1069,0.0,0.0,-2.3039,-2.4123,-2.4989,-2.5876,-2.6745,-2.7636,-2.8345,-2.8929,-2.9785,0.0,0.0,0.0,0.0,-3.2889,-3.3085,-3.3416,0.0,0.0,0.0,0.0,-3.5001,-3.51,-3.51,-3.5241,-3.504,-3.4888,-3.5519,-3.6088,0.0,0.0,0.0,0.0,0.0,0.0,0.0,0.0,0.0,0.0,0.0,0.0,0.0,0.0,0.0,0.0,0.0,0.0,0.0,0.0,0.0,0.0,0.0,0.0,0.0,0.0,0.0,0.0,0.0,0.0,-5.1035,-5.0916,-5.0379,-5.0018,-4.9897,-4.9897,-4.9897,-4.9897,-5.0106,-5.0533,-5.1118,-5.1132,-5.1252,-5.1596,-5.1596,-5.1596,-5.1596,-5.1596,-5.1596,-5.1596,-5.1596,-5.1596,-5.1596,-5.1596,-5.2093,-5.2889,-5.3508,-5.4273,-5.5182,0.0,0.0,0.0,0.0,0.0,0.0,0.0,0.0,-1.5049,-1.5613,0.0,0.0,0.0,0.0,-1.6773,-1.716,-1.7684,-1.8168,-1.8543,-1.8947,-1.9233,-1.937,-1.9934,-2.0254,-2.0392,-2.1139,-2.1689,0.0,0.0,0.0,0.0,-2.5156,-2.6085,-2.7168,-2.8392,-2.91,0.0,0.0,0.0,-3.2361,0.0,0.0,-3.4675,0.0,0.0,0.0,0.0,0.0,0.0,0.0,-3.6718,-3.6766,-3.691,-3.6707,-3.6528,-3.7074,-3.7475,0.0,0.0,0.0,0.0,0.0,0.0,0.0,0.0,0.0,0.0,0.0,0.0,0.0,0.0,0.0,0.0,0.0,0.0,0.0,0.0,0.0,0.0,0.0,0.0,0.0,0.0,0.0,0.0,0.0,0.0,0.0,-5.0179,-4.962,-4.9322,-4.9322,-4.9322,-4.9427,-4.961,-4.961,-4.9931,-5.0516,-5.0721,-5.1007,-5.1335,-5.1518,-5.1596,-5.1596,-5.1596,-5.1596,-5.1596,-5.1596,-5.1596,-5.1596,-5.1596,-5.2056,-5.2891,-5.3593,-5.4457,-5.5326,0.0,0.0,0.0,0.0,0.0,0.0,0.0,0.0,-1.5787,-1.6186,0.0,0.0,0.0,0.0,0.0,-1.9138,-1.9233,-1.945,-1.9889,-2.0288,-2.0523,-2.0523,-2.0843,-2.1034,-2.1034,-2.1682,-2.2049,-2.2071,-2.3113,0.0,0.0,0.0,-2.6225,-2.7215,-2.8704,-2.9664,-3.0176,0.0,-3.1855,-3.2848,0.0,-3.4379,-3.6098,0.0,0.0,0.0,-3.8728,-3.8851,0.0,-3.8877,0.0,0.0,0.0,-3.8851,-3.8825,-3.8825,-3.8825,-3.9051,0.0,0.0,0.0,0.0,0.0,0.0,0.0,0.0,0.0,0.0,0.0,0.0,0.0,0.0,0.0,0.0,0.0,0.0,0.0,0.0,0.0,0.0,0.0,0.0,0.0,0.0,0.0,0.0,-4.9297,-4.8952,-4.8721,-4.8373,-4.8172,-4.8172,-4.8172,-4.846,-4.9061,-4.9061,-4.9322,-4.9871,-5.0487,-5.0773,-5.0812,-5.1335,-5.157,-5.1596,-5.1596,-5.1596,-5.1659,-5.1596,-5.1596,-5.1596,-5.1596,-5.2328,-5.3438,-5.3763,-5.4849,-5.6141,0.0,0.0,0.0,0.0,0.0,-1.5579,-1.5965,-1.6021,-1.6268,0.0,0.0,0.0,-1.8325,-1.8859,-1.9465,-2.0103,-2.0124,-2.0307,-2.0659,-2.0822,-2.0857,-2.0857,-2.1425,-2.1704,-2.1704,-2.236,-2.2979,-2.3539,-2.3951,-2.4709,-2.5723,-2.6119,-2.7006,0.0,-2.9033,-2.9853,-3.0754,-3.1865,0.0,0.0,-3.4799,-3.5993,0.0,0.0,0.0,0.0,0.0,-4.0286,-4.0747,0.0,-4.1234,-4.1157,0.0,-4.0414,-4.003,-4.003,-4.003,-4.0208,-4.1078,0.0,0.0,0.0,0.0,0.0,0.0,0.0,0.0,0.0,0.0,0.0,0.0,0.0,0.0,0.0,0.0,0.0,0.0,0.0,0.0,0.0,0.0,0.0,0.0,0.0,0.0,0.0,-4.8952,-4.8779,-4.8663,-4.8373,-4.8172,-4.8172,-4.8172,-4.8277,-4.8433,-4.8433,-4.8734,-4.9311,-4.9489,-4.9973,-5.0804,-5.0978,-5.1354,-5.1996,-5.1996,-5.2094,-5.228,-5.1783,-5.1596,-5.1596,-5.1596,-5.2256,-5.3218,-5.3948,-5.4944,-5.5972,0.0,0.0,0.0,0.0,0.0,-1.6453,-1.6831,-1.6889,-1.722,0.0,0.0,0.0,-1.9646,-2.0237,-2.0767,-2.1246,-2.1492,-2.1792,-2.2147,-2.2259,-2.2354,-2.2354,-2.2783,-2.3047,-2.3047,-2.3498,-2.3974,-2.4398,-2.4684,-2.5283,-2.6211,-2.6433,-2.7284,-2.8722,0.0,0.0,0.0,0.0,0.0,0.0,-3.5578,0.0,0.0,-3.8914,-3.9826,0.0,0.0,0.0,-4.2112,-4.2448,-4.2552,0.0,0.0,0.0,0.0,0.0,-4.1569,-4.1647,-4.219,-4.2736,-4.3283,0.0,0.0,0.0,0.0,-4.5454,0.0,0.0,0.0,0.0,0.0,0.0,0.0,0.0,0.0,0.0,0.0,0.0,0.0,0.0,0.0,0.0,0.0,0.0,-4.924,-4.8952,-4.8779,-4.8606,-4.8489,-4.8315,-4.8172,-4.8172,-4.8172,-4.8172,-4.8172,-4.8172,-4.8393,-4.8726,-4.9007,-4.9502,-5.0244,-5.0795,-5.1338,-5.1962,-5.2201,-5.243,-5.2588,-5.2156,-5.1908,-5.1783,-5.1659,-5.2151,-5.3107,-5.4033,-5.5029,-5.5939,0.0,0.0,-1.6698,-1.6739,-1.7082,-1.7506,-1.7978,-1.8039,-1.8361,0.0,-1.948,-1.9864,-2.0772,-2.1408,-2.2014,-2.2606,-2.3135,-2.3624,-2.3988,-2.4335,-2.4454,-2.4411,-2.4552,-2.4609,-2.4566,-2.4741,-2.4859,-2.4965,-2.5318,-2.5763,-2.6302,-2.6571,-2.7424,-2.8792,0.0,0.0,0.0,0.0,0.0,-3.4336,-3.5943,-3.7381,0.0,0.0,-4.1209,-4.2138,-4.2919,-4.3258,-4.331,-4.3389,-4.3415,0.0,0.0,0.0,0.0,0.0,-4.3127,-4.3127,-4.3127,-4.352,-4.3964,-4.3964,0.0,0.0,-4.4668,-4.5083,-4.5656,0.0,0.0,0.0,0.0,0.0,0.0,0.0,0.0,0.0,0.0,0.0,0.0,0.0,0.0,0.0,0.0,-4.8881,-4.8767,-4.8479,-4.8479,-4.8332,-4.8094,-4.8094,-4.812,-4.8172,-4.8172,-4.8172,-4.8172,-4.8172,-4.8172,-4.8198,-4.8784,-4.9191,-4.9528,-5.065,-5.1361,-5.1823,-5.233,-5.2596,-5.2711,-5.265,-5.2492,-5.2121,-5.1846,-5.2223,-5.3154,-5.407,-5.5039,-5.5922,0.0,-1.7082,-1.7264,-1.7575,-1.7716,-1.8039,-1.8831,-1.8952,-1.9257,-2.0138,-2.1131,-2.213,-2.3069,-2.3278,-2.3542,-2.4041,-2.4538,-2.5004,-2.5454,-2.5872,-2.5958,-2.5556,-2.5596,-2.5418,-2.4976,-2.4993,-2.5313,-2.5916,-2.5995,-2.6365,-2.7012,-2.7625,-2.8407,-2.931,0.0,0.0,0.0,0.0,0.0,-3.5445,-3.7042,0.0,-4.0184,-4.0927,-4.2164,-4.3571,-4.4146,-4.4642,-4.5192,-4.5637,-4.5794,-4.5715,0.0,0.0,0.0,-4.3833,0.0,0.0,0.0,0.0,0.0,0.0,0.0,0.0,-4.4367,-4.4642,-4.4888,0.0,0.0,0.0,0.0,0.0,0.0,0.0,0.0,0.0,0.0,0.0,0.0,0.0,0.0,0.0,0.0,-4.7295,-4.7209,-4.6926,-4.6926,-4.7079,-4.7466,-4.7492,-4.7702,-4.8172,-4.8172,-4.8172,-4.8172,-4.8172,-4.8172,-4.8172,-4.8574,-4.9007,-4.9561,-4.9982,-5.0949,-5.2071,-5.2205,-5.2709,-5.341,-5.3105,-5.2799,-5.2465,-5.2404,-5.2668,-5.3243,-5.4351,-5.5087,-5.5609,-1.7502,-1.7686,-1.7891,-1.8115,-1.8524,-1.9028,-1.9548,-1.9815,-2.0312,-2.1324,-2.2798,-2.3993,-2.4468,-2.5126,-2.5656,-2.5883,-2.6349,-2.6763,-2.6973,-2.7197,-2.722,-2.7015,-2.7015,-2.688,-2.6592,-2.6674,-2.6934,-2.7307,-2.7409,-2.763,-2.7966,-2.8472,-2.9079,-2.9852,-3.0612,0.0,0.0,0.0,-3.547,-3.6701,-3.7941,0.0,-4.0619,-4.1747,-4.3069,-4.4382,-4.4957,-4.5558,-4.6107,-4.6395,-4.6473,0.0,0.0,-4.5846,-4.5532,0.0,-4.5166,-4.5166,0.0,0.0,0.0,-4.5611,0.0,0.0,0.0,-4.4944,-4.4796,0.0,0.0,0.0,0.0,0.0,0.0,0.0,0.0,0.0,0.0,0.0,0.0,0.0,0.0,0.0,0.0,-4.6247,-4.6247,-4.6247,-4.6417,-4.6604,-4.6891,-4.7179,-4.7466,-4.7754,-4.8041,-4.8172,-4.8172,-4.8172,-4.8172,-4.8172,-4.8521,-4.8912,-4.9346,-4.9988,-5.0896,-5.2025,-5.2323,-5.2869,-5.3592,-5.341,-5.3227,-5.3105,-5.2711,-5.2799,-5.324,-5.4127,-5.4826,-5.5545,-1.7998,-1.8278,-1.8579,-1.8695,-1.9372,-1.9982,-2.0344,-2.0744,-2.1512,-2.2922,-2.4454,-2.559,-2.5854,-2.6919,-2.7667,-2.7865,-2.8382,-2.872,-2.8808,-2.8899,-2.8877,-2.8743,-2.872,-2.8675,-2.8496,-2.8581,-2.8623,-2.8623,-2.8726,-2.8786,-2.8786,-2.9183,-2.9746,0.0,0.0,0.0,0.0,0.0,0.0,-3.8016,0.0,-3.988,-4.1004,-4.2567,-4.3896,-4.4955,-4.5634,-4.6316,-4.6813,-4.6813,-4.6813,-4.6787,-4.6682,-4.663,0.0,0.0,0.0,0.0,0.0,0.0,0.0,0.0,0.0,-4.5995,0.0,0.0,0.0,0.0,0.0,0.0,0.0,0.0,0.0,0.0,0.0,0.0,0.0,0.0,0.0,0.0,0.0,0.0,0.0,-4.5027,-4.5191,-4.5391,-4.5857,-4.613,-4.6234,-4.6704,-4.6991,-4.7153,-4.7728,-4.8015,-4.8047,-4.812,-4.8172,-4.8172,-4.8579,-4.8868,-4.9152,-5.0036,-5.0864,-5.1692,-5.2289,-5.2886,-5.3429,-5.3537,-5.3592,-5.3531,-5.2983,-5.2983,-5.3247,-5.3901,-5.4565,-5.5328,-1.9131,-1.8994,-1.9227,-1.9792,-1.9994,-2.0365,-2.1367,-2.1898,-2.3024,-2.5276,-2.6083,-2.6934,-2.8275,-2.8544,-2.8992,-2.9895,-3.0445,-3.0928,-3.1341,-3.1762,-3.1716,-3.1043,-3.102,-3.072,-2.9965,-2.9597,-2.9368,-2.9368,-2.917,-2.9048,-2.909,-2.9989,-3.0703,0.0,-3.2019,0.0,0.0,0.0,-3.6974,0.0,-3.9994,-4.102,0.0,-4.3364,-4.4516,-4.5663,-4.6704,-4.7492,-4.7989,0.0,-4.7989,-4.7911,0.0,-4.7174,-4.7127,-4.663,0.0,0.0,0.0,0.0,0.0,0.0,-4.6247,0.0,0.0,0.0,0.0,0.0,0.0,0.0,0.0,0.0,0.0,0.0,0.0,0.0,0.0,0.0,0.0,0.0,0.0,0.0,0.0,-4.3028,-4.331,-4.3364,-4.41,-4.4782,-4.533,-4.5601,-4.6055,-4.6552,-4.7127,-4.7362,-4.7429,-4.7916,-4.8172,-4.8172,-4.8779,-4.9068,-4.9125,-4.9751,-5.0387,-5.1041,-5.1665,-5.2262,-5.2859,-5.3375,-5.3592,-5.3592,-5.3531,-5.3531,-5.3612,-5.4209,-5.4514,-5.4758,-2.0142,-2.0128,-2.0294,-2.0554,-2.0864,-2.1303,-2.2204,-2.3677,-2.5088,-2.6191,-2.7601,-2.8832,-2.9579,0.0,0.0,0.0,0.0,-3.2932,0.0,0.0,-3.3288,-3.298,-3.2699,-3.2323,-3.2019,-3.1507,-3.125,-3.125,-3.1132,-3.106,-3.1083,-3.1658,-3.2053,0.0,-3.3186,0.0,-3.5549,0.0,0.0,0.0,0.0,0.0,0.0,-4.4028,-4.5292,-4.6678,-4.7519,-4.7989,-4.8172,0.0,-4.8172,0.0,0.0,0.0,0.0,0.0,0.0,0.0,0.0,0.0,0.0,0.0,0.0,0.0,-4.6805,0.0,-4.5454,0.0,0.0,0.0,0.0,0.0,0.0,0.0,0.0,0.0,0.0,0.0,0.0,0.0,0.0,0.0,0.0,0.0,0.0,0.0,-4.3054,-4.3762,-4.4212,-4.497,-4.5575,-4.5976,-4.6865,-4.7273,-4.7288,-4.7905,-4.8321,-4.85,-4.8926,-4.9183,-4.9412,-4.9783,-5.0335,-5.0932,-5.1557,-5.2154,-5.275,-5.3347,-5.347,-5.3349,-5.3531,-5.3592,-5.3619,-5.3863,-5.4189,-5.4569,-2.1691,0.0,0.0,0.0,-2.1767,-2.2413,-2.3563,-2.5422,-2.6909,-2.7524,-2.9306,0.0,-3.1275,-3.2601,0.0,0.0,-3.4518,-3.4852,0.0,0.0,-3.4925,-3.4825,-3.4329,-3.3997,-3.3948,-3.343,-3.3171,-3.3171,-3.2936,-3.2842,-3.2842,-3.2935,-3.3217,-3.3599,0.0,-3.5281,-3.6455,0.0,0.0,-4.0249,-4.1462,-4.303,-4.4759,-4.5227,-4.6285,-4.7649,-4.8224,-4.8433,-4.846,-4.8616,-4.8643,0.0,-4.8643,0.0,0.0,0.0,0.0,0.0,-4.8433,0.0,0.0,0.0,0.0,0.0,0.0,0.0,0.0,0.0,0.0,0.0,0.0,0.0,-4.2986,-4.2986,0.0,-4.2162,0.0,0.0,0.0,0.0,0.0,0.0,0.0,0.0,0.0,-4.1448,-4.2223,-4.2798,-4.3119,-4.4157,-4.4866,-4.514,-4.6264,-4.6934,-4.7068,-4.7664,-4.8163,-4.8589,-4.8899,-4.924,-4.9442,-4.984,-5.0254,-5.0688,-5.1502,-5.2013,-5.2388,-5.3173,-5.3288,-5.2983,-5.3349,-5.347,-5.347,-5.3592,-5.3863,-5.427,-2.4079,-2.2419,0.0,0.0,0.0,0.0,0.0,0.0,0.0,0.0,0.0,0.0,0.0,0.0,0.0,0.0,0.0,-3.6796,-3.7056,0.0,-3.6952,0.0,0.0,-3.5805,0.0,-3.5078,-3.4819,-3.4819,-3.4027,-3.3672,-3.3648,-3.3407,-3.3979,-3.5211,0.0,-3.6432,-3.8464,-3.9011,-4.0012,-4.1379,-4.2815,-4.4766,-4.6829,0.0,-4.7592,-4.8224,-4.8826,0.0,0.0,-4.9662,-4.9845,0.0,0.0,0.0,0.0,0.0,0.0,0.0,0.0,0.0,0.0,-4.8172,0.0,0.0,0.0,0.0,-4.7346,0.0,0.0,0.0,0.0,-4.3338,-4.2986,-4.2986,-4.2564,0.0,0.0,0.0,0.0,0.0,0.0,0.0,0.0,0.0,0.0,-4.0551,-4.1319,-4.1968,-4.2208,-4.3093,-4.3671,-4.3938,-4.5062,-4.595,-4.6525,-4.7074,-4.7623,-4.823,-4.8837,-4.9125,-4.9125,-4.9727,-5.001,-5.0118,-5.1312,-5.1652,-5.1438,-5.2621,-5.2922,-5.265,-5.2983,-5.3132,-5.3193,-5.347,-5.3619,-5.37,0.0,0.0,0.0,0.0,0.0,0.0,0.0,-2.8669,0.0,0.0,0.0,0.0,0.0,-3.6161,-3.7082,0.0,0.0,-3.9037,-3.936,-3.9414,0.0,0.0,0.0,-3.8051,0.0,-3.6872,-3.6418,-3.6418,-3.5803,-3.5593,-3.5742,-3.5671,-3.599,-3.6628,0.0,-3.7617,0.0,0.0,0.0,0.0,0.0,-4.5679,-4.6933,0.0,0.0,-4.8799,-4.9008,-4.9322,0.0,-4.9819,-4.9897,-4.9897,-4.9897,-4.9897,-4.9897,-4.9897,-4.9766,-4.961,0.0,0.0,-4.9218,-4.8878,0.0,0.0,0.0,0.0,0.0,0.0,0.0,0.0,0.0,-4.4232,-4.3695,-4.3092,-4.2208,-4.1555,0.0,0.0,0.0,0.0,0.0,0.0,0.0,0.0,0.0,-3.9973,-4.0581,-4.1172,-4.1619,-4.2622,-4.3405,-4.3859,-4.5009,-4.5721,-4.5915,-4.6791,-4.7513,-4.7951,-4.8579,-4.8952,-4.9125,-4.9297,-4.9599,-5.0028,-5.0864,-5.1308,-5.1616,-5.2479,-5.2553,-5.2306,-5.2615,-5.2799,-5.2861,-5.341,-5.3592,-5.3673,-2.6028,0.0,0.0,0.0,0.0,0.0,0.0,0.0,0.0,0.0,-3.4398,0.0,-3.6657,0.0,-3.8821,0.0,-4.0404,-4.0936,-4.1355,-4.1355,0.0,-4.102,-4.0392,0.0,0.0,0.0,0.0,-3.8364,-3.7532,-3.7273,-3.7529,-3.7138,-3.7266,-3.7715,0.0,0.0,0.0,0.0,-4.1304,0.0,0.0,-4.6508,0.0,0.0,-4.8433,-4.9139,0.0,-4.9923,-5.0237,-5.042,-5.0498,-5.0498,-5.0498,-5.0498,-5.0498,-5.0498,-5.0368,-5.0211,-5.0211,-5.0054,0.0,-4.9453,-4.9218,0.0,-4.859,0.0,-4.7821,0.0,0.0,0.0,0.0,-4.4763,-4.4035,-4.3285,-4.2112,-4.115,0.0,-4.0149,0.0,0.0,0.0,0.0,0.0,0.0,-3.917,-3.9396,-3.9722,-4.0283,0.0,0.0,-4.2782,-4.3572,-4.4513,-4.5199,-4.563,-4.6563,-4.7221,-4.7646,-4.8353,-4.8779,-4.8952,-4.9068,-4.9445,-5.0031,-5.0676,-5.1143,-5.1607,-5.2191,-5.2218,-5.1996,-5.2306,-5.243,-5.2465,-5.3166,-5.347,-5.3646,0.0,0.0,0.0,0.0,-2.8198,0.0,0.0,0.0,-3.3377,0.0,-3.6387,-3.7756,-3.8118,-3.9304,-4.0373,-4.1013,-4.1752,-4.2413,-4.293,-4.2955,0.0,0.0,-4.197,-4.1429,-4.1429,0.0,0.0,0.0,0.0,0.0,-3.8995,-3.7959,-3.7914,-3.8638,-3.9161,0.0,-4.0676,-4.1785,-4.2615,-4.335,-4.5566,-4.728,-4.8643,-4.902,-4.9165,-4.9322,-5.0394,-5.0812,-5.0917,-5.1413,-5.1596,-5.1596,-5.1596,-5.1596,-5.1596,-5.1596,-5.123,-5.0838,-5.0838,-5.042,-4.9976,-4.9949,-4.9557,0.0,0.0,0.0,-4.8166,0.0,0.0,0.0,0.0,-4.4959,-4.4148,-4.3563,-4.225,-4.0953,-3.9898,-3.9722,-3.9697,0.0,0.0,0.0,0.0,-3.8341,-3.8241,-3.8844,-3.8894,0.0,0.0,0.0,-4.1905,-4.2945,-4.3572,-4.4438,-4.5523,-4.6196,-4.6747,-4.7257,-4.8242,-4.869,-4.8663,-4.8952,-4.9387,-4.9999,-5.0617,-5.0963,-5.1294,-5.1821,-5.1872,-5.1659,-5.1934,-5.2059,-5.2183,-5.2861,-5.3288,-5.3592,-2.9534,-3.0034,-3.0605,0.0,-3.0466,-3.0812,0.0,0.0,0.0,0.0,-3.7426,-3.8653,-4.0522,-4.1047,-4.1834,-4.3251,-4.3565,0.0,0.0,0.0,0.0,-4.3837,-4.359,-4.3358,-4.3102,-4.2054,0.0,-4.1699,0.0,0.0,-4.0368,-4.0071,-4.0181,-4.0595,0.0,0.0,-4.1835,-4.2514,-4.3733,-4.5244,-4.6576,-4.7699,0.0,0.0,-5.0342,-5.0394,-5.0681,-5.1047,-5.1413,-5.1544,-5.1596,-5.1596,-5.1596,-5.1596,-5.1596,-5.1596,-5.1492,-5.1387,-5.1387,-5.1282,-5.1073,-5.0655,-5.0446,-5.0132,0.0,0.0,0.0,0.0,0.0,0.0,0.0,0.0,-4.5196,-4.3998,-4.2602,-4.137,-4.04,0.0,0.0,-3.9697,0.0,0.0,0.0,-3.8341,-3.8065,-3.8216,-3.8617,0.0,0.0,0.0,0.0,-4.2945,-4.3572,-4.4226,-4.4935,-4.598,-4.6555,-4.6707,-4.7788,-4.8315,-4.8315,-4.8431,-4.8957,-4.9928,-5.006,-5.0629,-5.1511,-5.1669,-5.1659,-5.1596,-5.1659,-5.1872,-5.2183,-5.2861,-5.3288,-5.3592,-3.109,0.0,0.0,-3.326,0.0,0.0,-3.4275,0.0,0.0,-3.7618,-3.8737,0.0,-4.1509,-4.2217,-4.3085,-4.4417,-4.4668,0.0,-4.5347,0.0,0.0,-4.5135,-4.491,-4.4668,-4.4525,-4.3507,0.0,-4.3176,0.0,0.0,-4.1813,-4.1284,0.0,0.0,0.0,-4.2007,0.0,-4.3639,-4.4734,-4.5843,-4.6985,0.0,0.0,-5.014,-5.0819,-5.1152,-5.1152,-5.1335,-5.1596,-5.1596,-5.1596,-5.1596,-5.1596,-5.1596,-5.1596,-5.1596,-5.1596,-5.1596,-5.1596,-5.1596,-5.1518,-5.123,-5.0969,-5.0629,-4.9976,-4.9453,-4.8982,0.0,-4.8355,-4.7853,0.0,0.0,-4.5443,-4.3801,-4.2664,-4.1739,-4.0996,0.0,0.0,0.0,-3.955,0.0,0.0,-3.8138,-3.7712,-3.781,0.0,0.0,0.0,0.0,0.0,-4.2631,-4.3206,-4.3806,-4.4349,-4.5529,-4.6221,-4.6521,-4.7366,-4.7937,-4.8198,-4.846,-4.9061,-4.9897,-5.0159,-5.0786,-5.1596,-5.1596,-5.1596,-5.1596,-5.1596,-5.1783,-5.2121,-5.2492,-5.2861,-5.3166,0.0,0.0,0.0,0.0,0.0,0.0,0.0,-3.6987,0.0,-3.8383,0.0,-4.1441,-4.198,-4.3124,-4.4171,-4.5171,0.0,-4.5924,-4.6476,-4.6527,-4.6527,-4.6527,-4.5999,-4.5698,-4.5698,-4.4861,-4.4452,0.0,-4.3405,-4.2906,-4.3162,-4.2133,0.0,0.0,0.0,0.0,0.0,-4.4869,-4.5573,0.0,-4.7167,-4.8233,-4.9127,-5.0002,-5.0805,-5.1471,-5.1534,-5.1534,-5.1596,-5.1596,-5.1596,-5.1596,-5.1596,-5.1596,-5.1596,-5.1596,-5.1596,-5.1596,-5.1596,-5.1596,-5.1596,-5.1596,-5.1256,-5.089,-5.0812,-4.9949,-4.9165,-4.9087,-4.8616,-4.8015,-4.744,0.0,-4.5318,-4.3496,-4.2723,-4.2158,0.0,0.0,0.0,0.0,0.0,0.0,0.0,0.0,0.0,0.0,0.0,0.0,0.0,0.0,0.0,-4.216,-4.2709,-4.3309,-4.387,-4.5028,-4.5891,-4.6503,-4.7038,-4.7623,-4.8198,-4.8799,-4.9374,-4.9923,-5.0524,-5.11,-5.1596,-5.1596,-5.1596,-5.1596,-5.1596,-5.1783,-5.2059,-5.2059,-5.2245,-5.2465,0.0,0.0,0.0,0.0,0.0,-3.8065,-3.9314,-3.9001,-3.9073,-4.0451,-4.0956,-4.191,-4.3786,-4.4224,-4.4981,-4.657,-4.6792,0.0,0.0,0.0,0.0,-4.7631,-4.7129,-4.6853,-4.6853,-4.5789,-4.5288,0.0,-4.4611,-4.4285,-4.4317,-4.3664,0.0,0.0,0.0,0.0,-4.507,-4.5372,0.0,-4.6903,-4.7926,-4.8694,-4.9316,-5.0255,-5.0638,-5.0778,-5.112,-5.1346,-5.1596,-5.1596,-5.1596,-5.1596,-5.1596,-5.1596,-5.1596,-5.1596,-5.1596,-5.1596,-5.1596,-5.1596,-5.1596,-5.1596,-5.1518,-5.1335,-5.089,-5.0263,-4.961,-4.9165,-4.8616,-4.8015,-4.744,0.0,-4.534,-4.4232,-4.3638,-4.3016,0.0,0.0,0.0,0.0,0.0,-4.0132,0.0,0.0,0.0,0.0,0.0,0.0,0.0,0.0,0.0,0.0,-4.2709,0.0,0.0,0.0,-4.5891,-4.6503,-4.7038,-4.7623,-4.8198,-4.8799,-4.9374,-4.9923,-5.0524,-5.11,-5.1596,-5.1596,-5.1596,-5.1596,-5.1596,-5.1659,-5.1659,-5.1659,-5.1721,-5.1846,0.0,0.0,0.0,0.0,0.0,0.0,0.0,-4.0836,0.0,-4.1533,-4.2062,-4.2963,-4.4487,-4.4915,-4.5613,-4.6861,-4.6997,-4.7159,-4.7596,-4.762,-4.762,-4.762,-4.7371,0.0,-4.6997,-4.6203,-4.5782,-4.5782,-4.4938,-4.4659,-4.4811,-4.4261,0.0,0.0,0.0,-4.497,0.0,0.0,0.0,-4.7205,-4.8245,-4.8913,-4.9343,-5.0092,-5.0487,-5.0588,-5.0778,-5.0905,-5.1157,-5.1471,-5.1596,-5.1596,-5.1596,-5.1596,-5.1596,-5.1596,-5.1596,-5.1596,-5.1596,-5.1596,-5.1596,-5.1596,-5.1596,-5.1518,-5.1256,-5.076,-5.0185,-4.961,-4.9035,-4.8381,-4.7435,-4.663,0.0,0.0,0.0,0.0,0.0,0.0,0.0,0.0,0.0,0.0,0.0,0.0,0.0,0.0,0.0,0.0,0.0,0.0,0.0,0.0,0.0,0.0,-4.3464,0.0,-4.5607,-4.6517,-4.6747,-4.7268,-4.7964,-4.8875,-4.93,-4.9463,-5.0343,-5.0861,-5.1094,-5.1283,-5.1372,-5.1346,-5.1534,-5.1596,-5.1596,-5.1596,-5.1596,-5.1659,0.0,-3.908,0.0,0.0,-4.0715,0.0,-4.1653,-4.2375,-4.276,-4.2351,-4.312,-4.4012,-4.4876,-4.541,-4.6134,-4.7013,-4.7037,-4.7238,-4.759,-4.7679,-4.7679,-4.7679,-4.7555,-4.7379,-4.7062,-4.6522,-4.6178,0.0,-4.5281,-4.4935,-4.5052,-4.4507,-4.4351,0.0,0.0,0.0,0.0,0.0,-4.7257,-4.7432,-4.8435,-4.9027,-4.9394,-4.9824,-5.0168,-5.0397,-5.0487,-5.0487,-5.0614,-5.1157,-5.1408,-5.1408,-5.1408,-5.1408,-5.1471,-5.1471,-5.1534,-5.1596,-5.1596,-5.1596,-5.1596,-5.1534,-5.1471,-5.1471,-5.1408,-5.0992,-5.0445,-4.9907,-4.9315,-4.8564,-4.7519,-4.697,0.0,0.0,0.0,0.0,0.0,0.0,0.0,0.0,0.0,0.0,-4.0671,0.0,0.0,0.0,0.0,0.0,0.0,0.0,0.0,0.0,0.0,-4.3023,-4.3023,0.0,-4.5349,-4.6417,-4.6425,-4.6907,-4.7611,-4.8773,-4.9168,-4.8974,-5.0101,-5.0588,-5.0588,-5.0867,-5.0994,-5.0994,-5.1283,-5.1408,-5.1408,-5.1408,-5.1408,-5.1408,0.0,0.0,0.0,0.0,0.0,0.0,-4.3144,-4.3385,-4.3433,-4.3385,-4.389,-4.4529,-4.5435,-4.5969,-4.6695,-4.7553,-4.7602,-4.7887,-4.8469,-4.8518,-4.8518,-4.8518,-4.7936,-4.7666,-4.7602,-4.7086,-4.6571,0.0,0.0,-4.5724,-4.5232,-4.4691,-4.4505,0.0,0.0,0.0,0.0,-4.6985,-4.7681,-4.8217,-4.8609,-4.9126,-4.9579,-4.9629,-4.9654,-4.9719,-5.004,-5.0168,-5.0168,-5.055,-5.0652,-5.0652,-5.0652,-5.0931,-5.1183,-5.1183,-5.1346,-5.1596,-5.1596,-5.1596,-5.1534,-5.1246,-5.1183,-5.1057,-5.0778,-5.0241,-4.9827,-4.948,-4.8797,-4.8068,-4.744,-4.7226,-4.6891,0.0,0.0,0.0,0.0,0.0,0.0,0.0,0.0,0.0,0.0,-4.1246,0.0,0.0,0.0,0.0,0.0,0.0,0.0,-4.1324,-4.2422,-4.3023,-4.3023,-4.4359,-4.5401,-4.6078,-4.6326,-4.6721,-4.7316,-4.8471,-4.8922,-4.8974,-5.0101,-5.0588,-5.0588,-5.0652,-5.0652,-5.0652,-5.0652,-5.0652,-5.0652,-5.0652,-5.0652,-5.0652,0.0,0.0,0.0,0.0,0.0,0.0,0.0,-4.4275,-4.4611,-4.4924,-4.4813,-4.514,-4.611,-4.6464,-4.6867,-4.753,-4.7579,-4.7741,-4.8223,-4.8248,-4.8248,-4.8248,-4.8028,-4.7775,-4.7579,-4.7045,-4.6682,0.0,0.0,0.0,0.0,-4.5757,-4.5722,0.0,0.0,-4.635,-4.6595,-4.7326,-4.776,-4.7982,-4.8689,-4.9132,-4.9332,-4.9525,-4.959,-4.959,-4.9719,-4.9783,-4.9783,-4.9976,-5.0295,-5.0588,-5.0588,-5.0652,-5.0804,-5.0804,-5.0905,-5.0968,-5.0968,-5.0968,-5.0968,-5.0842,-5.0804,-5.0778,-5.0588,-5.0434,-5.019,-4.9749,-4.8963,-4.8217,-4.7646,-4.7372,-4.7074,-4.6264,0.0,0.0,0.0,0.0,0.0,0.0,0.0,0.0,0.0,0.0,0.0,0.0,0.0,0.0,0.0,0.0,0.0,-4.1821,0.0,-4.3075,-4.3255,-4.4488,-4.5317,-4.5737,-4.6178,-4.662,-4.6985,-4.8105,-4.8847,-4.9343,-4.9773,-4.9976,-5.004,-5.0232,-5.0295,-5.0295,-5.0525,-5.0588,-5.0588,-5.0588,-5.0588,-5.0588,-4.2819,0.0,-4.3024,0.0,-4.3649,-4.4178,-4.4669,-4.5053,-4.5549,-4.6102,-4.5838,-4.5886,-4.6631,-4.6848,-4.7088,-4.7473,-4.7497,-4.763,-4.7828,-4.7828,-4.7828,-4.7828,-4.7828,0.0,-4.7497,-4.7136,-4.6872,-4.6704,-4.6343,0.0,0.0,0.0,0.0,0.0,-4.6783,-4.6856,-4.6905,-4.7507,-4.7791,-4.7881,-4.8664,-4.8942,-4.8942,-4.9227,-4.9332,-4.9461,-4.9461,-4.9525,-4.959,-4.959,-4.9912,-5.027,-5.027,-5.0334,-5.0487,-5.0487,-5.0525,-5.0588,-5.0588,-5.0588,-5.0588,-5.0487,-5.0487,-5.0423,-5.0359,-5.027,-5.0155,-4.9504,-4.8865,-4.8257,-4.7807,-4.7542,-4.7273,-4.6813,0.0,0.0,0.0,-4.4643,0.0,0.0,-4.3206,-4.2656,-4.2422,0.0,0.0,0.0,0.0,0.0,0.0,0.0,0.0,0.0,0.0,0.0,-4.3407,-4.4535,-4.523,-4.5476,-4.6096,-4.6446,-4.6711,-4.7738,-4.8686,-4.9364,-4.9515,-4.959,-4.959,-4.9873,-4.9912,-4.9976,-5.0232,-5.027,-5.027,-5.027,-5.027,-5.027,-4.2819,-4.3168,-4.3673,-4.4165,-4.4693,-4.5221,-4.5814,-4.591,-4.6102,-4.6631,-4.6704,-4.6704,-4.6704,-4.7185,-4.7497,-4.7497,-4.7497,-4.7497,-4.7497,-4.7497,-4.7497,0.0,0.0,-4.7497,-4.7497,-4.7497,-4.7233,-4.6704,0.0,0.0,-4.5934,0.0,-4.5934,-4.5958,-4.6463,-4.6704,-4.6728,-4.7652,-4.8026,-4.8026,-4.8445,-4.86,-4.86,-4.86,-4.8837,-4.9137,-4.9137,-4.9332,-4.959,-4.959,-4.959,-4.959,-4.959,-4.9847,-5.0129,-5.0129,-5.0359,-5.0588,-5.0588,-5.0588,-5.0525,-5.0168,-5.0129,-5.004,-4.9654,-4.959,-4.9417,-4.8596,-4.8217,-4.8017,-4.7748,-4.7677,-4.7613,-4.7357,0.0,0.0,0.0,0.0,0.0,-4.4016,-4.3912,-4.3624,-4.3075,0.0,0.0,0.0,0.0,0.0,0.0,0.0,0.0,-4.2211,-4.2995,0.0,-4.3433,-4.4528,-4.5077,-4.5106,-4.5892,-4.6301,-4.6351,-4.7431,-4.8234,-4.8812,-4.9364,-4.959,-4.959,-4.959,-4.959,-4.959,-4.959,-4.959,-4.959,-4.959,-4.959,-4.959,-4.4299,-4.4515,-4.478,-4.5333,-4.5549,-4.5862,-4.6391,-4.6463,-4.6655,-4.7185,-4.7257,-4.7257,-4.7257,-4.7401,-4.7497,0.0,-4.7497,-4.7497,0.0,-4.7497,-4.7497,-4.7497,-4.7497,-4.7497,-4.7497,-4.7497,-4.7425,-4.7257,0.0,0.0,0.0,-4.6992,-4.6992,-4.7016,-4.7185,-4.7257,-4.7257,-4.7557,-4.763,-4.7696,-4.8026,-4.8158,-4.8248,-4.851,-4.8641,-4.8772,-4.8772,-4.8837,-4.8967,-4.9202,-4.9267,-4.9332,-4.9525,-4.9654,-4.9783,-4.9783,-4.9847,-4.9912,-4.9912,-4.9912,-4.9912,-4.9783,-4.9783,-4.9719,-4.959,-4.959,-4.9453,-4.8787,-4.8494,-4.8156,-4.7717,-4.7462,-4.7262,-4.7094,-4.6991,0.0,-4.6316,0.0,-4.548,0.0,-4.4356,-4.3807,-4.3624,-4.3258,0.0,0.0,0.0,0.0,0.0,0.0,0.0,0.0,-4.3279,0.0,-4.3989,-4.4723,-4.5171,-4.5397,-4.6009,-4.6502,-4.6903,-4.7581,-4.8234,-4.8812,-4.9364,-4.959,-4.959,-4.959,-4.959,-4.959,-4.959,-4.959,-4.959,-4.959,-4.959,-4.959,-4.5293,-4.5366,-4.5597,-4.6126,-4.6223,-4.6391,-4.692,-4.7016,-4.7136,-4.7473,-4.7532,-4.7609,-4.7609,-4.7643,0.0,-4.7545,-4.7497,-4.7497,-4.7497,-4.7497,-4.7497,-4.7497,-4.7497,-4.7497,-4.7497,-4.7497,0.0,-4.7497,-4.7497,-4.7497,-4.7497,-4.7497,-4.7497,-4.7497,-4.7497,-4.7497,-4.7497,-4.7497,-4.7497,-4.7497,-4.7696,-4.7828,-4.7828,-4.8116,-4.8248,-4.8379,-4.8379,-4.8445,-4.8666,-4.8837,-4.8902,-4.8967,-4.9162,-4.9332,-4.9461,-4.9525,-4.959,-4.959,-4.959,-4.959,-4.959,-4.959,-4.959,-4.959,-4.959,-4.959,-4.9439,-4.8887,-4.8674,-4.8382,-4.7719,-4.7469,-4.73,-4.703,-4.7011,-4.6947,-4.6664,0.0,-4.6017,0.0,0.0,0.0,0.0,-4.399,-4.3572,0.0,0.0,0.0,0.0,0.0,-4.3229,-4.3407,-4.3424,-4.3716,-4.4325,-4.4684,-4.5075,-4.5497,-4.605,-4.6502,-4.6853,-4.7581,-4.8109,-4.8485,-4.9264,-4.959,-4.959,-4.959,-4.959,-4.959,-4.959,-4.959,-4.959,-4.959,-4.959,-4.959,-4.5982,-4.5918,-4.6086,0.0,-4.671,-4.6879,-4.7407,-4.7479,-4.7503,-4.7551,-4.7647,-4.7685,-4.7685,-4.7836,-4.7787,-4.7556,0.0,0.0,-4.7545,-4.7521,-4.7497,-4.7497,-4.7497,-4.7497,-4.7497,-4.7497,-4.7497,-4.7497,-4.7497,-4.7497,-4.7497,-4.7497,-4.7497,-4.7497,-4.7497,-4.7497,-4.7497,-4.7497,-4.7521,-4.7569,-4.7569,-4.7569,-4.7617,-4.7617,-4.7817,-4.8081,-4.8081,-4.8279,-4.8633,-4.8633,-4.8633,-4.8698,-4.8698,-4.8911,-4.9187,-4.9486,-4.959,-4.959,-4.959,-4.959,-4.959,-4.959,-4.959,-4.959,-4.959,-4.959,-4.9439,-4.8937,-4.8786,-4.8586,-4.7835,-4.7643,-4.7475,-4.7274,-4.7172,-4.7085,-4.6947,-4.6927,-4.6751,0.0,0.0,0.0,-4.5634,-4.5111,-4.4563,0.0,0.0,0.0,0.0,0.0,-4.348,-4.3429,-4.3453,-4.3762,-4.437,-4.4591,-4.497,-4.5547,-4.6075,-4.6301,-4.6351,-4.7431,-4.7908,-4.7958,-4.9113,-4.959,-4.959,-4.959,-4.959,-4.959,-4.959,-4.959,-4.959,-4.959,-4.959,-4.959,0.0,0.0,-4.6311,-4.6836,-4.6708,-4.6607,-4.7173,-4.7244,-4.7386,-4.7764,-4.7836,-4.7862,-4.7862,-4.7886,-4.7863,-4.7834,-4.7729,-4.7786,-4.8098,-4.7714,-4.7497,-4.7497,-4.7497,-4.7497,-4.7497,-4.7497,-4.7497,-4.7497,-4.7497,-4.7497,-4.7497,-4.7497,-4.7497,-4.7497,-4.7497,-4.7497,-4.7497,-4.7497,-4.7738,-4.8098,-4.8098,-4.8339,-4.87,-4.87,-4.8768,-4.8836,-4.8836,-4.8903,-4.9063,-4.9242,-4.9377,-4.9401,-4.9646,-4.951,-4.929,-4.9262,-4.9396,-4.959,-4.959,-4.959,-4.959,-4.959,-4.959,-4.959,-4.959,-4.959,-4.9565,-4.9439,-4.9063,-4.8749,-4.8536,-4.7806,-4.7262,-4.7475,-4.7154,-4.6968,-4.7111,-4.6784,-4.6476,0.0,-4.6119,-4.5927,-4.5927,-4.5797,-4.5667,0.0,0.0,0.0,-4.4981,-4.4837,-4.452,-4.4112,-4.4102,-4.4434,-4.5187,-4.5263,-4.5556,-4.6125,-4.625,-4.6301,-4.6351,-4.7431,-4.7908,-4.7958,-4.9113,-4.959,-4.959,-4.959,-4.959,-4.959,-4.959,-4.959,-4.959,-4.959,-4.959,-4.959,-4.6489,-4.6404,-4.6366,-4.665,-4.6752,-4.6876,-4.7181,-4.7348,-4.7582,-4.7864,-4.7959,-4.8053,-4.8053,-4.8122,-4.8191,-4.8403,-4.8004,-4.7901,-4.8106,-4.7821,-4.7746,-4.7949,-4.7949,-4.7921,-4.7858,-4.7858,-4.7738,-4.7497,-4.7497,-4.7497,-4.7497,-4.7497,-4.7497,-4.7497,-4.7497,-4.7497,-4.7521,-4.7762,-4.8026,-4.8315,-4.8555,-4.882,-4.9084,-4.9084,-4.9084,-4.9084,-4.9084,-4.9084,-4.9153,-4.929,-4.9358,-4.9426,-4.9631,-4.9547,-4.934,-4.9067,-4.9141,-4.9396,-4.9525,-4.959,-4.959,-4.959,-4.959,-4.959,-4.959,-4.959,-4.959,-4.959,-4.9364,-4.9063,-4.8812,-4.8284,-4.7769,-4.745,-4.7122,-4.6964,-4.7044,-4.6764,-4.6619,-4.677,-4.6399,-4.618,-4.618,-4.5922,-4.5768,-4.5768,-4.5597,0.0,-4.5311,-4.5196,-4.4954,-4.4649,-4.4535,-4.4767,-4.5472,-4.5732,-4.6009,-4.6301,-4.6301,-4.6301,-4.6351,-4.7431,-4.7908,-4.7958,-4.9113,-4.959,-4.959,-4.959,-4.959,-4.959,-4.959,-4.959,-4.959,-4.959,-4.959,-4.959,-4.6405,-4.6409,-4.6479,-4.6479,-4.6857,-4.7163,-4.7234,-4.7608,-4.7912,-4.7983,-4.8098,-4.8235,-4.8235,-4.8341,-4.8546,-4.8908,-4.8308,-4.7959,-4.8005,-4.7935,-4.805,-4.8396,-4.8396,-4.832,-4.8208,-4.8276,-4.8079,-4.7617,-4.7617,-4.7569,-4.7497,-4.7497,-4.7497,-4.7497,-4.7497,-4.7497,-4.7479,-4.8007,-4.8204,-4.8324,-4.8851,-4.9115,-4.9187,-4.9187,-4.9187,-4.9187,-4.9187,-4.9187,-4.9187,-4.9256,-4.9256,-4.9256,-4.9325,-4.9459,-4.9587,-4.9126,-4.9033,-4.9107,-4.9357,-4.9461,-4.9525,-4.959,-4.9525,-4.9525,-4.959,-4.9525,-4.9525,-4.959,-4.959,-4.9464,-4.8987,-4.8837,-4.846,-4.7531,-4.7305,-4.7115,-4.6889,0.0,-4.6882,-4.7053,-4.6703,-4.6481,-4.6481,-4.5962,-4.5681,-4.5681,-4.5681,-4.5508,-4.5302,-4.5302,-4.5302,-4.5302,-4.4911,-4.502,-4.5598,-4.6075,-4.6301,-4.6301,-4.6401,-4.6426,-4.6476,-4.7556,-4.8033,-4.8083,-4.9138,-4.959,-4.959,-4.959,-4.959,-4.959,-4.959,-4.959,-4.959,-4.959,-4.959,-4.959,-4.6405,-4.651,-4.6632,-4.6632,-4.6843,-4.7049,-4.7486,-4.7601,-4.7809,-4.8246,-4.8361,-4.8335,-4.8335,-4.8427,-4.8473,-4.8473,-4.8384,-4.8395,-4.8568,-4.8146,-4.7888,-4.7957,-4.7957,-4.8003,-4.7978,-4.8278,-4.8359,-4.8171,-4.8171,-4.793,-4.7497,-4.7497,-4.7497,-4.7497,-4.7497,-4.7364,-4.7079,-4.7603,-4.7875,-4.8049,-4.8567,-4.9015,-4.9416,-4.9416,-4.9416,-4.9416,-4.9416,-4.9416,-4.9487,-4.9866,-4.9937,-5.0008,-5.0385,-5.0189,-4.9873,-5.0052,-4.9528,-4.8809,-4.8764,-4.8967,-4.9267,-4.9525,-4.9396,-4.9267,-4.9525,-4.9396,-4.9267,-4.9525,-4.959,-4.9565,-4.949,-4.9088,-4.8711,-4.8535,-4.8109,-4.7606,-4.714,0.0,-4.6889,-4.6471,-4.6585,-4.6739,-4.6739,-4.6637,-4.6586,-4.6586,-4.6348,-4.6169,-4.6109,-4.6109,-4.6109,-4.6109,-4.5598,-4.5623,-4.6175,-4.6276,-4.6301,-4.6326,-4.6778,-4.7004,-4.6993,-4.8134,-4.8636,-4.8686,-4.9314,-4.959,-4.959,-4.959,-4.959,-4.959,-4.959,-4.959,-4.959,-4.959,-4.959,-4.959,-4.6193,-4.6311,-4.6496,-4.6773,-4.7095,-4.7367,-4.7525,-4.7872,-4.8125,-4.8354,-4.84,-4.84,-4.84,-4.84,-4.84,-4.84,-4.84,-4.843,-4.8536,-4.8304,-4.826,-4.8473,-4.8473,-4.8474,-4.831,-4.8261,-4.814,-4.8085,-4.7824,-4.7563,-4.7326,-4.7041,-4.6898,-4.6898,-4.6898,-4.6831,-4.6745,-4.7504,-4.7907,-4.8075,-4.885,-4.9297,-4.9509,-4.9509,-4.9509,-4.9509,-4.9509,-4.9509,-4.9509,-4.9723,-4.9818,-4.989,-5.0246,-5.0221,-5.0028,-5.009,-4.9655,-4.8974,-4.8657,-4.8706,-4.8902,-4.9032,-4.8967,-4.8902,-4.9032,-4.8967,-4.8902,-4.9032,-4.9202,-4.9332,-4.9332,-4.9261,-4.9113,-4.8812,-4.856,-4.8184,-4.7631,-4.7556,-4.7456,-4.7205,-4.7302,-4.7298,-4.696,-4.6935,-4.6809,-4.6566,-4.6386,-4.6301,-4.6301,-4.6602,-4.6753,-4.6753,-4.6225,-4.62,-4.6753,-4.6753,-4.6903,-4.7179,-4.7431,-4.7556,-4.7581,-4.841,-4.8761,-4.8812,-4.9364,-4.959,-4.959,-4.959,-4.959,-4.959,-4.959,-4.959,-4.959,-4.959,-4.959,-4.959,-4.6035,-4.6311,-4.6609,-4.6977,-4.7482,-4.7826,-4.7826,-4.8148,-4.84,-4.84,-4.84,-4.84,-4.84,-4.84,-4.84,-4.84,-4.84,-4.84,-4.84,-4.84,-4.8546,-4.8835,-4.8835,-4.8866,-4.8803,-4.8404,-4.8123,-4.8075,-4.7651,-4.7346,-4.7228,-4.6664,-4.6405,-4.6405,-4.6405,-4.6409,-4.6529,-4.7466,-4.7866,-4.7983,-4.8871,-4.9221,-4.9221,-4.9221,-4.9221,-4.9221,-4.9221,-4.9221,-4.9221,-4.9365,-4.9365,-4.946,-4.9818,-5.0033,-5.0104,-4.9956,-4.9644,-4.9169,-4.8788,-4.8543,-4.8445,-4.86,-4.8535,-4.851,-4.86,-4.8535,-4.851,-4.86,-4.8772,-4.8942,-4.8942,-4.9267,-4.9336,-4.8974,0.0,-4.8761,-4.8184,-4.8109,-4.8058,-4.7933,-4.7908,-4.7757,-4.7355,-4.7305,-4.7154,-4.6702,-4.6677,-4.6677,-4.6677,-4.7079,-4.7305,-4.7305,-4.6903,-4.6878,-4.7305,-4.7305,-4.7506,-4.7908,-4.8033,-4.8109,-4.8134,-4.8711,-4.8962,-4.8987,-4.9414,-4.959,-4.959,-4.959,-4.959,-4.959,-4.959,-4.959,-4.959,-4.959,-4.959,-4.959,-4.6104,-4.6885,-4.7456,-4.7502,-4.801,-4.8331,-4.8331,-4.8377,-4.84,-4.84,-4.84,-4.84,-4.84,-4.84,-4.84,-4.84,-4.84,-4.84,-4.84,-4.84,-4.84,-4.8473,-4.8473,-4.8595,-4.9005,-4.8959,-4.8846,-4.8615,-4.8192,-4.7698,-4.7228,-4.6664,-4.6405,-4.6405,-4.6405,-4.6485,-4.6748,-4.7191,-4.7491,-4.7691,-4.8243,-4.845,-4.845,-4.845,-4.845,-4.845,-4.845,-4.845,-4.8546,-4.8908,-4.9052,-4.9124,-4.9437,-4.9795,-5.0104,-5.0056,-4.9645,-4.9053,-4.8859,-4.8415,-4.8092,-4.851,-4.8313,-4.8158,-4.8535,-4.8313,-4.8158,-4.851,-4.86,-4.8666,-4.8666,-4.8902,-4.9112,-4.9087,0.0,0.0,-4.8786,-4.8711,-4.851,-4.7983,-4.7908,-4.7883,-4.7857,-4.7857,-4.7832,-4.7782,-4.7782,-4.7782,-4.7782,-4.7832,-4.7857,-4.7857,-4.7807,-4.7807,-4.7857,-4.7857,-4.7883,-4.7908,-4.846,-4.8711,-4.8736,-4.9289,-4.954,-4.954,-4.9565,-4.959,-4.959,-4.959,-4.959,-4.959,-4.959,-4.959,-4.959,-4.959,-4.959,-4.959,-4.6931,-4.7367,-4.7663,-4.8056,-4.8263,-4.84,-4.84,-4.84,-4.84,-4.84,-4.84,-4.84,-4.84,-4.84,-4.84,-4.84,-4.84,-4.84,-4.84,-4.84,-4.84,-4.84,-4.84,-4.8473,-4.8618,-4.8618,-4.8575,-4.8511,-4.8024,-4.7515,-4.7005,-4.6472,-4.6055,-4.5777,-4.6078,-4.6288,-4.6381,-4.7211,-4.753,-4.7617,-4.8194,-4.84,-4.84,-4.84,-4.84,-4.84,-4.84,-4.84,-4.84,-4.8618,-4.8618,-4.8691,-4.9029,-4.9268,-4.9484,-4.9961,-4.9647,-4.9105,-4.9048,-4.8348,-4.7696,-4.7918,-4.7762,-4.7696,-4.7918,-4.7762,-4.7696,-4.7918,-4.8116,-4.8248,-4.8248,-4.851,-4.8837,-4.9072,0.0,-4.9257,-4.9314,-4.9289,-4.9213,-4.8987,-4.8962,-4.8812,-4.8485,-4.8435,-4.8284,-4.7933,-4.7908,-4.7783,-4.762,-4.7692,-4.7976,-4.8323,-4.8323,-4.8366,-4.846,-4.8435,-4.8611,-4.8962,-4.9188,-4.9289,-4.9289,-4.949,-4.959,-4.959,-4.959,-4.959,-4.959,-4.959,-4.959,-4.959,-4.959,-4.959,-4.959,-4.959,-4.959,-4.959,-4.7482,-4.778,-4.7987,-4.8331,-4.84,-4.84,-4.84,-4.84,-4.84,-4.84,-4.84,-4.84,-4.84,-4.84,-4.84,-4.84,-4.84,-4.84,-4.84,-4.84,-4.84,-4.84,-4.84,-4.84,-4.84,-4.84,-4.84,-4.84,-4.7895,-4.7459,-4.7115,-4.6586,-4.6173,-4.5921,-4.6196,-4.6449,-4.6655,-4.7344,-4.7734,-4.7895,-4.824,-4.84,-4.84,-4.84,-4.84,-4.84,-4.84,-4.84,-4.84,-4.84,-4.84,-4.8473,-4.8691,-4.8908,-4.9124,-4.989,-4.9577,-4.8947,-4.9084,-4.8315,-4.7497,-4.7497,-4.7497,-4.7497,-4.7497,-4.7497,-4.7497,-4.7497,-4.7696,-4.7828,-4.7828,-4.8182,-4.851,-4.8747,-4.8942,-4.9202,-4.9396,-4.9525,-4.959,-4.959,-4.959,-4.9439,-4.9063,-4.8974,-4.8735,-4.8334,-4.8183,-4.8018,-4.7788,-4.7942,-4.8182,-4.8576,-4.86,-4.8664,-4.8718,-4.8846,-4.9149,-4.959,-4.9461,-4.9461,-4.9461,-4.9332,-4.9292,-4.9292,-4.9292,-4.9332,-4.9461,-4.9461,-4.9525,-4.959,-4.959,-4.959,-4.959,-4.959,-4.959,-4.959,-4.7551,-4.8056,-4.84,-4.84,-4.84,-4.84,-4.84,-4.84,-4.84,-4.84,-4.84,-4.84,-4.84,-4.84,-4.84,-4.84,-4.84,-4.84,-4.84,-4.84,-4.84,-4.84,-4.84,-4.84,-4.84,-4.84,-4.84,-4.84,-4.7895,-4.7571,-4.7548,-4.7115,-4.6885,-4.6885,-4.6885,-4.716,-4.7571,-4.7571,-4.7941,-4.84,-4.84,-4.84,-4.84,-4.84,-4.84,-4.84,-4.84,-4.84,-4.84,-4.84,-4.84,-4.84,-4.84,-4.8691,-4.9124,-4.989,-4.9367,-4.8603,-4.9016,-4.8315,-4.7497,-4.7497,-4.7497,-4.7497,-4.7497,-4.7497,-4.7497,-4.7497,-4.7497,-4.7497,-4.7497,-4.7762,-4.8026,-4.8026,-4.8616,-4.9072,-4.9072,-4.9396,-4.959,-4.959,-4.959,-4.959,-4.959,-4.9267,-4.9072,-4.9072,-4.8772,-4.86,-4.86,-4.86,-4.86,-4.86,-4.86,-4.86,-4.86,-4.8942,-4.9267,-4.959,-4.9267,-4.9072,-4.9072,-4.8772,-4.86,-4.86,-4.86,-4.8772,-4.9072,-4.9072,-4.9267,-4.959,-4.959,-4.959,-4.959,-4.959,-4.959,-4.959,-4.8079,-4.8286,-4.84,-4.84,-4.84,-4.84,-4.84,-4.84,-4.84,-4.84,-4.84,-4.84,-4.84,-4.84,-4.84,-4.84,-4.84,-4.84,-4.84,-4.84,-4.84,-4.84,-4.84,-4.84,-4.84,-4.84,-4.84,-4.84,-4.824,-4.7987,-4.7571,-4.7482,-4.7229,-4.6885,-4.7252,-4.7505,-4.7594,-4.801,-4.8263,-4.84,-4.84,-4.84,-4.84,-4.84,-4.84,-4.84,-4.84,-4.84,-4.84,-4.84,-4.84,-4.84,-4.84,-4.8691,-4.8982,-4.8801,-4.8451,-4.8118,-4.8151,-4.769,-4.7232,-4.7431,-4.7497,-4.7497,-4.7497,-4.7497,-4.7497,-4.7497,-4.7497,-4.7497,-4.7497,-4.7563,-4.7696,-4.796,-4.8158,-4.842,-4.8706,-4.8837,-4.8902,-4.8902,-4.8902,-4.8902,-4.8902,-4.8837,-4.8772,-4.8772,-4.8379,-4.8182,-4.8182,-4.7984,-4.7852,-4.7852,-4.7852,-4.796,-4.8182,-4.8576,-4.8772,-4.8902,-4.8772,-4.8772,-4.8772,-4.8641,-4.86,-4.86,-4.86,-4.8641,-4.8772,-4.8772,-4.8837,-4.8902,-4.8902,-4.8902,-4.8902,-4.9137,-4.9267,-4.9267,-4.785,-4.7941,-4.7941,-4.7941,-4.7941,-4.7941,-4.8159,-4.8159,-4.8232,-4.84,-4.84,-4.84,-4.84,-4.84,-4.84,-4.84,-4.8232,-4.8159,-4.8159,-4.8013,-4.7941,-4.7941,-4.7941,-4.8086,-4.8377,-4.84,-4.84,-4.84,-4.84,-4.824,-4.7941,-4.7941,-4.778,-4.7482,-4.7803,-4.7941,-4.7964,-4.8263,-4.84,-4.84,-4.84,-4.84,-4.84,-4.84,-4.84,-4.84,-4.84,-4.84,-4.84,-4.84,-4.84,-4.84,-4.84,-4.8546,-4.867,-4.8329,-4.7959,-4.7724,-4.762,-4.7167,-4.6831,-4.7032,-4.7298,-4.7497,-4.7497,-4.7497,-4.7497,-4.7497,-4.7497,-4.7497,-4.7497,-4.7497,-4.7563,-4.7762,-4.7894,-4.8092,-4.8313,-4.851,-4.86,-4.86,-4.86,-4.86,-4.86,-4.8445,-4.8313,-4.8182,-4.796,-4.7828,-4.7828,-4.763,-4.7497,-4.7497,-4.7497,-4.763,-4.7828,-4.805,-4.8313,-4.86,-4.8445,-4.8379,-4.8379,-4.8248,-4.8182,-4.8182,-4.8182,-4.8248,-4.8379,-4.8379,-4.8445,-4.86,-4.86,-4.86,-4.86,-4.8837,-4.8902,-4.8942,-4.7096,-4.7186,-4.7186,-4.7186,-4.7186,-4.7355,-4.7721,-4.7721,-4.7868,-4.8232,-4.8305,-4.8305,-4.8305,-4.8305,-4.8305,-4.8305,-4.7941,-4.7721,-4.7721,-4.7406,-4.7186,-4.7186,-4.7186,-4.7575,-4.8305,-4.8305,-4.8305,-4.8305,-4.8305,-4.8305,-4.8305,-4.8305,-4.8305,-4.8305,-4.8305,-4.8305,-4.8305,-4.8305,-4.8305,-4.8328,-4.8328,-4.8328,-4.8328,-4.84,-4.84,-4.84,-4.84,-4.84,-4.84,-4.84,-4.84,-4.84,-4.84,-4.84,-4.8358,-4.814,-4.7724,-4.7307,-4.7138,-4.6714,-4.6338,-4.6405,-4.6874,-4.7431,-4.7431,-4.7497,-4.7497,-4.7497,-4.7497,-4.7497,-4.7497,-4.7497,-4.7497,-4.7497,-4.7762,-4.796,-4.796,-4.8248,-4.851,-4.851,-4.851,-4.851,-4.851,-4.8182,-4.7828,-4.7497,-4.7497,-4.7497,-4.7497,-4.7497,-4.7497,-4.7497,-4.7497,-4.7497,-4.7497,-4.7497,-4.7852,-4.851,-4.8116,-4.796,-4.796,-4.763,-4.7497,-4.7497,-4.7497,-4.7696,-4.796,-4.796,-4.8182,-4.851,-4.851,-4.851,-4.8535,-4.8535,-4.8535,-4.851,-4.7186,-4.7186,-4.7186,-4.7186,-4.7186,-4.7186,-4.7355,-4.7332,-4.7355,-4.7428,-4.7502,-4.7502,-4.7502,-4.7502,-4.7502,-4.7502,-4.7355,-4.7332,-4.7332,-4.7281,-4.7186,-4.7186,-4.7186,-4.7281,-4.7502,-4.7502,-4.7502,-4.7502,-4.7502,-4.7502,-4.7502,-4.7502,-4.7502,-4.7502,-4.7502,-4.7502,-4.7502,-4.7502,-4.7502,-4.7502,-4.7794,-4.7941,-4.7941,-4.8305,-4.84,-4.84,-4.84,-4.84,-4.84,-4.84,-4.84,-4.84,-4.84,-4.84,-4.8217,-4.744,-4.7095,-4.6888,-4.6308,-4.6095,-4.6092,-4.6338,-4.654,-4.6764,-4.7032,-4.7298,-4.7497,-4.7497,-4.7497,-4.7497,-4.7497,-4.7497,-4.7497,-4.7497,-4.7563,-4.763,-4.763,-4.7696,-4.772,-4.772,-4.772,-4.772,-4.772,-4.763,-4.7563,-4.7497,-4.7497,-4.7497,-4.7497,-4.7497,-4.7497,-4.7497,-4.7497,-4.7497,-4.7497,-4.7497,-4.7563,-4.772,-4.763,-4.763,-4.763,-4.7497,-4.7497,-4.7497,-4.7497,-4.7563,-4.763,-4.763,-4.763,-4.772,-4.772,-4.772,-4.7762,-4.8026,-4.8092,-4.8182,-4.6596,-4.6596,-4.6596,-4.6596,-4.6596,-4.667,-4.6891,-4.6891,-4.6965,-4.7186,-4.7186,-4.7186,-4.7186,-4.7186,-4.7186,-4.7186,-4.7038,-4.6891,-4.6891,-4.6743,-4.6596,-4.6596,-4.6596,-4.6596,-4.6596,-4.6596,-4.6817,-4.7186,-4.7186,-4.7186,-4.7186,-4.7186,-4.7186,-4.7186,-4.7186,-4.7186,-4.7186,-4.7186,-4.7186,-4.7208,-4.7428,-4.7502,-4.7575,-4.7721,-4.7941,-4.8086,-4.8086,-4.8255,-4.84,-4.84,-4.84,-4.84,-4.84,-4.8217,-4.7872,-4.7115,-4.6701,-4.6403,-4.5826,-4.5686,-4.5686,-4.589,-4.6025,-4.6294,-4.663,-4.7032,-4.7232,-4.7232,-4.7364,-4.7497,-4.7497,-4.7497,-4.7497,-4.7497,-4.7497,-4.7497,-4.7497,-4.7497,-4.7497,-4.7497,-4.7497,-4.7497,-4.7497,-4.7497,-4.7497,-4.7497,-4.7497,-4.7497,-4.7497,-4.7497,-4.7497,-4.7497,-4.7497,-4.7497,-4.7497,-4.7497,-4.7497,-4.7497,-4.7497,-4.7497,-4.7497,-4.7497,-4.7497,-4.7497,-4.7497,-4.7497,-4.7497,-4.7497,-4.7497,-4.7497,-4.7497,-4.7497,-4.7497,-4.7696,-4.7762,-4.7762,-4.6002,-4.6002,-4.6002,-4.6002,-4.6002,-4.6077,-4.6448,-4.6522,-4.6596,-4.6965,-4.6965,-4.6965,-4.6965,-4.6965,-4.6965,-4.6965,-4.667,-4.6522,-4.6522,-4.6151,-4.6002,-4.6002,-4.6002,-4.6002,-4.6002,-4.6002,-4.6299,-4.6965,-4.6965,-4.6965,-4.6965,-4.6965,-4.6965,-4.6965,-4.6965,-4.6965,-4.6965,-4.6965,-4.6965,-4.6965,-4.7038,-4.7112,-4.7112,-4.7186,-4.7428,-4.7721,-4.7721,-4.7941,-4.8159,-4.8159,-4.8159,-4.8159,-4.8159,-4.7816,-4.7314,-4.6811,-4.6378,-4.5874,-4.5439,-4.5347,-4.5438,-4.5438,-4.5619,-4.589,-4.616,-4.6563,-4.6898,-4.6898,-4.7165,-4.7431,-4.7431,-4.7431,-4.7497,-4.7497,-4.7497,-4.7497,-4.7497,-4.7497,-4.7497,-4.7497,-4.7497,-4.7497,-4.7497,-4.7497,-4.7497,-4.7497,-4.7497,-4.7497,-4.7497,-4.7497,-4.7497,-4.7497,-4.7497,-4.7497,-4.7497,-4.7497,-4.7497,-4.7497,-4.7497,-4.7497,-4.7497,-4.7497,-4.7497,-4.7497,-4.7497,-4.7497,-4.7497,-4.7497,-4.7497,-4.7497,-4.7497,-4.7497,-4.7497,-4.7497,-4.7497,-4.7497,-4.6002,-4.6002,-4.6002,-4.6002,-4.6002,-4.6002,-4.6077,-4.6077,-4.6077,-4.6151,-4.6151,-4.6151,-4.6151,-4.6151,-4.6151,-4.6151,-4.6151,-4.6077,-4.6077,-4.6002,-4.6002,-4.6002,-4.6002,-4.6002,-4.6002,-4.6002,-4.6077,-4.6151,-4.6151,-4.6151,-4.6151,-4.6151,-4.6151,-4.6151,-4.6151,-4.6151,-4.6151,-4.6151,-4.6151,-4.6225,-4.6522,-4.667,-4.6743,-4.7038,-4.7186,-4.7281,-4.7281,-4.7355,-4.7355,-4.7355,-4.7355,-4.7355,-4.7355,-4.6995,-4.6573,-4.6006,-4.5746,-4.5528,-4.5005,-4.5142,-4.5438,-4.5438,-4.5415,-4.5483,-4.5483,-4.6025,-4.6473,-4.6473,-4.6764,-4.7055,-4.7055,-4.7298,-4.7497,-4.7497,-4.7497,-4.7497,-4.7497,-4.7497,-4.7497,-4.7497,-4.7497,-4.7497,-4.7497,-4.7497,-4.7497,-4.7497,-4.7497,-4.7497,-4.7497,-4.7497,-4.7497,-4.7497,-4.7497,-4.7497,-4.7497,-4.7497,-4.7497,-4.7497,-4.7497,-4.7497,-4.7497,-4.7497,-4.7497,-4.7497,-4.7497,-4.7497,-4.7497,-4.7497,-4.7497,-4.7497,-4.7497,-4.7497,-4.7497,-4.7497,-4.7497,-4.7497,-4.6002,-4.6002,-4.6002,-4.6002,-4.6002,-4.6002,-4.6002,-4.6002,-4.6002,-4.6002,-4.6002,-4.6002,-4.6002,-4.6002,-4.6002,-4.6002,-4.6002,-4.6002,-4.6002,-4.6002,-4.6002,-4.6002,-4.6002,-4.6002,-4.6002,-4.6002,-4.6002,-4.6002,-4.6002,-4.6002,-4.6002,-4.6002,-4.6002,-4.6002,-4.6002,-4.6002,-4.6002,-4.6002,-4.6002,-4.6002,-4.6225,-4.6299,-4.6299,-4.6448,-4.667,-4.6891,-4.7112,-4.7186,-4.7186,-4.7186,-4.7186,-4.7141,-4.6872,-4.6446,-4.5953,-4.5438,-4.5107,-4.4819,-4.4593,-4.48,-4.5074,-4.5074,-4.521,-4.5438,-4.5438,-4.5619,-4.589,-4.6069,-4.6429,-4.6697,-4.6697,-4.6965,-4.7232,-4.7232,-4.7364,-4.7497,-4.7497,-4.7497,-4.7497,-4.7497,-4.7497,-4.7497,-4.7497,-4.7497,-4.7497,-4.7497,-4.7497,-4.7497,-4.7497,-4.7497,-4.7497,-4.7497,-4.7497,-4.7497,-4.7497,-4.7497,-4.7497,-4.7497,-4.7497,-4.7497,-4.7497,-4.7497,-4.7497,-4.7497,-4.7497,-4.7497,-4.7497,-4.7497,-4.7497,-4.7497,-4.7497,-4.7497,-4.7497,-4.7497,-4.7497,-4.7497]}]]